     2              OBSERVATION DATA    GPS                 RINEX VERSION / TYPE
teqc 2000Feb29 20010702 15:26:37UTC                         PGM / RUN BY / DATE
                                                            COMMENT
L2: 1 -> 1; 150 -> 5; 250 -> 9                              COMMENT
L2: 1 -> 1; 150 -> 5; 250 -> 9                              COMMENT
L2: 1 -> 1; 150 -> 5; 250 -> 9                              COMMENT
L2: 1 -> 1; 150 -> 5; 250 -> 9                              COMMENT
L2: 1 -> 1; 150 -> 5; 250 -> 9                              COMMENT
Original Marker Name: 0809                                  COMMENT
Campaign Name: Post Hector Surveys                          COMMENT
4-Character Station Name: 0809                              COMMENT
6-Character Antenna Code: DMRCHT                            COMMENT
Vertical Measurement Point: BCR                             COMMENT
Vertical Offset to Rinex Ref. Point: 0.0348                 COMMENT
Radial Measurement Point: ECF                               COMMENT
Radial Offset to Rinex Ref. Point: 0.1897                   COMMENT
Antenna Height from Field Measurement: 0.5710 m             COMMENT
Additional Antenna Identification Info.:                    COMMENT
Turborogue and Ashtech Choke Ring                           COMMENT
Original XYZ: -2242966.6700 -4739257.9600 3620594.0400      COMMENT
New XYZ position is based on association with SCEC monument COMMENT
E1F2V3V2+0011. Position of that monument is believed to be  COMMENT
valid to within 1 m horizontally; vertical accuracy         COMMENT
should be no worse than 3-times this value.                 COMMENT
                                                            COMMENT
Revised Rinex header created by UCSD GPS archive for        COMMENT
GSAC on 09-Jul-2001 (2001:190) 19:50:38 GMT                 COMMENT
For assistance contact dagnew@ucsd.edu                      COMMENT
or anderson@python.ucsd.edu                                 COMMENT
                                                            COMMENT
08-9 1990                                                   MARKER NAME
HML UNIV CALIF LOS ANGELES                                  OBSERVER / AGENCY
148 ASHTECH Z-XII3 1L00                                     REC # / TYPE / VERS
768 DORNE-MARGOL. TYPE T                                    ANT # / TYPE
 -2242962.2234 -4739238.9015  3620582.9813                  APPROX POSITION XYZ
        0.5038        0.0000        0.0000                  ANTENNA: DELTA H/E/N
     1     1     0                                          WAVELENGTH FACT L1/2
     7    C1    L1    L2    P1    P2    S1    S2            # / TYPES OF OBSERV
     0                                                      INTERVAL
  2001     6    22    19    12    0.000000                  TIME OF FIRST OBS
  2001     6    22    23    59   30.000000                  TIME OF LAST OBS
                                                            END OF HEADER
 01  6 22 19 12  0.0000000  0  7G21G18G 6G17G15G26G23
  22889111.720     -301181.00159   -208846.56456  22889111.405    22889119.689
       227.000         171.000
  20530434.594     -131156.38454
       238.000         109.000
  21914073.862       89708.42855
       232.000         143.000
  20680033.954     -145578.79559   -104791.92457  20680033.245    20680040.854
       239.000         203.000
  20726604.159     -219336.07959   -157164.12657  20726603.194    20726610.417
       241.000         203.000
  22188890.168       31946.95459     20546.16156  22188890.527    22188897.364
       231.000         172.000
  20790859.089      -76465.85459    -54250.67757  20790858.301    20790865.019
       241.000         206.000
 01  6 22 19 12 30.0000000  0  8G21G 3G18G 6G17G15G26G23
  22868520.996     -409382.64459   -293159.46156  22868520.638    22868529.525
       227.000         170.000
  23907848.752     -271176.73255                                  23907859.490
       211.000         146.000
  20518636.438      -29437.07147                                  20518641.759
       238.000         207.000
  21921794.018       25070.17246                                  21921802.609
       233.000         187.000
  20670475.562     -195809.85859   -143933.02157  20670474.825    20670482.224
       234.000         198.000
  20712265.868     -294685.30059   -215877.80257  20712265.039    20712272.114
       241.000         205.000
  22191197.563       44071.46059     29993.84355  22191196.070    22191205.107
       205.000         134.000
  20785539.291     -104423.56659    -76035.91257  20785538.264    20785545.198
       241.000         206.000
 01  6 22 19 13  0.0000000  0  8G21G 3G18G 6G17G15G26G23
  22847962.793     -517417.70249   -377342.54546  22847962.150    22847971.736
       226.000         171.000
  23881138.801     -531085.14049   -380559.92645  23881136.220    23881146.852
       212.000         150.000
  20506900.701     -305472.68959    -77493.23057  20506900.230    20506905.720
       237.000         208.000
  21929567.452      208234.20259     56901.58256  21929566.710    21929575.753
       228.000         185.000
  20660945.955     -245887.08449   -182954.24047  20660945.538    20660952.780
       236.000         196.000
  20697954.764     -369890.05149   -274478.88647  20697954.017    20697961.268
       243.000         204.000
  22193595.351       56672.94557     39813.07754  22193593.939    22193598.370
       156.000         126.000
  20780263.520     -132144.46849    -97636.61547  20780262.919    20780269.939
       240.000         204.000
 01  6 22 19 13 30.0000000  0  8G21G 3G18G 6G17G15G26G23
  22827449.523     -625215.85049   -461341.02146  22827448.911    22827458.225
       225.000         170.000
  23854468.160     -671228.00149   -489762.04045  23854467.652    23854478.922
       215.000         150.000
  20495240.611     -366747.89949   -125240.12647  20495240.047    20495245.867
       238.000         208.000
  21937407.634      249433.11749     89004.49646  21937407.147    21937416.692
       230.000         183.000
  20651459.670     -295739.04449   -221799.94347  20651458.902    20651466.664
       240.000         205.000
  20683684.886     -444878.92049   -332911.75147  20683684.406    20683691.377
       240.000         203.000
  22196096.094        2877.63856       226.000
       173.000
  20775046.706     -159559.53549   -118999.00747  20775046.017    20775053.132
       239.000         205.000
 01  6 22 19 14  0.0000000  0  8G21G 3G18G 6G17G15G26G23
  22807002.085     -732666.95249   -545069.06046  22807001.623    22807011.712
       225.000         169.000
  23827865.697     -811025.59759   -598695.08755  23827865.450    23827876.201
       213.000         150.000
  20483676.557     -427516.70149   -172592.41847  20483676.221    20483682.074
       238.000         208.000
  21945334.401      291088.48749    121463.10046  21945334.170    21945343.578
       230.000         182.000
  20642036.997     -345254.62849   -260383.52247  20642036.390    20642044.306
       239.000         205.000
  20669477.117     -519540.61849   -391089.68047  20669476.112    20669483.923
       240.000         202.000
  22198721.308       23510.64149     13627.46846  22198721.088    22198729.571
       226.000         174.000
  20769908.586     -186560.08249   -140038.39247  20769907.908    20769915.356
       239.000         205.000
 01  6 22 19 14 30.0000000  0  8G21G 3G18G 6G17G15G26G23
  22786611.724     -839818.41549   -628563.61746  22786611.871    22786621.601
       224.000         170.000
  23801320.422     -950523.34349   -707394.53245  23801320.510    23801330.474
       213.000         152.000
  20472199.734     -487827.75449   -219588.01947  20472199.268    20472205.049
       239.000         208.000
  21953338.732      333150.46949    154238.53946  21953338.678    21953348.133
       229.000         181.000
  20632669.522     -394480.70649   -298741.51247  20632668.718    20632676.628
       239.000         205.000
  20655322.836     -593922.03649   -449049.20147  20655321.822    20655329.355
       239.000         203.000
  22201461.266       37908.11649     24846.22346  22201461.160    22201469.280
       229.000         181.000
  20764839.999     -213195.26549   -160793.07247  20764839.427    20764846.421
       238.000         204.000
 01  6 22 19 15  0.0000000  0  8G21G 3G18G 6G17G15G26G23
  22766264.766     -946742.56549   -711881.02546  22766264.843    22766273.167
       226.000         169.000
  23774818.275    -1089790.94649   -815914.61245  23774818.001    23774829.170
       211.000         150.000
  20460796.219     -547753.80149   -266283.63247  20460795.730    20460801.555
       241.000         207.000
  21961405.954      375543.74759    187271.90756  21961406.381    21961415.487
       228.000         181.000
  20623343.749     -443488.54749   -336929.44947  20623343.113    20623351.031
       238.000         204.000
  20641208.340     -668094.47949   -506845.89847  20641207.538    20641215.004
       239.000         201.000
  22204300.910       52833.22359     36476.18256  22204301.065    22204309.740
       225.000         171.000
  20759827.086     -239538.94449   -181320.61947  20759826.330    20759833.735
       241.000         206.000
 01  6 22 19 15 30.0000000  0  8G21G 3G18G 6G17G15G26G23
  22745967.691    -1053403.46949   -794993.35046  22745967.633    22745976.008
       227.000         172.000
  23748367.977    -1228790.22949   -924225.62845  23748366.450    23748377.185
       208.000         151.000
  20449472.698     -607260.15549   -312652.18447  20449472.162    20449477.767
       238.000         206.000
  21969543.542      418303.84049    220591.31746  21969542.177    21969552.382
       226.000         170.000
  20614066.387     -492241.63249   -374918.88847  20614066.035    20614073.696
       235.000         201.000
  20627140.627     -742021.76249   -564451.56647  20627139.989    20627146.857
       237.000         204.000
  22207248.328       68319.56248     48543.41145  22207247.184    22207270.611
       191.000         148.000
  20754876.157     -265557.13949   -201594.54547  20754875.685    20754882.517
       242.000         205.000
 01  6 22 19 16  0.0000000  0  8G21G 3G18G 6G17G15G26G23
  22725730.114    -1159753.09049   -877863.12146  22725729.284    22725740.046
       231.000         174.000
  23721977.504    -1367470.01749  -1032287.70345  23721976.989    23721987.951
       219.000         149.000
  20438237.876     -666299.44449   -358656.82147  20438237.647    20438243.038
       236.000         206.000
  21977758.940      461475.65049    254231.55046  21977758.692    21977768.607
       211.000         166.000
  20604846.783     -540691.04349   -412671.67947  20604846.302    20604853.957
       241.000         207.000
  20613128.621     -815654.48649   -621827.68547  20613127.926    20613134.973
       237.000         201.000
  22210310.354       84412.30759     61083.18156  22210310.778    22210319.475
       221.000         171.000
  20749995.925     -291203.14149   -221578.44947  20749995.458    20750002.632
       244.000         208.000
 01  6 22 19 16 30.0000000  0  8G21G 3G18G 6G17G15G26G23
  22705547.162    -1265814.81359   -960508.49156  22705546.859    22705555.500
       227.000         171.000
  23695644.987    -1505851.84059  -1140117.80055  23695643.997    23695655.411
       216.000         149.000
  20427087.540     -724896.09559   -404316.77857  20427086.889    20427092.974
       237.000         207.000
  21986047.850      505034.38159    288173.31256  21986047.183    21986056.835
       230.000         185.000
  20595680.779     -588859.42759   -450205.70657  20595680.347    20595688.125
       238.000         203.000
  20599168.751     -889013.49859   -678990.32657  20599167.807    20599175.194
       239.000         201.000
  22213483.743      101088.47559     74077.86155  22213482.593    22213494.430
       201.000         132.000
  20745181.921     -316501.00859   -241291.08857  20745181.173    20745188.449
       241.000         206.000
 01  6 22 19 17  0.0000000  0  8G21G 3G18G 6G17G15G26G23
  22685428.366    -1371539.05349  -1042890.91446  22685428.340    22685437.758
       227.000         172.000
  23669378.129    -1643882.27049  -1247673.85845  23669377.722    23669388.173
       212.000         153.000
  20416030.571     -783000.18549   -449592.67247  20416030.122    20416036.417
       238.000         208.000
  21994419.585      549026.77749    322452.95746  21994419.268    21994428.803
       230.000         181.000
  20586578.010     -636695.19949   -487480.33847  20586577.365    20586585.361
       241.000         206.000
  20585269.902     -962051.11949   -735902.74247  20585269.124    20585276.984
       241.000         202.000
  22216776.860      118392.21259     87561.24055  22216777.004    22216785.328
       214.000         140.000
  20740443.200     -341403.66549   -260695.74747  20740442.578    20740449.912
       241.000         205.000
 01  6 22 19 17 29.9990000  0  8G21G 3G18G 6G17G15G26G23
  22665377.114    -1476905.85349  -1124994.80546  22665376.506    22665387.319
       224.000         171.000
  23643182.214    -1781538.41649  -1354938.28445  23643182.420    23643193.655
       213.000         153.000
  20405070.190     -840594.96849   -494471.71547  20405069.900    20405076.263
       237.000         207.000
  22002875.776      593465.70649    357080.56146  22002875.279    22002885.561
       230.000         180.000
  20577541.544     -684180.29049   -524481.71147  20577541.064    20577549.108
       238.000         203.000
  20571436.075    -1034746.53449   -792548.50747  20571435.472    20571443.391
       239.000         202.000
  22220191.058      136338.09049    101544.96246  22220190.936    22220200.118
       223.000         171.000
  20735782.273     -365895.08749   -279779.98447  20735781.731    20735789.376
       241.000         206.000
 01  6 22 19 17 59.9990000  0  8G21G 3G18G 6G17G15G26G23
  22645401.226    -1581880.97449  -1206793.50646  22645401.257    22645410.517
       226.000         172.000
  23617065.519    -1918785.71449  -1461884.11745  23617065.462    23617075.859
       213.000         156.000
  20394214.417     -897643.28449   -538924.94547  20394213.975    20394220.449
       237.000         208.000
  22011425.346      638393.48749    392089.09046  22011424.875    22011434.881
       228.000         180.000
  20568579.889     -731275.48249   -561179.27547  20568579.085    20568587.096
       239.000         203.000
  20557675.065    -1107062.35949   -848898.49147  20557674.276    20557682.034
       241.000         203.000
  22223736.474      154966.77049    116060.77946  22223736.453    22223745.105
       222.000         168.000
  20731207.357     -389937.10649   -298514.04247  20731206.745    20731214.328
       241.000         206.000
 01  6 22 19 18 29.9990000  0  8G21G 3G18G 6G17G15G26G23
  22625480.982    -1686562.50749  -1288363.44746  22625481.343    22625490.223
       227.000         172.000
  23591008.191    -2055718.73249  -1568585.05545  23591007.201    23591018.202
       213.000         153.000
  20383443.184     -954246.42549   -583031.27547  20383442.903    20383449.110
       237.000         207.000
  22020047.937      683704.28849    427396.06146  22020047.761    22020057.395
       230.000         179.000
  20559673.319     -778080.12349   -597650.42747  20559672.874    20559680.529
       238.000         203.000
  20543967.200    -1179097.08449   -905029.42647  20543966.775    20543974.094
       240.000         202.000
  22227391.173      174173.10649    131026.71846  22227390.864    22227400.143
       222.000         169.000
  20726698.381     -413632.46349   -316977.96447  20726697.946    20726705.290
       241.000         206.000
 01  6 22 19 18 59.9990000  0  8G21G 3G18G 6G17G15G26G23
  22605624.496    -1790910.22149  -1369673.25146  22605624.173    22605634.158
       228.000         173.000
  23565018.371    -2192294.61849  -1675007.69545  23565017.529    23565029.131
       215.000         154.000
  20372764.340    -1010364.90649   -626759.94747  20372763.834    20372770.137
       237.000         207.000
  22028750.591      729436.28349    463031.23346  22028750.424    22028760.634
       230.000         182.000
  20550829.946     -824553.22049   -633863.23547  20550829.264    20550836.917
       239.000         203.000
  20530320.789    -1250809.46949   -960909.19447  20530320.310    20530327.928
       240.000         202.000
  22231163.613      193995.36549    146472.59846  22231163.332    22231172.190
       224.000         172.000
  20722262.814     -436942.35949   -335141.52847  20722262.248    20722269.616
       241.000         206.000
 01  6 22 19 19 29.9990000  0  8G21G 3G18G 6G17G15G26G23
  22585834.531    -1894906.09949  -1450708.90146  22585834.293    22585843.934
       228.000         174.000
  23539100.602    -2328493.01049  -1781136.21045  23539100.610    23539110.432
       215.000         155.000
  20362180.670    -1065981.85949   -670097.82247  20362180.514    20362186.725
       237.000         208.000
  22037536.574      775605.18149    499006.86546  22037536.241    22037545.980
       229.000         181.000
  20542053.088     -870675.85549   -669802.95647  20542052.523    20542060.077
       239.000         204.000
  20516739.422    -1322180.57949  -1016523.03147  20516738.734    20516746.389
       240.000         202.000
  22235055.470      214448.99449    162410.46446  22235056.137    22235065.066
       224.000         170.000
  20717903.261     -459850.51549   -352992.05147  20717902.938    20717910.343
       240.000         206.000
 01  6 22 19 19 59.9990000  0  8G21G 3G18G 6G17G15G26G23
  22566104.802    -1998585.61149  -1531498.04346  22566104.403    22566114.176
       229.000         177.000
  23513248.345    -2464346.52949  -1886995.99445  23513248.105    23513259.049
       211.000         155.000
  20351685.861    -1121133.12349   -713072.82847  20351685.368    20351691.515
       239.000         209.000
  22046398.119      822173.39249    535293.65846  22046397.980    22046407.365
       228.000         177.000
  20533336.371     -916482.48449   -705496.44147  20533335.713    20533343.353
       241.000         207.000
  20503216.206    -1393244.67949  -1071897.65347  20503215.365    20503223.121
       240.000         203.000
  22239060.645      235496.41949    178811.03845  22239059.544    22239070.953
       212.000         156.000
  20713613.551     -482393.70449   -370558.18647  20713612.832    20713620.459
       240.000         206.000
 01  6 22 19 20 29.9990000  0  8G21G 3G18G 6G17G15G26G23
  22546441.239    -2101918.99249  -1612017.46146  22546440.814    22546450.613
       228.000         175.000
  23487468.112    -2599822.65549  -1992561.68645  23487467.838    23487478.056
       213.000         155.000
  20341285.148    -1175789.61849   -755662.27547  20341284.681    20341291.025
       239.000         209.000
  22055340.928      869168.74949    571913.24946  22055341.006    22055350.464
       229.000         179.000
  20524685.724     -961942.19649   -740919.59047  20524685.418    20524692.786
       239.000         204.000
  20489757.416    -1463971.05349  -1127009.08247  20489756.938    20489764.594
       240.000         202.000
  22243184.157      257165.06249    195695.67246  22243184.089    22243193.036
       222.000         170.000
  20709398.671     -504543.36749   -387817.66447  20709398.226    20709405.724
       240.000         206.000
 01  6 22 19 20 59.9990000  0  8G21G 3G18G 6G17G15G26G23
  22526836.077    -2204945.21949  -1692297.55446  22526834.824    22526844.818
       229.000         175.000
  23461752.758    -2734958.49749  -2097862.24345  23461751.948    23461762.679
       212.000         154.000
  20330970.885    -1229991.50249   -797897.50647  20330970.479    20330976.754
       239.000         209.000
  22064357.488      916549.80249    608833.39946  22064357.586    22064367.315
       227.000         178.000
  20516093.770    -1007093.20849   -776102.20547  20516093.409    20516100.748
       240.000         203.000
  20476355.699    -1534398.14349  -1181887.32947  20476355.078    20476362.769
       240.000         202.000
  22247418.011      279413.37549    213031.99646  22247418.470    22247426.561
       222.000         170.000
  20705250.781     -526340.38449   -404802.37047  20705250.347    20705257.947
       240.000         206.000
 01  6 22 19 21 29.9990000  0  8G21G 3G18G 6G17G15G26G23
  22507286.776    -2307676.11449  -1772347.51346  22507286.561    22507295.906
       229.000         175.000
  23436099.830    -2869762.89549  -2202904.51245  23436099.980    23436110.057
       212.000         155.000
  20320740.752    -1283751.32549   -839788.26547  20320740.292    20320746.500
       239.000         210.000
  22073444.599      964302.49449    646043.14346  22073444.538    22073454.670
       227.000         178.000
  20507558.372    -1051946.39849   -811052.73747  20507557.938    20507565.288
       239.000         203.000
  20463008.748    -1604536.53849  -1236540.61147  20463008.063    20463015.772
       240.000         203.000
  22251759.194      302227.30949    230809.04746  22251759.287    22251768.743
       221.000         170.000
  20701167.504     -547798.20449   -421522.75147  20701167.144    20701174.633
       239.000         205.000
 01  6 22 19 21 59.9990000  0  8G21G 3G18G 6G17G15G26G23
  22487790.336    -2410130.28849  -1852181.84646  22487789.602    22487800.078
       229.000         175.000
  23410507.687    -3004251.65749  -2307700.86045  23410507.291    23410517.264
       212.000         154.000
  20310591.076    -1337088.33149   -881349.55847  20310590.776    20310596.731
       238.000         209.000
  22082598.489     1012406.10549    683526.32046  22082598.555    22082608.896
       228.000         177.000
  20499076.591    -1096519.12249   -845784.73247  20499076.128    20499083.742
       239.000         204.000
  20449713.540    -1674403.65649  -1290982.51047  20449712.881    20449720.781
       240.000         203.000
  22256204.269      325586.00849    249010.60746  22256204.261    22256214.110
       222.000         170.000
  20697144.949     -568936.66149   -437994.29247  20697144.669    20697152.100
       239.000         205.000
 01  6 22 19 22 29.9990000  0  9G21G 3G18G 6G17G15G26G23G22
  22468340.558    -2512338.86749  -1931824.80446  22468340.255    22468350.207
       226.000         174.000
  23384969.740    -3138453.14749  -2412273.34945  23384970.116    23384979.449
       212.000         153.000
  20300515.741    -1390034.44449   -922606.26347  20300515.435    20300521.219
       238.000         209.000
  22091813.052     1060827.45549    721257.07946  22091813.187    22091822.569
       227.000         177.000
  20490642.242    -1140841.59149   -880321.72947  20490641.661    20490649.351
       240.000         204.000
  20436464.093    -1744029.54249  -1345236.43447  20436463.614    20436471.269
       241.000         203.000
  22260746.746      349456.16049    267610.68846  22260746.804    22260755.692
       222.000         169.000
  20693177.042     -589788.26149   -454242.30747  20693176.729    20693184.205
       240.000         205.000
  24158803.497        2614.23353
       206.000          74.000
 01  6 22 19 22 59.9990000  0  9G21G 3G18G 6G17G15G26G23G22
  22448927.441    -2614356.99849  -2011319.37246  22448926.659    22448936.737
       227.000         174.000
  23359476.847    -3272420.66849  -2516663.53545  23359477.170    23359486.183
       213.000         153.000
  20290504.207    -1442646.18049   -963602.41247  20290503.748    20290509.816
       238.000         209.000
  22101076.927     1109508.60749    759190.29246  22101076.759    22101087.328
       227.000         176.000
  20482245.216    -1184968.43849   -914706.28247  20482244.763    20482252.320
       240.000         204.000
  20423250.506    -1813468.82749  -1399344.95647  20423249.754    20423257.211
       241.000         204.000
  22265375.629      373779.63849    286564.00846  22265375.494    22265384.907
       221.000         168.000
  20689252.918     -610410.22149   -470311.37647  20689252.566    20689259.863
       239.000         205.000
  24159786.930        6643.58744
       204.000         131.000
 01  6 22 19 23 29.9990000  0  9G21G 3G18G 6G17G15G26G23G22
  22429546.589    -2716202.91649  -2090679.75146  22429546.448    22429555.592
       227.000         173.000
  23334025.390    -3406169.28949  -2620883.14245  23334024.017    23334035.549
       210.000         153.000
  20280552.488    -1494942.25149  -1004352.58947  20280552.199    20280558.102
       238.000         208.000
  22110386.439     1158429.72849    797310.48546  22110386.293    22110396.952
       226.000         175.000
  20473882.100    -1228916.48649   -948951.51947  20473881.549    20473889.067
       239.000         204.000
  20410068.849    -1882738.31049  -1453321.16547  20410068.183    20410075.902
       241.000         204.000
  22270086.625      398536.31949    305854.89446  22270087.486    22270095.591
       221.000         170.000
  20685368.790     -630821.74649   -486216.47747  20685368.241    20685375.557
       240.000         205.000
  24160815.854       10853.43645                                  24160830.722
       204.000         133.000
 01  6 22 19 23 59.9990000  0  9G21G 3G18G 6G17G15G26G23G22
  22410189.163    -2817927.30849  -2169945.42946  22410189.114    22410198.496
       228.000         174.000
  23308606.498    -3539746.81649  -2724969.42245  23308606.609    23308616.154
       214.000         154.000
  20270651.202    -1546973.90649  -1044896.72347  20270650.883    20270656.552
       237.000         207.000
  22119731.594     1207538.00649    835576.51146  22119731.496    22119741.333
       225.000         175.000
  20465543.626    -1272735.20149   -983095.97347  20465543.217    20465550.872
       239.000         204.000
  20396910.172    -1951887.51749  -1507203.65147  20396909.694    20396917.411
       242.000         204.000
  22274870.435      423673.16649    325442.00546  22274871.160    22274879.495
       222.000         170.000
  20681514.668     -651074.78349   -501998.07847  20681514.221    20681521.788
       240.000         205.000
  24161878.423       22130.51049     15202.62045  24161877.594    24161891.058
       202.000         132.000
 01  6 22 19 24 29.9990000  0  9G21G 3G18G 6G17G15G26G23G22
  22390845.748    -2919577.82649  -2249153.53546  22390845.093    22390854.162
       227.000         175.000
  23283211.149    -3673198.10049  -2828957.35645  23283211.438    23283220.897
       213.000         155.000
  20260790.987    -1598789.50749  -1085272.50547  20260790.703    20260796.654
       238.000         207.000
  22129102.709     1256783.91649    873949.80646  22129103.121    22129112.672
       225.000         174.000
  20457221.014    -1316471.04149  -1017175.84447  20457220.618    20457228.106
       238.000         203.000
  20383765.623    -2020962.87949  -1561028.59547  20383764.975    20383772.723
       241.000         205.000
  22279716.577      449140.44549    345286.59646  22279716.248    22279725.528
       222.000         170.000
  20677681.613     -671218.32549   -517694.35847  20677681.206    20677688.668
       240.000         206.000
  24162964.761       27840.58949     19651.89844  24162965.571    24162976.089
       200.000         130.000
 01  6 22 19 24 59.9990000  0  9G21G 3G18G 6G17G15G26G23G22
  22371513.009    -3021170.90349  -2328316.90146  22371512.698    22371522.268
       226.000         173.000
  23257837.791    -3806537.09749  -2932857.77045  23257837.799    23257846.993
       211.000         154.000
  20250968.462    -1650406.89449  -1125493.82847  20250968.006    20250974.313
       237.000         207.000
  22138496.490     1306148.51449    912415.55346  22138496.257    22138506.541
       225.000         174.000
  20448911.201    -1360139.67649  -1051203.35247  20448910.745    20448918.262
       239.000         204.000
  20370632.199    -2089980.07349  -1614808.21447  20370631.410    20370639.086
       242.000         205.000
  22284621.836      474918.98649    365373.73746  22284621.765    22284630.336
       221.000         170.000
  20673865.902     -691270.56849   -533319.49547  20673865.326    20673872.915
       240.000         206.000
  24164071.754       33659.67659     24186.05654  24164067.347    24164085.248
       199.000         131.000
 01  6 22 19 25 29.9990000  0  9G21G 3G18G 6G17G15G26G23G22
  22352188.684    -3122721.28649  -2407447.00546  22352188.116    22352197.482
       226.000         173.000
  23232483.027    -3939776.13949  -3036680.30445  23232482.953    23232492.656
       212.000         154.000
  20241180.705    -1701841.51249  -1165572.73847  20241180.437    20241186.398
       236.000         207.000
  22147909.966     1355614.59849    950960.39746  22147909.855    22147919.983
       224.000         173.000
  20440611.551    -1403754.95949  -1085189.29147  20440611.258    20440618.887
       239.000         204.000
  20357507.044    -2158952.92749  -1668553.28247  20357506.220    20357514.014
       241.000         205.000
  22289583.587      500991.63649    385690.04946  22289583.062    22289592.140
       220.000         168.000
  20670064.496     -711247.73849   -548886.13247  20670063.992    20670071.417
       240.000         206.000
  24165197.660       39571.04449     28792.16544  24165197.840    24165212.932
       195.000         131.000
 01  6 22 19 25 59.9990000  0  9G21G 3G18G 6G17G15G26G23G22
  22332862.772    -3224280.34049  -2486583.86646  22332862.426    22332870.567
       226.000         173.000
  23207137.968    -4072964.51649  -3140463.33745  23207137.945    23207147.745
       211.000         153.000
  20231417.983    -1753146.10849  -1205550.33447  20231417.559    20231423.516
       237.000         207.000
  22157332.243     1405128.06049    989542.13746  22157332.665    22157342.635
       223.000         175.000
  20432312.319    -1447367.73449  -1119173.26947  20432311.589    20432319.375
       238.000         204.000
  20344380.740    -2227932.07349  -1722303.25547  20344380.211    20344387.867
       242.000         205.000
  22294590.523      527303.95649    406193.11646  22294590.932    22294599.555
       219.000         168.000
  20666267.087     -731203.15949   -564435.81647  20666266.634    20666273.793
       240.000         205.000
  24166329.129       45520.29449     33427.72544  24166328.601    24166344.030
       196.000         128.000
 01  6 22 19 26 29.9990000  0  9G21G 3G18G 6G17G15G26G23G22
  22313529.014    -3325879.29449  -2565751.81846  22313528.813    22313538.477
       226.000         173.000
  23181797.587    -4206130.40649  -3244228.88345  23181797.689    23181805.958
       211.000         153.000
  20221673.748    -1804352.07749  -1245451.07447  20221673.356    20221679.470
       237.000         208.000
  22166757.457     1454655.99849   1028135.15646  22166757.246    22166767.297
       224.000         174.000
  20424007.940    -1491007.66649  -1153178.41047  20424007.447    20424015.023
       239.000         204.000
  20331247.697    -2296947.13249  -1776081.20847  20331247.036    20331254.770
       241.000         205.000
  22299637.102      553822.74649    426857.05746  22299637.585    22299645.959
       221.000         170.000
  20662467.852     -751169.14149   -579993.72947  20662467.331    20662474.466
       240.000         205.000
  24167463.376       51474.06949     38066.84944  24167460.937    24167473.763
       197.000         128.000
 01  6 22 19 26 59.9990000  0  9G21G 3G18G 6G17G15G26G23G22
  22294177.041    -3427573.87049  -2644994.27846  22294176.843    22294185.385
       227.000         175.000
  23156451.094    -4339326.57149  -3348017.99045  23156450.606    23156460.190
       212.000         154.000
  20211937.751    -1855516.12349  -1285319.15147  20211937.266    20211943.432
       238.000         209.000
  22176174.080     1504140.46949   1066694.30546  22176174.343    22176184.296
       224.000         175.000
  20415688.109    -1534729.37249  -1187247.27647  20415687.421    20415695.188
       239.000         204.000
  20318097.305    -2366052.69449  -1829929.68147  20318096.733    20318104.332
       241.000         205.000
  22304711.874      580489.98949    447636.68746  22304711.915    22304720.846
       219.000         168.000
  20658655.549     -771202.77049   -595604.35447  20658655.055    20658662.215
       240.000         205.000
  24168585.250       57373.65249     42663.76444  24168581.778    24168595.839
       195.000         127.000
 01  6 22 19 27 29.9990000  0  9G21G 3G18G 6G17G15G26G23G22
  22274796.936    -3529416.68049  -2724352.26646  22274796.727    22274806.923
       226.000         174.000
  23131089.052    -4472602.94749  -3451869.61345  23131089.727    23131097.999
       211.000         152.000
  20202199.157    -1906691.99949  -1325196.45047  20202198.821    20202204.843
       238.000         209.000
  22185572.246     1553526.45549   1105176.70546  22185572.028    22185582.620
       225.000         174.000
  20407342.666    -1578584.45949  -1221420.07447  20407342.117    20407349.991
       238.000         203.000
  20304919.852    -2435300.38749  -1883888.90947  20304919.103    20304927.130
       241.000         205.000
  22309804.302      607250.43049    468488.92346  22309804.124    22309813.244
       219.000         168.000
  20654820.109     -791358.18349   -611309.86947  20654819.533    20654827.080
       240.000         205.000
  24169687.178       63163.93449     47175.48144  24169687.150    24169698.888
       197.000         127.000
 01  6 22 19 27 59.9990000  0  9G21G 3G18G 6G17G15G26G23G22
  22255382.238    -3631441.56149  -2803852.11146  22255381.536    22255390.929
       227.000         174.000
  23105706.438    -4605990.41349  -3555807.79745  23105706.532    23105715.554
       214.000         154.000
  20192452.309    -1957913.75549  -1365109.49847  20192451.753    20192457.785
       239.000         210.000
  22194944.649     1602778.56549   1143554.79146  22194944.907    22194955.087
       223.000         175.000
  20398965.922    -1622605.41049  -1255722.11547  20398965.393    20398972.983
       239.000         203.000
  20291709.410    -2504722.55449  -1937984.09347  20291708.515    20291716.481
       241.000         205.000
  22314907.169      634068.26249    489385.89346  22314907.230    22314915.891
       217.000         167.000
  20650954.932     -811670.19249   -627137.40847  20650954.158    20650961.548
       240.000         204.000
  24170761.858       68809.43048     51574.38944  24170761.472    24170774.655
       194.000         126.000
 01  6 22 19 28 29.9990000  0  9G21G 3G18G 6G17G15G26G23G22
  22235926.224    -3733684.54549  -2883521.90646  22235925.618    22235934.017
       227.000         175.000
  23080296.042    -4739523.14149  -3659859.18345  23080296.079    23080305.696
       215.000         154.000
  20182689.304    -2009218.82149  -1405087.46947  20182688.789    20182694.893
       238.000         210.000
  22204284.486     1651857.85249   1181798.21346  22204284.123    22204294.697
       223.000         173.000
  20390550.747    -1666827.61249  -1290180.97547  20390550.241    20390557.792
       239.000         203.000
  20278458.857    -2574354.59449  -1992242.81347  20278458.051    20278465.897
       241.000         205.000
  22320014.473      660904.52849    510297.23046  22320014.676    22320022.427
       218.000         166.000
  20647052.569     -832176.76149   -643116.55247  20647052.084    20647059.205
       240.000         204.000
  24171801.390       74271.06949     55830.04644  24171800.579    24171812.101
       197.000         125.000
 01  6 22 19 28 59.9990000  0  9G21G 3G18G 6G17G15G26G23G22
  22216420.622    -3836186.86149  -2963393.78646  22216420.831    22216429.764
       227.000         176.000
  23054850.979    -4873238.79549  -3764053.11545  23054850.781    23054858.725
       216.000         154.000
  20172902.553    -2060648.76649  -1445162.75147  20172901.972    20172907.963
       239.000         210.000
  22213582.960     1700721.61349   1219873.67946  22213583.494    22213593.194
       223.000         175.000
  20382089.919    -1711290.51349  -1324827.39947  20382089.508    20382096.617
       239.000         203.000
  20265161.051    -2644235.89949  -2046695.76247  20265160.351    20265167.708
       242.000         206.000
  22325116.650      687716.06749    531189.28746  22325116.976    22325125.499
       217.000         166.000
  20643105.390     -852919.93949   -659280.06647  20643104.716    20643111.794
       240.000         203.000
  24172798.347       79505.46249     59908.61144  24172798.051    24172809.039
       197.000         125.000
 01  6 22 19 29 29.9990000  0  9G21G 3G18G 6G17G15G26G23G22
  22196857.506    -3938991.43749  -3043501.18446  22196857.330    22196865.862
       228.000         176.000
  23029362.959    -5007177.91049  -3868421.16145  23029362.684    23029371.188
       216.000         155.000
  20163083.420    -2112247.81449  -1485369.80047  20163083.136    20163088.855
       239.000         211.000
  22222831.850     1749324.34049   1257745.75046  22222831.545    22222842.217
       222.000         175.000
  20373575.200    -1756036.34249  -1359694.27747  20373574.574    20373581.754
       239.000         203.000
  20251807.547    -2714408.71549  -2101375.86547  20251807.080    20251814.331
       242.000         206.000
  22330205.013      714457.27049    552026.54446  22330204.732    22330214.049
       215.000         164.000
  20639104.551     -873944.56949   -675662.89347  20639103.987    20639111.009
       240.000         203.000
  24173742.425       84466.38949     63774.03544  24173738.574    24173755.586
       196.000         125.000
 01  6 22 19 29 59.9990000  0  9G21G 3G18G 6G17G15G26G23G22
  22177236.285    -4042101.24849  -3123846.43246  22177235.392    22177245.347
       230.000         180.000
  23003832.605    -5141340.88549  -3972963.65845  23003832.394    23003841.631
       216.000         155.000
  20153231.806    -2164019.67249  -1525711.50547  20153231.342    20153237.120
       239.000         210.000
  22232030.224     1797660.62649   1295410.19546  22232029.770    22232040.697
       223.000         175.000
  20365006.170    -1801067.16249  -1394783.23447  20365005.723    20365012.769
       239.000         203.000
  20238398.393    -2784874.88449  -2156284.55247  20238397.550    20238405.196
       242.000         206.000
  22335279.149      741122.44549    572804.54746  22335279.059    22335289.145
       217.000         165.000
  20635049.382     -895254.96549   -692268.39747  20635048.870    20635056.014
       239.000         203.000
  24174633.355       89148.69248     67422.42244  24174632.018    24174642.630
       194.000         124.000
 01  6 22 19 30 29.9990000  0  9G21G 3G18G 6G17G15G26G23G22
  22157556.064    -4145522.77349  -3204434.57646  22157555.228    22157564.645
       228.000         179.000
  22978258.661    -5275731.68649  -4077683.67445  22978258.616    22978267.892
       214.000         155.000
  20143345.703    -2215971.87349  -1566193.73347  20143345.189    20143350.919
       239.000         211.000
  22241176.049     1845721.65049   1332860.14846  22241175.775    22241186.640
       223.000         174.000
  20356381.797    -1846388.29549  -1430098.40647  20356381.268    20356388.290
       239.000         204.000
  20224932.349    -2855639.71349  -2211425.95747  20224931.726    20224938.756
       242.000         206.000
  22340337.566      767702.71049    593516.37646  22340338.344    22340346.504
       218.000         166.000
  20630938.304     -916859.02749   -709102.72847  20630937.680    20630944.567
       240.000         203.000
  24175469.214       93543.73949     70846.92344  24175468.987    24175482.869
       198.000         124.000
 01  6 22 19 30 59.9990000  0  9G21G 3G18G 6G17G15G26G23G22
  22137817.048    -4249252.27249  -3285262.69846  22137815.940    22137825.440
       230.000         179.000
  22952643.051    -5410344.03649  -4182576.32045  22952642.170    22952652.061
       215.000         156.000
  20133425.794    -2268101.41249  -1606814.14947  20133425.358    20133431.153
       239.000         210.000
  22250270.152     1893509.06049   1370096.89746  22250270.002    22250280.543
       223.000         174.000
  20347703.253    -1891994.86449  -1465635.99947  20347702.530    20347709.917
       239.000         203.000
  20211410.307    -2926698.29949  -2266796.27247  20211409.596    20211416.821
       242.000         205.000
  22345379.797      794199.33749    614163.05746  22345379.660    22345388.845
       216.000         165.000
  20626772.067     -938754.38649   -726164.05047  20626771.375    20626778.169
       241.000         203.000
  24176252.189       97652.52849     74048.39744  24176252.094    24176262.241
       196.000         124.000
 01  6 22 19 31 29.9990000  0  9G21G 3G18G 6G17G15G26G23G22
  22118019.851    -4353286.60649  -3366328.35146  22118019.159    22118028.326
       229.000         179.000
  22926985.695    -5545171.98249  -4287636.95945  22926985.361    22926994.620
       214.000         157.000
  20123472.467    -2320406.05949  -1647571.01147  20123471.967    20123477.795
       238.000         209.000
  22259311.938     1941023.73549   1407121.12646  22259311.575    22259322.593
       222.000         174.000
  20338971.072    -1937882.66549  -1501392.73147  20338970.424    20338977.812
       239.000         203.000
  20197833.165    -2998046.37049  -2322392.15447  20197832.594    20197839.733
       242.000         205.000
  22350406.115      820612.99349    634745.06746  22350406.850    22350415.606
       216.000         164.000
  20622550.477     -960939.43249   -743451.10147  20622549.953    20622556.666
       240.000         203.000
  24176979.192      101475.24649     77026.97744  24176977.384    24176990.517
       195.000         125.000
 01  6 22 19 31 59.9990000  0  9G21G 3G18G 6G17G15G26G23G22
  22098168.019    -4457607.65849  -3447617.41546  22098167.431    22098176.910
       229.000         179.000
  22901292.054    -5680194.14749  -4392848.95845  22901291.604    22901300.817
       216.000         158.000
  20113489.206    -2372868.31349  -1688450.67947  20113488.754    20113494.378
       238.000         210.000
  22268304.715     1988281.86749   1443945.43346  22268304.531    22268315.637
       223.000         173.000
  20330189.188    -1984032.16049  -1537353.38647  20330188.555    20330195.897
       240.000         204.000
  20184204.838    -3069664.28449  -2378198.30347  20184204.083    20184211.407
       242.000         205.000
  22355419.659      846959.50349    655274.77846  22355419.270    22355428.826
       215.000         164.000
  20618276.665     -983397.03649   -760950.53847  20618276.133    20618283.208
       240.000         203.000
  24177655.749      105027.65949     79794.89344  24177654.929    24177672.450
       196.000         122.000
 01  6 22 19 32 29.9990000  0  9G21G 3G18G 6G17G15G26G23G22
  22078258.390    -4562232.70849  -3529143.36646  22078258.219    22078267.393
       229.000         179.000
  22875558.254    -5815425.20349  -4498223.73645  22875558.208    22875567.552
       217.000         158.000
  20103472.567    -2425506.54349  -1729467.48247  20103472.152    20103477.493
       239.000         209.000
  22277245.629     2035263.87249   1480554.59646  22277244.919    22277256.009
       222.000         173.000
  20321354.480    -2030459.48749  -1573530.53147  20321353.879    20321360.988
       240.000         204.000
  20170522.015    -3141568.23649  -2434227.34347  20170521.115    20170528.387
       242.000         205.000
  22360416.876      873218.97549    675736.66546  22360417.094    22360425.805
       218.000         165.000
  20613947.872    -1006145.97949   -778676.99147  20613947.175    20613953.964
       241.000         203.000
  24178276.709      108290.48749     82337.14144  24178277.167    24178288.415
       195.000         125.000
 01  6 22 19 32 59.9990000  0  9G21G 3G18G 6G17G15G26G23G22
  22058287.823    -4667179.41849  -3610919.94146  22058287.481    22058296.238
       230.000         179.000
  22849782.390    -5950880.21549  -4603773.03345  22849781.975    22849791.406
       217.000         160.000
  20093418.807    -2478339.00949  -1770635.63147  20093418.177    20093423.722
       238.000         208.000
  22286129.968     2081950.18649   1516933.33146  22286129.905    22286140.117
       223.000         173.000
  20312463.441    -2077181.21949  -1609937.08747  20312463.003    20312470.263
       239.000         204.000
  20156781.621    -3213774.48149  -2490491.93947  20156780.865    20156788.356
       242.000         206.000
  22365393.486      899371.36649    696115.09146  22365393.711    22365402.149
       217.000         165.000
  20609559.874    -1029204.98549   -796645.05747  20609559.303    20609566.049
       241.000         203.000
  24178838.059      111243.83749     84638.27044  24178837.077    24178852.941
       195.000         124.000
 01  6 22 19 33 29.9990000  0  9G21G 3G18G 6G17G15G26G23G22
  22038259.414    -4772429.57849  -3692932.98446  22038258.700    22038267.637
       228.000         179.000
  22823967.394    -6086538.41449  -4709480.67245  22823967.445    22823975.777
       220.000         162.000
  20083331.519    -2531348.48849  -1811941.71247  20083331.043    20083336.549
       239.000         209.000
  22294960.809     2128356.69549   1553094.04046  22294960.720    22294971.457
       223.000         174.000
  20303520.416    -2124177.84149  -1646557.84047  20303519.833    20303527.274
       239.000         204.000
  20142987.353    -3286263.69649  -2546977.03447  20142986.499    20142993.972
       242.000         205.000
  22370352.707      925432.57549    716422.49746  22370352.821    22370361.892
       216.000         164.000
  20605116.156    -1052557.35949   -814841.72147  20605115.691    20605122.510
       241.000         204.000
  24179344.699      113902.86949     86710.02944  24179345.343    24179357.195
       195.000         124.000
 01  6 22 19 33 59.9980000  0  9G21G 3G18G 6G17G15G26G23G22
  22018177.538    -4877960.94549  -3775165.15146  22018177.065    22018186.150
       229.000         179.000
  22798118.522    -6222374.09549  -4815326.59545  22798118.552    22798127.201
       219.000         161.000
  20073214.125    -2584515.79049  -1853370.77347  20073213.551    20073219.504
       239.000         209.000
  22303741.538     2174497.63149   1589047.80546  22303741.305    22303751.755
       224.000         174.000
  20294528.849    -2171428.47149  -1683376.52647  20294528.250    20294535.742
       239.000         203.000
  20129143.439    -3359013.93649  -2603665.52547  20129142.786    20129149.954
       242.000         205.000
  22375297.826      951417.29049    736670.26546  22375297.951    22375307.220
       216.000         166.000
  20600619.768    -1076185.49549   -833253.26647  20600619.213    20600626.277
       240.000         204.000
  24179798.512      116282.96848     88564.40544  24179795.687    24179808.529
       192.000         123.000
 01  6 22 19 34 29.9980000  0  9G21G 3G18G 6G17G15G26G23G22
  21998039.127    -4983789.16549  -3857628.62446  21998038.233    21998047.973
       229.000         179.000
  22772233.579    -6358401.96649  -4921322.26345  22772232.387    22772242.092
       219.000         161.000
  20063064.375    -2637853.47349  -1894932.59947  20063063.824    20063069.397
       239.000         209.000
  22312470.369     2220365.85149   1624789.07546  22312470.023    22312480.420
       223.000         173.000
  20285487.193    -2218943.36749  -1720401.13047  20285486.544    20285493.785
       239.000         203.000
  20115247.639    -3432037.05949  -2660566.65347  20115246.876    20115254.097
       242.000         205.000
  22380226.438      977316.36849    756851.31146  22380226.260    22380235.961
       219.000         166.000
  20596068.935    -1100100.46049   -851888.31547  20596068.200    20596075.357
       240.000         204.000
  24180195.555      118373.81048     90193.41744  24180195.192    24180210.315
       191.000         127.000
 01  6 22 19 34 59.9980000  0  9G21G 3G18G 6G17G15G26G23G22
  21977837.920    -5089946.01049  -3940348.18046  21977837.465    21977846.758
       226.000         178.000
  22746306.390    -6494649.97149  -5027489.46145  22746305.789    22746315.555
       218.000         162.000
  20052875.714    -2691396.10949  -1936654.13347  20052875.212    20052880.674
       240.000         209.000
  22321139.458     2265922.38949   1660287.46046  22321139.059    22321149.928
       223.000         172.000
  20276388.959    -2266755.08049  -1757657.02747  20276388.469    20276395.895
       239.000         204.000
  20101294.073    -3505364.85949  -2717705.19547  20101293.246    20101300.410
       242.000         205.000
  22385131.423     1003091.26149    776935.57146  22385131.624    22385139.955
       216.000         165.000
  20591456.696    -1124338.16049   -870774.85047  20591456.222    20591463.100
       241.000         204.000
  24180532.179      120137.89149     91567.84344  24180532.512    24180543.517
       196.000         127.000
 01  6 22 19 35 29.9980000  0  9G21G 3G18G 6G17G15G26G23G22
  21957579.247    -5196406.43649  -4023304.29346  21957578.284    21957587.856
       228.000         177.000
  22720342.738    -6631090.05849  -5133806.34346  22720342.416    22720351.956
       220.000         163.000
  20042652.476    -2745118.99649  -1978516.11847  20042651.834    20042657.424
       239.000         209.000
  22329754.118     2311190.40649   1695561.03346  22329753.401    22329764.653
       224.000         172.000
  20267239.354    -2314836.99249  -1795123.46747  20267238.569    20267246.057
       239.000         203.000
  20087287.190    -3578970.61549  -2775060.32947  20087286.355    20087293.486
       242.000         205.000
  22390017.034     1028764.89249    796940.93046  22390017.131    22390025.897
       218.000         166.000
  20586787.711    -1148874.56249   -889894.13547  20586786.737    20586793.988
       240.000         204.000
  24180808.892      121598.03648     92705.41544  24180806.538    24180822.927
       188.000         124.000
 01  6 22 19 35 59.9980000  0  9G21G 3G18G 6G17G15G26G23G22
  21937253.645    -5303218.34349  -4106534.27946  21937253.328    21937261.881
       228.000         176.000
  22694333.796    -6767767.55149  -5240308.20745  22694333.372    22694342.964
       219.000         162.000
  20032385.695    -2799071.19949  -2020556.78747  20032385.187    20032390.695
       240.000         210.000
  22338303.760     2356119.46349   1730570.48246  22338303.625    22338315.025
       223.000         171.000
  20258029.258    -2363235.95049  -1832836.95547  20258028.718    20258035.977
       239.000         204.000
  20073218.870    -3652901.07949  -2832668.47547  20073217.967    20073225.126
       243.000         206.000
  22394874.050     1054286.64649    816827.94946  22394874.243    22394882.572
       219.000         165.000
  20582052.399    -1173758.74049   -909284.42147  20582051.740    20582058.869
       240.000         204.000
  24181021.068      122703.14348     93566.32444  24181020.074    24181032.917
       190.000         125.000
 01  6 22 19 36 29.9980000  0  9G21G 3G18G 6G17G15G26G23G22
  21916872.864    -5410318.97749  -4189989.26446  21916872.725    21916881.260
       228.000         177.000
  22668292.012    -6904616.95449  -5346944.02445  22668291.990    22668300.103
       220.000         162.000
  20022087.097    -2853190.78749  -2062727.89147  20022086.611    20022092.349
       239.000         210.000
  22346800.659     2400770.17349   1765363.02846  22346800.562    22346811.340
       222.000         168.000
  20248771.160    -2411888.05049  -1870747.69447  20248770.423    20248778.195
       239.000         203.000
  20059100.676    -3727092.31649  -2890479.82047  20059099.753    20059107.201
       243.000         206.000
  22399713.359     1079716.76949    836643.55446  22399712.739    22399721.542
       219.000         165.000
  20577262.606    -1198929.56049   -928898.06447  20577261.993    20577268.874
       240.000         204.000
  24181174.653      123513.38248     94197.42744                  24181170.691
       190.000         122.000
 01  6 22 19 36 59.9980000  0  9G21G 3G18G 6G17G15G26G23G22
  21896441.839    -5517683.88949  -4273650.17946  21896442.093    21896450.159
       227.000         176.000
  22642223.117    -7041611.43849  -5453692.88445  22642223.168    22642232.533
       219.000         161.000
  20011761.099    -2907454.16549  -2105011.03947  20011760.612    20011766.347
       239.000         211.000
  22355248.603     2445164.65649   1799955.92546  22355248.785    22355259.216
       222.000         168.000
  20239469.563    -2460767.79149  -1908835.81847  20239469.006    20239476.684
       239.000         204.000
  20044937.814    -3801518.55349  -2948474.28647  20044937.152    20044944.303
       242.000         206.000
  22404538.704     1105077.12549    856404.81446  22404538.577    22404547.809
       216.000         163.000
  20572422.641    -1224363.71349   -948716.89647  20572422.002    20572428.976
       240.000         204.000
  24181276.283      124051.21948     94616.33244                  24181275.645
       186.000         122.000
 01  6 22 19 37 29.9980000  0  9G21G 3G18G 6G17G15G26G23G22
  21875970.483    -5625263.08849  -4357478.07346  21875970.236    21875978.515
       227.000         175.000
  22616136.130    -7178698.28449  -5560513.71345  22616135.617    22616143.998
       220.000         162.000
  20001417.133    -2961812.51949  -2147368.19347  20001416.730    20001422.291
       239.000         210.000
  22363656.954     2489350.63149   1834386.32646  22363656.663    22363667.274
       219.000         167.000
  20230134.583    -2509824.11849  -1947061.54447  20230133.885    20230141.364
       239.000         204.000
  20030740.012    -3876128.63849  -3006612.00747  20030739.324    20030746.268
       242.000         206.000
  22409360.658     1130414.99349    876148.54946  22409360.608    22409369.474
       218.000         164.000
  20567541.808    -1250012.73349   -968703.15247  20567541.303    20567548.198
       240.000         204.000
  24181337.151      124364.01248     94859.81844                  24181332.331
       186.000         121.000
 01  6 22 19 37 59.9980000  0  9G21G 3G18G 6G17G15G26G23G22
  21855454.491    -5733074.22849  -4441486.68946  21855453.967    21855462.726
       229.000         176.000
  22590028.879    -7315892.02849  -5667417.83846  22590028.633    22590037.403
       220.000         163.000
  19991051.448    -3016284.05349  -2189813.53847  19991051.123    19991056.740
       239.000         210.000
  22372022.403     2533308.42749   1868638.93346  22372022.292    22372033.246
       221.000         166.000
  20220762.699    -2559073.02549  -1985437.32947  20220762.270    20220769.966
       239.000         203.000
  20016504.133    -3950938.67049  -3064905.53247  20016503.662    20016510.510
       242.000         206.000
  22414174.289     1155710.44949    895859.23746  22414174.342    22414182.951
       219.000         163.000
  20562616.415    -1275895.20349   -988871.32047  20562615.744    20562622.991
       240.000         203.000
  24181349.453      124431.73958     94912.35654  24181349.067    24181370.734
       185.000         122.000
 01  6 22 19 38 29.9980000  0  9G21G 3G18G 6G17G15G26G23G22
  21834891.602    -5841133.27649  -4525688.48746  21834890.842    21834899.894
       230.000         178.000
  22563899.014    -7453206.14149  -5774415.74446  22563897.881    22563907.241
       221.000         163.000
  19980661.059    -3070885.71649  -2232360.29047  19980660.546    19980666.504
       239.000         210.000
  22380340.699     2577019.67749   1902699.41046  22380340.179    22380350.990
       221.000         165.000
  20211351.694    -2608529.52449  -2023974.87847  20211351.059    20211358.395
       239.000         204.000
  20002227.486    -4025963.53749  -3123366.46147  20002226.728    20002233.877
       243.000         206.000
  22418976.106     1180944.95349    915522.42145  22418976.461    22418984.474
       216.000         161.000
  20557643.447    -1302028.50549  -1009234.94247  20557642.860    20557649.857
       240.000         203.000
  24181311.401      124235.44758     94759.14654                  24181313.661
       184.000         120.000
 01  6 22 19 38 59.9980000  0  9G21G 3G18G 6G17G15G26G23G22
  21814279.128    -5949452.39149  -4610092.93246  21814278.823    21814286.776
       229.000         178.000
  22537744.420    -7590649.66749  -5881514.51145  22537743.462    22537753.043
       221.000         162.000
  19970243.587    -3125630.37649  -2275018.45847  19970242.928    19970248.963
       238.000         209.000
  22388609.372     2620470.26349   1936556.78546  22388608.516    22388620.087
       223.000         166.000
  20201898.891    -2658204.38749  -2062682.58347  20201898.347    20201905.744
       240.000         204.000
  19987907.841    -4101213.75649  -3182002.99147  19987906.964    19987914.156
       243.000         207.000
  22423763.679     1206103.98449    935126.82145  22423762.746    22423772.239
       217.000         162.000
  20552620.226    -1328425.98349  -1029804.41347  20552619.645    20552626.591
       239.000         203.000
  24181221.772                       94389.07844
       184.000         122.000
 01  6 22 19 39 29.9980000  0  9G21G 3G18G 6G17G15G26G23G22
  21793620.705    -6058012.12149  -4694684.86946  21793620.440    21793629.055
       229.000         177.000
  22511568.947    -7728200.67949  -5988697.03545  22511568.975    22511576.327
       221.000         162.000
  19959802.190    -3180499.35249  -2317773.49747  19959801.775    19959807.648
       238.000         209.000
  22396831.272     2663677.46749   1970224.51246  22396830.872    22396842.188
       223.000         165.000
  20192408.409    -2708076.92649  -2101544.31447  20192407.756    20192415.218
       240.000         204.000
  19973549.057    -4176668.47349  -3240798.87047  19973548.269    19973555.800
       243.000         206.000
  22428540.091     1231204.36149    954685.50445  22428539.864    22428549.046
       218.000         162.000
  20547550.090    -1355069.49049  -1050565.59647  20547549.478    20547556.578
       240.000         203.000
  24181084.018                       93815.51554
       184.000         121.000
 01  6 22 19 39 59.9980000  0  9G21G 3G18G 6G17G15G26G23G22
  21772938.037    -6166700.98649  -4779377.43546  21772937.566    21772946.129
       230.000         179.000
  22485395.391    -7865745.06249  -6095874.38346  22485395.330    22485402.728
       222.000         163.000
  19949358.473    -3235382.25849  -2360539.39947  19949357.881    19949363.653
       239.000         209.000
  22405027.827     2706750.27449   2003787.49346  22405027.466    22405039.233
       223.000         165.000
  20182901.771    -2758034.70349  -2140472.47147  20182901.301    20182908.820
       239.000         203.000
  19959173.355    -4252215.02049  -3299666.30547  19959172.531    19959179.565
       242.000         207.000
  22433325.633     1256354.88149    974283.24045  22433325.374    22433334.372
       215.000         160.000
  20542454.296    -1381848.90349  -1071432.68047  20542453.459    20542460.815
       239.000         203.000
  24180915.403                        -605.10143
       187.000          82.000
 01  6 22 19 40 29.9980000  0  9G21G 3G18G 6G17G15G26G23G22
  21752228.909    -6275528.17449  -4864177.76846  21752228.007    21752236.389
       230.000         179.000
  22459221.290    -8003288.98249  -6203051.38845  22459220.427    22459229.356
       222.000         162.000
  19938910.069    -3290288.96949  -2403323.84747  19938909.557    19938915.151
       239.000         209.000
  22413197.115     2749677.68649   2037237.19746  22413196.639    22413207.307
       223.000         166.000
  20173377.383    -2808085.22749  -2179472.89247  20173376.815    20173384.323
       239.000         203.000
  19944778.217    -4327860.88149  -3358611.12647  19944777.428    19944784.537
       243.000         207.000
  22438119.421     1281544.10449    993911.13645  22438119.588    22438128.590
       217.000         160.000
  20537330.467    -1408774.36449  -1092413.56647  20537329.805    20537336.840
       240.000         203.000
  24180714.868                       -1458.66944
       191.000         112.000
 01  6 22 19 40 59.9980000  0  9G21G 3G18G 6G17G15G26G23G22
  21731500.924    -6384454.13249  -4949055.08646  21731501.015    21731508.631
       231.000         180.000
  22433055.305    -8140790.47749  -6310195.32746  22433055.326    22433062.649
       221.000         163.000
  19928464.465    -3345180.91049  -2446096.78747  19928464.032    19928469.577
       238.000         209.000
  22421345.346     2792496.66749   2070602.39546  22421345.975    22421355.722
       221.000         164.000
  20163843.152    -2858188.09049  -2218514.10047  20163842.392    20163850.355
       238.000         203.000
  19930372.185    -4403565.62649  -3417601.82547  19930371.343    19930378.403
       243.000         207.000
  22442926.608     1306808.82349   1013597.87245  22442927.615    22442936.032
       217.000         160.000
  20532186.175    -1435807.82249  -1113478.61047  20532185.698    20532192.784
       240.000         203.000
  24180491.237                       -2411.55044
       187.000         110.000
 01  6 22 19 41 29.9980000  0  9G21G 3G18G 6G17G15G26G23G22
  21710747.729    -6493513.14649  -5034036.08346  21710746.986    21710755.770
       231.000         181.000
  22406892.009    -8278280.86149  -6417330.63546  22406890.750    22406898.921
       222.000         163.000
  19918015.008    -3400093.16749  -2488885.55947  19918014.453    19918020.567
       239.000         209.000
  22429466.018     2835170.94249   2103854.86545  22429464.783    22429479.432
       207.000         142.000
  20154292.697    -2908376.05849  -2257621.61947  20154292.000    20154299.426
       239.000         202.000
  19915948.517    -4479362.05449  -3476663.96947  19915947.894    19915954.976
       243.000         207.000
  22447742.471     1332112.41449   1033314.90245  22447741.662    22447752.101
       216.000         161.000
  20527014.706    -1462984.46349  -1134655.22347  20527014.128    20527020.974
       240.000         203.000
  24180235.667                        -818.82843
       182.000          74.000
 01  6 22 19 41 59.9980000  0  9G21G 3G18G 6G17G15G26G23G22
  21689978.176    -6602658.43049  -5119084.30146  21689977.482    21689985.858
       230.000         180.000
  22380739.942    -8415711.25149  -6524419.17546  22380739.472    22380747.873
       222.000         164.000
  19907570.316    -3454980.40949  -2531654.83247  19907569.996    19907575.578
       238.000         207.000
  22437567.692     2877744.75149   2137029.01645  22437567.384    22437578.359
       219.000         162.000
  20144735.113    -2958601.41949  -2296758.28047  20144734.572    20144742.246
       238.000         202.000
  19901516.635    -4555202.29249  -3535760.25147  19901515.927    19901523.129
       243.000         205.000
  22452573.480     1357498.70149   1053096.36445  22452573.622    22452582.643
       216.000         160.000
  20521824.603    -1490259.17649  -1155908.26047  20521823.925    20521831.169
       239.000         202.000
  24179956.257                       -1978.39744
       187.000         114.000
 01  6 22 19 42 29.9980000  0  9G21G 3G18G 6G17G15G26G23G22
  21669192.870    -6711884.30449  -5204195.31846  21669192.489    21669201.510
       230.000         176.000
  22354600.719    -8553072.48749  -6631453.83446  22354600.115    22354609.464
       219.000         163.000
  19897131.574    -3509836.93549  -2574400.17847  19897131.027    19897136.697
       229.000         197.000
  22445651.017     2920222.26649   2170128.12146  22445650.910    22445662.255
       226.000         170.000
  20135171.946    -3008856.79249  -2335918.36547  20135171.240    20135179.005
       233.000         197.000
  19887077.820    -4631078.74049  -3594884.76047  19887077.048    19887083.849
       241.000         203.000
  22457420.755     1382971.40249   1072945.13445  22457420.635    22457430.470
       224.000         161.000
  20516616.527    -1517627.03049  -1177233.88447  20516616.154    20516622.805
       236.000         199.000
  24179656.430                       -3230.04054
       187.000         108.000
 01  6 22 19 42 59.9980000  0  9G21G 3G18G 6G17G15G26G23G22
  21648399.114    -6821156.12149  -5289342.14546  21648398.520    21648407.139
       231.000         182.000
  22328481.699    -8690327.73949  -6738405.90246  22328481.975    22328489.626
       221.000         165.000
  19886705.045    -3564629.06849  -2617095.34647  19886704.373    19886710.152
       239.000         208.000
  22453722.471     2962635.42149   2203177.08645  22453721.559    22453733.085
       221.000         161.000
  20125609.759    -3059106.52449  -2375073.97947  20125609.074    20125616.610
       238.000         202.000
  19872639.004    -4706955.72849  -3654009.67247  19872638.222    19872645.457
       243.000         207.000
  22462290.842     1408562.25549   1092886.01045  22462291.414    22462299.236
       218.000         160.000
  20511397.344    -1545054.86449  -1198606.22147  20511396.990    20511404.118
       240.000         202.000
  24179339.567                        -888.90953
       182.000          74.000
 01  6 22 19 43 29.9980000  0  9G21G 3G18G 6G17G15G26G23G22
  21627598.675    -6930463.58549  -5374516.75346  21627598.500    21627606.975
       227.000         180.000
  22302385.545    -8827463.19749  -6845264.59845  22302384.948    22302394.805
       222.000         162.000
  19876292.514    -3619347.34949  -2659732.95647  19876291.918    19876297.467
       237.000         207.000
  22461782.883     3004992.93849   2236182.67745  22461783.273    22461790.518
       206.000         151.000
  20116050.815    -3109338.86749  -2414216.08247  20116050.075    20116057.702
       237.000         198.000
  19858202.188    -4782821.24649  -3713125.66347  19858201.258    19858208.221
       243.000         208.000
  22467184.834     1434279.44159   1112925.29056  22467184.958    22467194.290
       219.000         164.000
  20506168.355    -1572533.13249  -1220017.87947  20506167.755    20506174.774
       239.000         203.000
  24179009.477                       -2252.53844
       188.000         109.000
 01  6 22 19 43 59.9980000  0  9G21G 3G18G 6G17G15G26G23G22
  21606798.674    -7039768.30949  -5459689.21346  21606798.246    21606806.990
       229.000         181.000
  22276320.083    -8964438.15749  -6951998.27846  22276319.967    22276327.936
       221.000         164.000
  19865901.193    -3673954.43249  -2702283.93947  19865900.828    19865906.264
       239.000         208.000
  22469839.836     3047330.45449   2269172.76745  22469841.013    22469851.130
       207.000         137.000
  20106502.887    -3159514.23049  -2453313.77647  20106502.329    20106509.871
       239.000         203.000
  19843775.193    -4858635.75549  -3772201.88547  19843774.361    19843781.706
       243.000         207.000
  22472109.507     1460158.40649   1133090.67545  22472108.830    22472118.031
       219.000         161.000
  20500936.804    -1600024.93349  -1241440.06647  20500936.211    20500943.203
       239.000         201.000
  24178671.903                       -3649.16444
       187.000         111.000
 01  6 22 19 44 29.9980000  0  9G21G 3G18G 6G17G15G26G23G22
  21586011.292    -7149006.69549  -5544809.98146  21586010.719    21586019.580
       230.000         182.000
  22250297.849    -9101186.37349  -7058555.26846  22250298.239    22250306.509
       223.000         164.000
  19855542.884    -3728387.53149  -2744699.33447  19855542.457    19855548.049
       238.000         207.000
  22477904.266     3089709.18059   2302194.79055  22477905.634    22477915.553
       216.000         151.000
  20096978.020    -3209567.99449  -2492316.70047  20096977.277    20096984.962
       239.000         200.000
  19829370.259    -4934334.33649  -3831187.78247  19829369.598    19829376.704
       242.000         207.000
  22477076.478     1486260.35449   1153429.80045  22477076.583    22477085.506
       217.000         160.000
  20495714.532    -1627467.93049  -1262824.22547  20495713.935    20495721.459
       237.000         201.000
  24178336.681                        -809.92243
       183.000          74.000
 01  6 22 19 44 59.9980000  0  9G21G 3G18G 6G17G15G26G23G22
  21565249.946    -7258107.41349  -5629823.48546  21565249.192    21565257.925
       230.000         182.000
  22224332.843    -9237633.82249  -7164877.89346  22224332.329    22224341.226
       225.000         167.000
  19845231.050    -3782576.02949  -2786924.13947  19845230.760    19845236.233
       239.000         208.000
  22485990.077     3132198.97049   2335303.51245  22485990.818    22486001.619
       221.000         159.000
  20087490.115    -3259427.16749  -2531168.04947  20087489.807    20087497.017
       238.000         202.000
  19815001.283    -5009843.93649  -3890026.42447  19815000.535    19815007.605
       243.000         207.000
  22482099.164     1512654.12449   1173996.31245  22482099.543    22482107.879
       219.000         161.000
  20490515.062    -1654791.73949  -1284115.52047  20490514.167    20490521.426
       239.000         201.000
  24178020.402                       -2128.25254
       185.000         112.000
 01  6 22 19 45 29.9980000  0  9G21G 3G18G 6G17G15G26G23G22
  21544515.225    -7367069.45749  -5714728.92346  21544514.345    21544523.239
       231.000         181.000
  22198425.827    -9373777.04849  -7270963.47746  22198425.686    22198433.082
       225.000         167.000
  19834965.836    -3836520.17449  -2828958.53947  19834965.395    19834971.020
       239.000         208.000
  22494096.821     3174798.10749   2368497.38245  22494097.085    22494108.408
       223.000         160.000
  20078039.793    -3309089.71349  -2569866.14247  20078038.900    20078047.007
       238.000         197.000
  19800668.624    -5085162.59949  -3948716.28147  19800667.832    19800674.877
       243.000         206.000
  22487177.190     1539338.10049   1194788.91945  22487182.632    22487187.687
       218.000         141.000
  20485338.088    -1681996.78449  -1305314.27047  20485337.618    20485344.546
       238.000         200.000
  24177720.005                       -3384.35354
       179.000         110.000
 01  6 22 19 45 59.9980000  0  9G21G 3G18G 6G17G15G26G23G22
  21523809.694    -7475876.66149  -5799513.71546  21523809.132    21523818.069
       228.000         181.000
  22172580.033    -9509596.75549  -7376796.94746  22172579.267    22172587.964
       223.000         169.000
  19824749.972    -3890204.39449  -2870790.39647  19824749.739    19824755.059
       239.000         207.000
  22502226.913     3217520.84749   2401787.55545  22502227.828    22502238.551
       221.000         159.000
  20068630.064    -3358538.20649  -2608397.45647  20068629.224    20068636.831
       234.000         195.000
  19786375.621    -5160272.41149  -4007243.40847  19786374.904    19786382.322
       243.000         204.000
  22492312.658     1566325.87249   1215818.30645  22492313.271    22492321.519
       214.000         158.000
  20480186.672    -1709067.81949  -1326408.59447  20480185.929    20480193.048
       238.000         198.000
  24177438.408                        -570.71053
       189.000          74.000
 01  6 22 19 46 29.9980000  0  9G21G 3G18G 6G17G15G26G23G22
  21503132.957    -7584534.36249  -5884182.00846  21503132.124    21503141.170
       229.000         179.000
  22146795.492    -9645095.37549  -7482380.23246  22146795.153    22146803.228
       224.000         168.000
  19814582.617    -3943634.74649  -2912424.43647  19814582.046    19814587.808
       239.000         209.000
  22510378.816     3260359.73949   2435168.24345  22510378.657    22510388.437
       219.000         157.000
  20059260.107    -3407776.28449  -2646764.80147  20059259.326    20059267.062
       239.000         202.000
  19772121.637    -5235177.14149  -4065610.70947  19772120.954    19772127.925
       243.000         206.000
  22497504.964     1593609.81249   1237078.48145  22497504.442    22497513.241
       219.000         160.000
  20475059.411    -1736011.10749  -1347403.36747  20475058.884    20475066.018
       239.000         201.000
  24177176.002                       -1660.07454
       185.000         107.000
 01  6 22 19 46 59.9970000  0  9G21G 3G18G 6G17G15G26G23G22
  21482483.463    -7693047.03549  -5968737.30746  21482482.936    21482491.389
       232.000         182.000
  22121071.738    -9780273.77449  -7587713.99746  22121072.163    22121080.450
       222.000         168.000
  19804462.013    -3996818.25449  -2953866.13047  19804461.552    19804467.411
       239.000         210.000
  22518550.675     3303303.38349   2468630.55045  22518551.920    22518563.170
       215.000         152.000
  20049929.625    -3456809.11649  -2684972.21847  20049929.169    20049936.639
       237.000         200.000
  19757906.083    -5309880.89149  -4123821.42247  19757905.347    19757912.554
       243.000         206.000
  22502751.013     1621178.45749   1258560.49145  22502751.170    22502759.455
       218.000         159.000
  20469955.130    -1762834.83749  -1368304.99147  20469954.398    20469961.760
       239.000         201.000
  24176928.118                       -2691.62454
       179.000         108.000
 01  6 22 19 47 29.9970000  0  8G21G 3G18G 6G17G15G26G23
  21461858.319    -7801434.21349  -6053194.80746  21461857.407    21461865.867
       232.000         181.000
  22095405.576    -9915151.09649  -7692813.14146  22095405.629    22095413.257
       222.000         168.000
  19794385.320    -4049771.91349  -2995128.72047  19794384.984    19794390.569
       240.000         210.000
  22526740.404     3346339.53749   2502164.96345  22526740.726    22526752.894
       213.000         154.000
  20040635.269    -3505651.45549  -2723031.20147  20040634.879    20040642.046
       238.000         201.000
  19743725.734    -5384399.93349  -4181888.19947  19743725.017    19743732.004
       244.000         206.000
  22508048.781     1649018.36049   1280253.86245  22508048.669    22508057.398
       220.000         160.000
  20464870.549    -1789554.72849  -1389125.69747  20464870.099    20464877.157
       239.000         201.000
 01  6 22 19 47 59.9970000  0  8G21G 3G18G 6G17G15G26G23
  21441257.822    -7909690.00649  -6137549.92846  21441257.460    21441265.844
       230.000         181.000
  22069798.150   -10049717.68249  -7797670.17746  22069798.700    22069806.653
       223.000         169.000
  19784353.041    -4102492.48949  -3036209.68347  19784352.522    19784357.882
       241.000         208.000
  22534947.100     3389467.07049   2535770.54445  22534947.651    22534958.581
       207.000         149.000
  20031378.090    -3554298.00849  -2760937.62047  20031377.678    20031384.951
       238.000         201.000
  19729581.415    -5458727.71349  -4239805.93647  19729580.755    19729587.623
       243.000         205.000
  22513397.676     1677128.45549   1302157.77645  22513397.018    22513405.760
       216.000         157.000
  20459806.038    -1816168.59149  -1409863.77747  20459805.369    20459812.374
       240.000         200.000
 01  6 22 19 48 29.9970000  0  8G21G 3G18G 6G17G15G26G23
  21420676.455    -8017846.92949  -6221828.00846  21420676.015    21420683.993
       230.000         182.000
  22044244.688   -10184003.14749  -7902308.15046  22044243.332    22044252.839
       223.000         169.000
  19774358.689    -4155013.06349  -3077134.80947  19774358.010    19774363.891
       241.000         209.000
  22543164.755     3432651.36648   2569420.38745  22543164.116    22543178.940
       187.000         147.000
  20022152.380    -3602779.69149  -2798715.57647  20022151.810    20022159.189
       238.000         201.000
  19715467.887    -5532895.36049  -4297598.90047  19715467.217    19715474.154
       243.000         205.000
  22518791.584     1705473.90449   1324245.07645  22518791.618    22518799.716
       216.000         155.000
  20454755.531    -1842709.80349  -1430545.25547  20454754.978    20454762.123
       240.000         200.000
 01  6 22 19 48 59.9970000  0  8G21G 3G18G 6G17G15G26G23
  21400110.587    -8125922.30049  -6306042.54146  21400109.829    21400118.398
       233.000         184.000
  22018741.557   -10318022.43949  -8006738.70046  22018741.232    22018749.077
       219.000         164.000
  19764398.975    -4207352.17549  -3117918.54047  19764398.641    19764404.288
       241.000         210.000
  22551390.525     3475872.85949   2603099.16345  22551390.115    22551403.642
       210.000         153.000
  20012955.060    -3651112.86549  -2836377.80747  20012954.518    20012962.142
       237.000         201.000
  19701381.799    -5606918.81549  -4355279.51147  19701381.080    19701388.185
       243.000         205.000
  22524226.754     1734034.73649   1346500.21845  22524226.973    22524235.243
       218.000         159.000
  20449715.416    -1869196.84749  -1451184.52647  20449714.664    20449721.813
       239.000         201.000
 01  6 22 19 49 29.9970000  0  8G21G 3G18G 6G17G15G26G23
  21379553.958    -8233945.90249  -6390216.73546  21379553.339    21379561.887
       234.000         184.000
  21993284.099   -10451802.15149  -8110982.59646  21993283.485    21993292.696
       221.000         167.000
  19754468.217    -4259539.93549  -3158584.33247  19754467.640    19754472.855
       242.000         209.000
  22559616.420     3519100.13949   2636782.44645  22559616.807    22559629.595
       211.000         155.000
  20003780.819    -3699325.45449  -2873946.08747  20003780.048    20003787.261
       239.000         201.000
  19687317.716    -5680826.14749  -4412869.62847  19687317.036    19687323.909
       244.000         206.000
  22529697.147     1762778.96149   1368898.25045  22529697.414    22529704.522
       220.000         159.000
  20444679.630    -1895660.43649  -1471805.51647  20444679.155    20444685.726
       239.000         200.000
 01  6 22 19 49 59.9970000  0  8G21G 3G18G 6G17G15G26G23
  21359002.724    -8341944.92049  -6474371.75546  21359002.196    21359010.351
       232.000         183.000
  21967867.410   -10585367.00349  -8215059.07246  21967867.338    21967876.224
       220.000         167.000
  19744560.768    -4311604.78249  -3199154.34547  19744560.033    19744565.530
       242.000         210.000
  22567838.527     3562303.38249   2670447.05245  22567838.422    22567851.919
       210.000         152.000
  19994624.311    -3747443.67949  -2911440.83047  19994623.684    19994630.621
       240.000         201.000
  19673270.935    -5754643.47949  -4470389.62047  19673269.958    19673276.667
       245.000         206.000
  22535196.363     1791676.66049   1391415.86645  22535195.776    22535205.083
       219.000         159.000
  20439643.005    -1922128.92349  -1492430.32147  20439642.032    20439649.002
       240.000         201.000
 01  6 22 19 50 29.9970000  0  9G21G 3G18G 9G 6G17G15G26G23
  21338449.771    -8449950.79949  -6558532.13546  21338449.404    21338457.210
       233.000         182.000
  21942485.960   -10718745.86849  -8318990.62246  21942486.179    21942494.280
       216.000         164.000
  19734670.453    -4363578.59849  -3239653.42947  19734669.979    19734675.106
       242.000         210.000
  23756901.322     -131385.89954
       208.000         128.000
  22576048.869     3605449.25949   2704066.90445  22576048.196    22576061.644
       212.000         151.000
  19985479.939    -3795497.55549  -2948885.42547  19985479.343    19985486.578
       239.000         202.000
  19659235.370    -5828400.61049  -4527862.70147  19659234.586    19659241.339
       244.000         206.000
  22540718.057     1820693.91549   1414026.65045  22540718.154    22540726.832
       219.000         159.000
  20434599.024    -1948634.74349  -1513084.21547  20434598.099    20434605.039
       239.000         200.000
 01  6 22 19 50 59.9970000  0  9G21G 3G18G 9G 6G17G15G26G23
  21317904.330    -8557917.15949  -6642661.71546  21317903.384    21317911.834
       234.000         183.000
  21917149.416   -10851890.08349  -8422739.32246  21917149.077    21917157.580
       218.000         163.000
  19724805.907    -4415416.73649  -3280046.78747  19724805.370    19724810.909
       242.000         210.000
  23731746.759     -234393.63944
       208.000         131.000
  22584257.227     3648581.41649   2737676.09545  22584256.739    22584269.301
       212.000         152.000
  19976356.763    -3843439.91249  -2986243.13247  19976356.141    19976363.316
       239.000         202.000
  19645220.404    -5902050.10349  -4585251.90547  19645219.715    19645226.367
       245.000         207.000
  22546271.056     1849873.96649   1436764.29745  22546270.998    22546280.054
       218.000         158.000
  20429556.472    -1975133.11549  -1533732.30347  20429555.988    20429562.863
       239.000         200.000
 01  6 22 19 51 29.9970000  0  9G21G 3G18G 9G 6G17G15G26G23
  21297361.531    -8665870.82649  -6726781.41246  21297360.787    21297368.972
       233.000         183.000
  21891853.516   -10984822.92849  -8526323.29946  21891852.559    21891861.053
       221.000         163.000
  19714962.308    -4467145.64349  -3320355.02647  19714961.781    19714967.330
       243.000         210.000
  23706585.007     -337420.83745                                  23706599.299
       208.000         133.000
  22592457.301     3691671.79349   2771252.69345  22592457.048    22592468.994
       209.000         149.000
  19967250.261    -3891295.46849  -3023533.20447  19967249.552    19967257.114
       240.000         202.000
  19631221.220    -5975616.36349  -4642576.25747  19631220.468    19631227.383
       245.000         207.000
  22551849.468     1879188.37349   1459606.64345  22551848.944    22551858.442
       218.000         158.000
  20424510.334    -2001651.10749  -1554395.68447  20424509.640    20424516.792
       239.000         200.000
 01  6 22 19 51 59.9970000  0  9G21G 3G18G 9G 6G17G15G26G23
  21276828.954    -8773771.24849  -6810859.61546  21276828.062    21276835.900
       234.000         182.000
  21866605.633   -11117501.71549  -8629709.30646  21866604.673    21866612.813
       222.000         167.000
  19705146.906    -4518726.26849  -3360547.71547  19705146.351    19705151.434
       243.000         209.000
  23681428.381     -590288.92949   -440433.09445  23681428.898    23681444.910
       210.000         133.000
  22600656.598     3734758.26249   2804826.25945  22600656.415    22600667.936
       204.000         147.000
  19958168.096    -3939022.77349  -3060723.33047  19958167.455    19958174.501
       239.000         202.000
  19617245.812    -6049057.92949  -4699803.43747  19617244.903    19617251.681
       245.000         206.000
  22557460.637     1908674.71249   1482582.93745  22557460.330    22557469.120
       218.000         156.000
  20419467.893    -2028149.56749  -1575043.83547  20419467.192    20419474.235
       240.000         200.000
 01  6 22 19 52 29.9970000  0  9G21G 3G18G 9G 6G17G15G26G23
  21256304.805    -8881626.33049  -6894902.48246  21256304.157    21256312.233
       233.000         181.000
  21841405.038   -11249931.50049  -8732901.30846  21841404.365    21841412.252
       225.000         167.000
  19695357.887    -4570167.27649  -3400631.61447  19695357.485    19695362.880
       242.000         209.000
  23656274.142     -722473.67749   -543433.89145  23656275.333    23656288.080
       210.000         134.000
  22608853.052     3777830.88249   2838389.02745  22608853.134    22608866.050
       205.000         147.000
  19949109.033    -3986628.19349  -3097818.48747  19949108.366    19949115.886
       239.000         201.000
  19603292.771    -6122381.27749  -4756938.50247  19603291.978    19603298.886
       245.000         206.000
  22563102.619     1938322.72749   1505685.21245  22563102.471    22563111.593
       219.000         157.000
  20414427.448    -2054637.24849  -1595683.59547  20414426.681    20414433.887
       240.000         200.000
 01  6 22 19 52 59.9970000  0  9G21G 3G18G 9G 6G17G15G26G23
  21235815.089    -8989299.12749  -6978803.32246  21235814.719    21235822.397
       234.000         184.000
  21816278.394   -11381972.14749  -8835790.06446  21816277.299    21816285.784
       222.000         166.000
  19685621.476    -4621331.96149  -3440500.19847  19685621.086    19685626.203
       242.000         209.000
  23631150.087     -854502.78359   -646313.38155  23631149.002    23631165.699
       211.000         135.000
  22617072.789     3821024.91749   2872046.39245  22617071.582    22617084.775
       207.000         146.000
  19940099.621    -4033973.17149  -3134710.69847  19940099.142    19940106.494
       239.000         202.000
  19589388.784    -6195447.45649  -4813873.17947  19589388.105    19589394.727
       245.000         207.000
  22568800.991     1968267.13749   1529018.44245  22568800.737    22568808.598
       218.000         156.000
  20409414.962    -2080977.85049  -1616208.75347  20409414.367    20409421.266
       239.000         200.000
 01  6 22 19 53 29.9970000  0  9G21G 3G18G 9G 6G17G15G26G23
  21215349.771    -9096844.78349  -7062605.08646  21215349.157    21215357.305
       234.000         185.000
  21791216.002   -11513676.95049  -8938417.14346  21791215.799    21791224.173
       220.000         167.000
  19675927.174    -4672276.81949  -3480197.48947  19675926.752    19675931.788
       242.000         210.000
  23606045.315     -986428.25849   -749112.10245  23606044.179    23606060.199
       210.000         135.000
  22625304.582     3864282.57249   2905753.33045  22625303.534    22625317.066
       206.000         146.000
  19931129.382    -4081111.97049  -3171442.25547  19931128.781    19931136.123
       238.000         201.000
  19575523.498    -6268310.10049  -4870649.26147  19575522.599    19575529.468
       245.000         207.000
  22574544.465     1998450.04749   1552537.52245  22574544.566    22574552.634
       216.000         154.000
  20404419.967    -2107227.76349  -1636663.24447  20404419.256    20404425.984
       240.000         200.000
 01  6 22 19 53 59.9970000  0  9G21G 3G18G 9G 6G17G15G26G23
  21194915.451    -9204227.11149  -7146279.57246  21194914.954    21194923.070
       234.000         185.000
  21766224.749   -11645007.08549  -9040752.26746  21766223.806    21766232.794
       223.000         168.000
  19666281.307    -4722966.35449  -3519695.82147  19666280.894    19666286.042
       243.000         210.000
  23580967.397    -1118210.11649   -851798.93345  23580965.684    23580982.026
       210.000         134.000
  22633555.894     3907637.87849   2939536.35145  22633554.707    22633568.008
       205.000         146.000
  19922205.681    -4128007.00149  -3207983.86347  19922205.245    19922212.294
       239.000         201.000
  19561704.014    -6340931.95149  -4927237.71047  19561703.178    19561709.745
       246.000         207.000
  22580339.642     2028904.99649   1576268.57745  22580340.112    22580349.115
       217.000         155.000
  20399448.681    -2133352.04449  -1657019.83547  20399447.958    20399454.909
       241.000         200.000
 01  6 22 19 54 29.9970000  0 10G14G21G 3G18G 9G 6G17G15G26G23
  23101695.379     -287477.64655
       207.000         139.000
  21174498.421    -9311519.85449  -7229884.26946  21174497.625    21174506.174
       234.000         185.000
  21741290.847   -11776033.34649  -9142850.59846  21741290.926    21741299.178
       223.000         167.000
  19656669.913    -4773474.77649  -3559053.03347  19656669.387    19656674.618
       243.000         210.000
  23555903.780    -1249918.22449   -954428.28845  23555903.133    23555920.437
       211.000         134.000
  22641809.538     3951015.46549   2973336.74445  22641810.135    22641823.798
       206.000         147.000
  19913314.557    -4174730.39749  -3244391.72747  19913314.020    19913321.081
       239.000         201.000
  19547916.594    -6413384.88349  -4983694.53347  19547915.781    19547922.646
       245.000         207.000
  22586172.902     2059555.96649   1600152.36245  22586171.627    22586180.901
       216.000         155.000
  20394487.220    -2159424.99649  -1677336.43547  20394486.501    20394493.558
       240.000         200.000
 01  6 22 19 54 59.9970000  0 10G14G21G 3G18G 9G 6G17G15G26G23
  23067854.093     -426050.96745                                  23067865.601
       208.000         145.000
  21154095.863    -9418737.06149  -7313430.10146  21154095.262    21154103.719
       235.000         186.000
  21716413.273   -11906767.31849  -9244721.16546  21716412.480    21716421.201
       221.000         169.000
  19647089.964    -4823817.66249  -3598281.25647  19647089.505    19647094.755
       243.000         210.000
  23530852.094    -1381563.49249  -1057008.63745  23530852.239    23530865.897
       212.000         135.000
  22650065.927     3994398.65149   3007141.48345  22650065.913    22650079.078
       206.000         148.000
  19904453.473    -4221295.38149  -3280676.15347  19904453.104    19904460.175
       239.000         201.000
  19534159.146    -6485681.84749  -5040029.82447  19534158.358    19534164.947
       246.000         207.000
  22592039.378     2090386.13249   1624175.80345  22592039.363    22592048.052
       216.000         154.000
  20389532.652    -2185462.24049  -1697625.20647  20389531.785    20389538.594
       240.000         199.000
 01  6 22 19 55 29.9970000  0 10G14G21G 3G18G 9G 6G17G15G26G23
  23034004.566     -788973.76549   -564656.73045  23034004.091    23034017.736
       208.000         145.000
  21133706.748    -9525882.46449  -7396919.98347  21133705.782    21133713.863
       237.000         188.000
  21691590.735   -12037210.49949  -9346365.15046  21691589.801    21691598.317
       222.000         168.000
  19637540.784    -4873999.78349  -3637384.20947  19637540.326    19637545.638
       244.000         210.000
  23505812.779    -1513146.64449  -1159540.61145  23505813.117    23505826.665
       211.000         134.000
  22658322.138     4037781.17449   3040945.71145  22658321.582    22658335.054
       207.000         147.000
  19895622.165    -4267704.69349  -3316839.28247  19895621.748    19895628.846
       241.000         201.000
  19520430.517    -6557825.52149  -5096245.66947  19520429.759    19520436.780
       247.000         207.000
  22597939.072     2121388.79749   1648333.65845  22597939.708    22597947.567
       216.000         155.000
  20384583.728    -2211468.84949  -1717890.10747  20384583.050    20384589.897
       241.000         200.000
 01  6 22 19 55 59.9970000  0 10G14G21G 3G18G 9G 6G17G15G26G23
  23000075.763     -967266.94549   -703586.14645  23000075.746    23000089.356
       209.000         147.000
  21113259.502    -9633333.06949  -7480647.67147  21113258.997    21113266.367
       236.000         188.000
  21666751.957   -12167736.90849  -9448073.98046  21666751.144    21666760.281
       221.000         168.000
  19627950.089    -4924398.38249  -3676655.83647  19627949.460    19627954.943
       243.000         210.000
  23480713.517    -1645040.20849  -1262314.42745  23480714.834    23480728.431
       208.000         135.000
  22666505.503     4080784.45249   3074454.39445  22666504.545    22666518.387
       204.000         148.000
  19886749.022    -4314333.48049  -3353173.41847  19886748.270    19886755.339
       239.000         201.000
  19506659.911    -6630190.76849  -5152634.15647  19506659.039    19506665.933
       245.000         207.000
  22603799.448     2152184.92949   1672330.58345  22603799.690    22603808.103
       214.000         155.000
  20379568.860    -2237822.06549  -1738425.08547  20379568.228    20379575.098
       240.000         200.000
 01  6 22 19 56 29.9970000  0 10G14G21G 3G18G 9G 6G17G15G26G23
  22966186.143    -1145359.15259   -842358.97555  22966185.782    22966199.079
       211.000         148.000
  21092870.843    -9740475.93749  -7564135.58947  21092870.175    21092877.776
       236.000         190.000
  21642015.272   -12297730.90249  -9549367.94946  21642015.071    21642023.415
       222.000         169.000
  19618434.881    -4974401.44849  -3715619.26947  19618434.474    19618439.637
       242.000         209.000
  23455673.126    -1776627.72849  -1364849.78545  23455672.918    23455683.926
       209.000         133.000
  22674732.855     4124019.41249   3108143.61445  22674732.775    22674746.976
       204.000         147.000
  19877951.196    -4360567.38249  -3389199.85347  19877950.434    19877957.835
       239.000         201.000
  19492964.060    -6702163.13349  -5208716.52047  19492963.173    19492970.011
       245.000         207.000
  22609736.771     2183385.20049   1696642.38545  22609736.190    22609745.178
       211.000         154.000
  20374604.526    -2263909.83249  -1758753.23247  20374603.942    20374610.551
       239.000         199.000
 01  6 22 19 56 59.9970000  0 10G14G21G 3G18G 9G 6G17G15G26G23
  22932345.045    -1323194.19949   -980931.42745  22932344.971    22932357.820
       212.000         148.000
  21072550.949    -9847257.77849  -7647342.17047  21072550.265    21072557.995
       236.000         189.000
  21617390.065   -12427136.56649  -9650203.48746  21617389.441    21617397.731
       223.000         170.000
  19609004.997    -5023956.49749  -3754233.59647  19609004.419    19609009.671
       242.000         209.000
  23430701.785    -1907852.20049  -1467102.27345  23430701.894    23430716.428
       210.000         134.000
  22683014.268     4167536.90249   3142052.99245  22683014.519    22683028.783
       204.000         146.000
  19869238.743    -4406351.88749  -3424876.10947  19869237.999    19869245.241
       240.000         201.000
  19479353.295    -6773687.93749  -5264450.12347  19479352.495    19479359.205
       244.000         207.000
  22615760.718     2215040.13349   1721308.49245  22615760.510    22615769.598
       213.000         155.000
  20369700.820    -2289679.92249  -1778833.83347  20369700.153    20369707.044
       240.000         200.000
 01  6 22 19 57 29.9970000  0 10G14G21G 3G18G 9G 6G17G15G26G23
  22898537.128    -1500854.17649  -1119367.46545  22898536.831    22898550.166
       211.000         147.000
  21052283.395    -9953763.74749  -7730333.78346  21052282.654    21052290.805
       235.000         187.000
  21592861.373   -12556036.32949  -9750644.80446  21592860.431    21592869.021
       224.000         170.000
  19599643.859    -5073149.09349  -3792565.49047  19599643.046    19599648.571
       243.000         209.000
  23405784.185    -2038795.15449  -1569135.33045  23405782.286    23405797.707
       207.000         136.000
  22691332.800     4211250.03249   3176114.78945  22691331.282    22691346.287
       203.000         148.000
  19860595.817    -4451770.64349  -3460267.36447  19860595.141    19860602.166
       239.000         201.000
  19465811.988    -6844848.46149  -5319899.86747  19465811.120    19465817.758
       243.000         206.000
  22621854.303     2247062.40649   1746260.84345  22621854.432    22621863.203
       215.000         153.000
  20364840.779    -2315218.29449  -1798733.87047  20364840.211    20364846.968
       240.000         200.000
 01  6 22 19 57 59.9970000  0 10G14G21G 3G18G 9G 6G17G15G26G23
  22864749.681    -1678408.37749  -1257721.06945  22864749.441    22864761.907
       212.000         149.000
  21032054.791   -10060066.20649  -7813166.83747  21032054.238    21032062.066
       236.000         190.000
  21568415.606   -12684499.97049  -9850746.29646  21568414.624    21568422.820
       223.000         171.000
  19590337.900    -5122052.52949  -3830672.07247  19590337.415    19590342.722
       242.000         209.000
  23380906.660    -2169525.29949  -1671002.59345  23380905.943    23380920.873
       210.000         136.000
  22699674.528     4255084.13349   3210270.86645  22699673.953    22699688.284
       204.000         147.000
  19852008.935    -4496894.83849  -3495429.09847  19852008.207    19852015.519
       239.000         200.000
  19452326.279    -6915715.71349  -5375121.10747  19452325.440    19452332.343
       243.000         206.000
  22628003.635     2279376.94749   1771440.93645  22628003.173    22628012.389
       211.000         154.000
  20360011.199    -2340598.45849  -1818510.64247  20360010.576    20360017.661
       239.000         200.000
 01  6 22 19 58 29.9970000  0 10G14G21G 3G18G 9G 6G17G15G26G23
  22830988.867    -1855822.21449  -1395965.30045  22830988.931    22831000.893
       215.000         151.000
  21011870.884   -10166133.77749  -7895816.84647  21011870.244    21011877.969
       237.000         190.000
  21544059.016   -12812493.62549  -9950481.55346  21544058.722    21544066.553
       225.000         172.000
  19581092.693    -5170636.48649  -3868529.71047  19581091.929    19581097.576
       242.000         210.000
  23356076.716    -2300007.55149  -1772676.71245  23356074.356    23356090.975
       213.000         137.000
  22708044.619     4299068.69849   3244544.16945  22708045.056    22708058.935
       207.000         147.000
  19843484.312    -4541691.67949  -3530335.74947  19843483.760    19843490.995
       240.000         200.000
  19438902.778    -6986256.66449  -5430088.07447  19438901.885    19438908.886
       243.000         207.000
  22634213.983     2312012.74549   1796871.34445  22634214.916    22634222.986
       211.000         153.000
  20355217.521    -2365789.77349  -1838140.25047  20355217.042    20355223.827
       238.000         199.000
 01  6 22 19 58 59.9960000  0 10G14G21G 3G18G 9G 6G17G15G26G23
  22797270.602    -2033009.03149  -1534032.64945  22797270.666    22797282.196
       210.000         149.000
  20991746.952   -10271884.99649  -7978220.34246  20991745.841    20991753.953
       236.000         186.000
  21519808.391   -12939932.69349 -10049784.68546  21519807.952    21519814.993
       226.000         172.000
  19571923.221    -5218822.16349  -3906076.99447  19571922.548    19571927.795
       244.000         209.000
  23331309.330    -2430155.93049  -1874090.65545  23331310.576    23331324.481
       211.000         137.000
  22716457.954     4343277.85549   3278992.49045  22716458.085    22716471.572
       208.000         148.000
  19835037.634    -4586080.57249  -3564924.52047  19835036.967    19835044.003
       240.000         201.000
  19425556.975    -7056389.63449  -5484737.13947  19425556.014    19425562.807
       244.000         206.000
  22640499.754     2345044.09549   1822609.98445  22640499.705    22640507.949
       210.000         152.000
  20350474.468    -2390714.51049  -1857562.13547  20350473.687    20350480.323
       240.000         200.000
 01  6 22 19 59 29.9960000  0 10G14G21G 3G18G 9G 6G17G15G26G23
  22763579.352    -2210056.69449  -1671991.57045  22763579.255    22763592.400
       212.000         149.000
  20971666.848   -10377406.10849  -8060444.54446  20971666.594    20971674.203
       235.000         187.000
  21495646.524   -13066902.71749 -10148722.31446  21495646.975    21495653.329
       226.000         172.000
  19562813.651    -5266693.13349  -3943379.05447  19562813.358    19562818.354
       243.000         209.000
  23306590.105    -2560055.18949  -1975310.51345  23306591.291    23306603.922
       206.000         137.000
  22724898.348     4387633.05049   3313554.59245  22724898.351    22724911.949
       207.000         148.000
  19826652.674    -4630142.54149  -3599258.54047  19826652.106    19826659.418
       239.000         200.000
  19412272.929    -7126197.49649  -5539132.87347  19412272.148    19412279.011
       243.000         206.000
  22646845.764     2378391.18849   1848594.65945  22646845.431    22646853.529
       214.000         153.000
  20345766.656    -2415454.64549  -1876840.17147  20345766.152    20345772.877
       240.000         200.000
 01  6 22 19 59 59.9960000  0 10G14G21G 3G18G 9G 6G17G15G26G23
  22729899.248    -2387047.01349  -1809905.79845  22729898.528    22729911.575
       213.000         149.000
  20951613.819   -10482784.64649  -8142557.65447  20951613.197    20951620.964
       235.000         189.000
  21471558.231   -13193487.26049 -10247359.58146  21471558.036    21471566.685
       228.000         175.000
  19553746.969    -5314339.00949  -3980505.71147  19553746.314    19553751.790
       243.000         210.000
  23281902.474    -2689787.87849  -2076400.53645  23281901.689    23281914.989
       207.000         135.000
  22733349.399     4432040.24549   3348157.20945  22733349.916    22733362.894
       205.000         147.000
  19818313.594    -4673965.33449  -3633406.19647  19818313.123    19818320.057
       239.000         200.000
  19399034.374    -7195766.67649  -5593342.62247  19399033.462    19399040.163
       244.000         206.000
  22653233.943     2411959.87149   1874752.00645  22653233.554    22653243.086
       213.000         153.000
  20341076.674    -2440100.83249  -1896045.00047  20341075.994    20341082.716
       240.000         199.000
 01  6 22 20  0 29.9960000  0 10G14G21G 3G18G 9G 6G17G15G26G23
  22696266.363    -2563787.04149  -1947624.99445  22696266.949    22696279.177
       214.000         150.000
  20931624.156   -10587830.64349  -8224411.63747  20931623.531    20931631.586
       234.000         189.000
  21447580.160   -13319493.90849 -10345546.54446  21447579.991    21447587.711
       229.000         176.000
  19544759.146    -5361570.71549  -4017309.64947  19544758.628    19544764.020
       243.000         210.000
  23257283.445    -2819160.53749  -2177210.05545  23257282.672    23257297.674
       210.000         137.000
  22741845.571     4476686.98449   3382946.47045  22741845.898    22741859.428
       207.000         146.000
  19810056.338    -4717357.79849  -3667218.53647  19810055.660    19810062.869
       239.000         201.000
  19385877.525    -7264905.93249  -5647217.37247  19385876.709    19385883.433
       243.000         206.000
  22659699.317     2445937.54749   1901228.03545  22659699.628    22659708.250
       214.000         153.000
  20336440.541    -2464463.99749  -1915029.30347  20336440.014    20336446.778
       239.000         200.000
 01  6 22 20  0 59.9960000  0 10G14G21G 3G18G 9G 6G17G15G26G23
  22662677.182    -2740298.19349  -2085165.83845  22662676.710    22662688.870
       215.000         151.000
  20911693.314   -10692568.35549  -8306025.39947  20911692.753    20911700.547
       237.000         191.000
  21423707.528   -13444944.69149 -10443300.34846  21423707.093    21423714.958
       228.000         176.000
  19535845.286    -5408413.57649  -4053810.58347  19535844.837    19535850.142
       243.000         210.000
  23232729.145    -2948194.26449  -2277755.50345  23232728.496    23232743.444
       208.000         137.000
  22750382.488     4521546.80549   3417901.77245  22750382.100    22750398.186
       204.000         148.000
  19801876.437    -4760343.24049  -3700713.70947  19801875.938    19801883.106
       239.000         200.000
  19372798.163    -7333638.32349  -5700775.08247  19372797.357    19372804.038
       243.000         206.000
  22666238.068     2480297.10149   1928001.63545  22666237.658    22666246.904
       213.000         153.000
  20331853.260    -2488569.66749  -1933812.95847  20331852.884    20331859.572
       240.000         200.000
 01  6 22 20  1 29.9960000  0 10G14G21G 3G18G 9G 6G17G15G26G23
  22629114.564    -2916670.06349  -2222598.16145  22629114.751    22629126.122
       210.000         150.000
  20891803.504   -10797090.38249  -8387471.08146  20891803.220    20891810.838
       233.000         187.000
  21399923.395   -13569929.86249 -10540691.34846  21399922.896    21399931.756
       227.000         174.000
  19526987.574    -5454960.79049  -4090081.13647  19526987.102    19526992.365
       243.000         210.000
  23208222.080    -3076977.91349  -2378106.07645  23208222.393    23208235.207
       208.000         136.000
  22758942.005     4566524.97249   3452949.29245  22758940.962    22758956.064
       209.000         146.000
  19793756.763    -4803012.87549  -3733962.79047  19793756.233    19793763.141
       238.000         199.000
  19359779.119    -7402054.94349  -5754086.73447  19359778.419    19359785.059
       243.000         206.000
  22672831.023     2514943.66949   1954998.88345  22672831.139    22672839.412
       214.000         151.000
  20327297.400    -2512511.31449  -1952468.79547  20327296.838    20327303.694
       240.000         199.000
 01  6 22 20  1 59.9960000  0 10G14G21G 3G18G 9G 6G17G15G26G23
  22595577.911    -3092905.31249  -2359924.00745  22595578.270    22595589.813
       211.000         151.000
  20871953.379   -10901402.91549  -8468753.54946  20871952.961    20871960.799
       234.000         187.000
  21376227.680   -13694452.65149 -10637722.05046  21376227.305    21376235.794
       228.000         173.000
  19518184.941    -5501219.29549  -4126126.73347  19518184.432    19518189.546
       243.000         210.000
  23183762.437    -3205513.54149  -2478263.41545  23183760.018    23183775.207
       213.000         140.000
  22767522.437     4611613.51849   3488082.81945  22767522.424    22767536.288
       208.000         146.000
  19785696.274    -4845371.14349  -3766969.26247  19785695.805    19785702.752
       241.000         200.000
  19346819.083    -7470159.84349  -5807155.49347  19346818.475    19346825.119
       242.000         206.000
  22679477.063     2549868.83049   1982213.21045  22679476.922    22679485.650
       214.000         152.000
  20322771.451    -2536295.43449  -1971001.89747  20322770.952    20322777.680
       239.000         199.000
 01  6 22 20  2 29.9960000  0 10G14G21G 3G18G 9G 6G17G15G26G23
  22562062.965    -3269027.64949  -2497161.86145  22562062.690    22562073.632
       213.000         151.000
  20852138.092   -11005532.87549  -8549893.72447  20852137.259    20852145.231
       236.000         191.000
  21352615.064   -13818537.31649 -10734411.36246  21352614.766    21352622.246
       229.000         174.000
  19509431.849    -5547216.75849  -4161968.91647  19509431.092    19509436.550
       244.000         210.000
  23159345.347    -3333824.66049  -2578245.77645  23159346.050    23159357.910
       209.000         138.000
  22776118.705     4656783.50049   3523279.77645  22776117.964    22776132.448
       207.000         146.000
  19777689.984    -4887443.79149  -3799753.16547  19777689.162    19777696.687
       240.000         199.000
  19333913.688    -7537978.45849  -5860001.17247  19333912.657    19333919.552
       244.000         207.000
  22686170.277     2585043.05249   2009621.56745  22686170.750    22686179.658
       213.000         152.000
  20318270.075    -2559949.94449  -1989433.99747  20318269.245    20318276.138
       240.000         197.000
 01  6 22 20  2 59.9960000  0 10G14G21G 3G18G 9G 6G17G15G26G23
  22528570.601    -3445029.98349  -2634306.21545  22528569.918    22528581.958
       215.000         149.000
  20832358.415   -11109476.02849  -8630888.34647  20832357.587    20832365.522
       234.000         189.000
  21329086.967   -13942177.44749 -10830754.28446  21329086.931    21329094.981
       224.000         172.000
  19500729.260    -5592949.78049  -4197605.04447  19500728.763    19500733.850
       244.000         210.000
  23134972.046    -3461903.18549  -2678046.94645  23134972.081    23134985.799
       210.000         140.000
  22784729.971     4702036.88649   3558541.72945  22784729.696    22784743.991
       205.000         146.000
  19769739.278    -4929225.39749  -3832310.28847  19769738.631    19769745.768
       240.000         199.000
  19321063.754    -7605505.28849  -5912619.48747  19321062.682    19321069.593
       242.000         207.000
  22692911.830     2620468.37349   2037225.64045  22692912.330    22692920.484
       213.000         153.000
  20313794.156    -2583471.55249  -2007762.53747  20313793.406    20313800.069
       239.000         198.000
 01  6 22 20  3 29.9960000  0 10G14G21G 3G18G 9G 6G17G15G26G23
  22495108.616    -3620871.83149  -2771325.52845  22495108.216    22495119.246
       213.000         151.000
  20812621.216   -11213195.17449  -8711708.43047  20812620.547    20812628.353
       235.000         188.000
  21305651.225   -14065333.52849 -10926720.01446  21305651.597    21305658.754
       227.000         173.000
  19492083.857    -5638381.98349  -4233006.77347  19492083.198    19492088.414
       244.000         210.000
  23110651.318    -3589708.46549  -2777635.20545  23110650.920    23110664.900
       211.000         143.000
  22793364.632     4747408.87749   3593896.09145  22793364.832    22793378.691
       208.000         145.000
  19761851.582    -4970677.40649  -3864610.59347  19761850.867    19761857.928
       240.000         199.000
  19308276.779    -7672701.61849  -5964980.27547  19308276.092    19308282.634
       243.000         207.000
  22699707.538     2656179.16049   2065052.15945  22699707.768    22699716.072
       212.000         152.000
  20309350.523    -2606823.89649  -2025959.19747  20309349.698    20309356.609
       239.000         198.000
 01  6 22 20  3 59.9960000  0 10G14G21G 3G18G 9G 6G17G15G26G23
  22461647.547    -3796707.94249  -2908340.33545  22461647.597    22461658.426
       213.000         151.000
  20792896.737   -11316848.27649  -8792477.03047  20792895.958    20792903.785
       237.000         191.000
  21282277.845   -14188160.76049 -11022429.52046  21282277.288    21282285.256
       229.000         175.000
  19483465.473    -5683671.61449  -4268297.39547  19483464.827    19483470.216
       241.000         210.000
  23086353.519    -3717394.37049  -2877130.42945  23086354.041    23086365.868
       209.000         140.000
  22801990.942     4792739.88849   3629218.51745  22801991.458    22802005.554
       208.000         146.000
  19753996.383    -5011956.17749  -3896775.89647  19753995.862    19754002.623
       239.000         199.000
  19295522.950    -7739723.48649  -6017205.11247  19295522.186    19295528.784
       243.000         207.000
  22706527.168     2692015.53549   2092976.52745  22706527.318    22706535.534
       215.000         153.000
  20304908.736    -2630165.32649  -2044147.34047  20304908.183    20304914.783
       239.000         198.000
 01  6 22 20  4 29.9960000  0 10G14G21G 3G18G 9G 6G17G15G26G23
  22428224.139    -3972348.24049  -3045202.58545  22428224.075    22428235.898
       210.000         151.000
  20773220.301   -11420247.63949  -8873047.92147  20773219.844    20773227.535
       238.000         192.000
  21259003.401   -14310469.63249 -11117735.10446  21259002.639    21259010.868
       230.000         176.000
  19474909.496    -5728632.75349  -4303332.05747  19474908.839    19474914.445
       241.000         209.000
  23062114.521    -3844770.60849  -2976384.40245  23062113.284    23062128.384
       206.000         140.000
  22810645.015     4838214.49349   3664652.82345  22810644.666    22810659.989
       207.000         145.000
  19746210.101    -5052873.40749  -3928659.48647  19746209.294    19746216.513
       240.000         199.000
  19282838.326    -7806382.28949  -6069147.04547  19282837.569    19282844.129
       243.000         207.000
  22713405.711     2728161.82549   2121142.39345  22713404.986    22713414.560
       216.000         153.000
  20300504.517    -2653309.92049  -2062182.11547  20300503.953    20300510.622
       238.000         198.000
 01  6 22 20  4 59.9960000  0 10G14G21G 3G18G 9G 6G17G15G26G23
  22394842.765    -4147765.81649  -3181891.29345  22394841.177    22394853.905
       209.000         150.000
  20753596.749   -11523370.45449  -8953403.32347  20753596.066    20753603.751
       239.000         193.000
  21235832.350   -14432234.05349 -11212616.44646  21235831.898    21235839.919
       229.000         176.000
  19466420.649    -5773242.38449  -4338092.80847  19466419.918    19466425.281
       241.000         209.000
  23037939.752    -3971809.75049  -3075375.69645  23037940.563    23037953.259
       210.000         140.000
  22819330.384     4883854.36649   3700215.91845  22819330.540    22819344.620
       207.000         144.000
  19738497.432    -5093404.19349  -3960241.94947  19738496.693    19738504.045
       240.000         200.000
  19270227.452    -7872652.75549  -6120786.37147  19270226.752    19270233.479
       243.000         207.000
  22720347.151     2764639.40449   2149566.39645  22720346.803    22720356.034
       214.000         153.000
  20296142.282    -2676234.68949  -2080045.58747  20296141.562    20296148.112
       239.000         198.000
 01  6 22 20  5 29.9960000  0 10G14G21G 3G18G 9G 6G17G15G26G23
  22361482.830    -4323071.98349  -3318493.18445  22361482.463    22361494.206
       212.000         152.000
  20734003.936   -11626330.40249  -9033631.82147  20734003.763    20734010.977
       236.000         190.000
  21212743.592   -14553565.89349 -11307160.71446  21212743.074    21212751.788
       231.000         174.000
  19457976.737    -5817615.38749  -4372669.19247  19457976.372    19457981.835
       242.000         210.000
  23013807.563    -4098622.41149  -3174190.53145  23013807.798    23013821.672
       209.000         143.000
  22828025.600     4929543.32649   3735817.27145  22828025.366    22828039.680
       210.000         146.000
  19730836.682    -5133661.43249  -3991611.27147  19730836.227    19730843.520
       239.000         199.000
  19257668.960    -7938647.62049  -6172210.95247  19257668.271    19257675.088
       243.000         207.000
  22727329.355     2801331.57049   2178157.62045  22727328.440    22727338.586
       214.000         153.000
  20291799.618    -2699054.70349  -2097827.44947  20291799.162    20291805.801
       239.000         198.000
 01  6 22 20  5 59.9960000  0 10G14G21G 3G18G 9G 6G17G15G26G23
  22328130.115    -4498341.20749  -3455066.28445  22328130.196    22328141.799
       213.000         153.000
  20714427.614   -11729205.53149  -9113794.21647  20714427.022    20714434.664
       237.000         191.000
  21189722.963   -14674540.37649 -11401426.52546  21189722.498    21189729.974
       229.000         175.000
  19449562.941    -5861830.48749  -4407122.51247  19449562.263    19449567.591
       242.000         209.000
  22989705.189    -4225282.88149  -3272886.77645  22989705.826    22989717.544
       210.000         143.000
  22836714.132     4975201.34649   3771394.48445  22836713.787    22836729.309
       210.000         144.000
  19723213.475    -5173721.65549  -4022827.05347  19723212.809    19723220.034
       239.000         198.000
  19245148.556    -8004443.34949  -6223480.35347  19245147.811    19245154.486
       243.000         207.000
  22734337.130     2838158.09549   2206853.50945  22734337.539    22734346.354
       216.000         154.000
  20287462.081    -2721848.53149  -2115588.88647  20287461.361    20287468.154
       239.000         198.000
 01  6 22 20  6 29.9960000  0 10G14G21G 3G18G 9G 6G17G15G26G23
  22294788.220    -4673554.52149  -3591595.80445  22294786.734    22294798.952
       213.000         152.000
  20694870.445   -11831979.82349  -9193878.04247  20694869.685    20694877.143
       236.000         190.000
  21166773.761   -14795139.06749 -11495399.50646  21166773.747    21166781.172
       229.000         175.000
  19441182.062    -5905872.49049  -4441440.96847  19441181.586    19441186.536
       242.000         209.000
  22965635.241    -4351771.51549  -3371449.11145  22965635.037    22965648.719
       211.000         143.000
  22845399.594     5020842.34349   3806958.43345  22845398.384    22845415.000
       206.000         145.000
  19715631.396    -5213567.43449  -4053875.74347  19715630.747    19715637.573
       240.000         199.000
  19232669.334    -8070022.26349  -6274580.81347  19232668.573    19232675.261
       243.000         207.000
  22741373.206     2875132.45749   2235664.61845  22741373.871    22741383.213
       213.000         152.000
  20283132.540    -2744600.79449  -2133317.95147  20283131.846    20283138.560
       239.000         198.000
 01  6 22 20  6 59.9960000  0 10G14G21G 3G18G 9G 6G17G15G26G23
  22261460.818    -4848690.17349  -3728064.81545  22261460.122    22261472.084
       213.000         153.000
  20675335.896   -11934634.72349  -9273868.84047  20675334.810    20675342.733
       239.000         192.000
  21143900.068   -14915341.13549 -11589063.44346  21143899.551    21143906.934
       230.000         176.000
  19432837.464    -5949723.37649  -4475610.49747  19432837.156    19432842.237
       241.000         209.000
  22941601.655    -4478066.07649  -3469860.23845  22941601.610    22941613.141
       207.000         141.000
  22854085.039     5066482.93249   3842522.04145  22854084.577    22854100.460
       206.000         144.000
  19708093.341    -5253179.03349  -4084741.95247  19708092.561    19708099.586
       239.000         198.000
  19220235.220    -8135364.24549  -6325496.65447  19220234.436    19220240.945
       243.000         207.000
  22748440.666     2912271.10249   2264603.73945  22748440.773    22748449.253
       212.000         153.000
  20278814.370    -2767293.73549  -2151000.79247  20278813.747    20278820.455
       239.000         198.000
 01  6 22 20  7 29.9960000  0 11G14G21G 3G18G 9G 6G17G15G29G26G23
  22228146.301    -5023758.33749  -3864481.26845  22228146.550    22228156.909
       212.000         154.000
  20655821.274   -12037183.66949  -9353777.07747  20655820.829    20655828.026
       240.000         194.000
  21121099.873   -15035157.51849 -11682426.83446  21121099.138    21121106.818
       229.000         176.000
  19424526.649    -5993397.28749  -4509642.11847  19424526.168    19424531.077
       240.000         208.000
  22917603.286    -4604176.28049  -3568127.67145  22917603.405    22917616.365
       204.000         139.000
  22862767.320     5112107.93549   3878073.49845  22862766.720    22862783.717
       204.000         143.000
  19700597.779    -5292568.50849  -4115435.07847  19700597.192    19700604.504
       239.000         198.000
  19207843.842    -8200481.21549  -6376237.15547  19207843.217    19207849.635
       243.000         208.000
  22985519.866     -391013.60354
       212.000         108.000
  22755536.320     2949557.99649   2293658.36245  22755536.670    22755545.115
       215.000         154.000
  20274504.644    -2789941.43249  -2168648.37547  20274504.241    20274510.687
       238.000         198.000
 01  6 22 20  7 59.9960000  0 11G14G21G 3G18G 9G 6G17G15G29G26G23
  22194831.306    -5198827.74749  -4000898.64945  22194830.588    22194841.971
       211.000         155.000
  20636313.369   -12139698.17949  -9433658.46947  20636312.921    20636320.191
       239.000         194.000
  21098359.651   -15154657.64049 -11775543.77846  21098359.051    21098367.142
       230.000         176.000
  19416235.531    -6036966.82049  -4543592.40847  19416235.078    19416240.105
       241.000         208.000
  22893627.291    -4730170.03349  -3666304.41945  22893626.416    22893637.278
       204.000         139.000
  22871432.780     5157643.33449   3913555.14645  22871432.736    22871447.571
       204.000         142.000
  19693131.061    -5331806.25649  -4146009.97347  19693130.691    19693137.661
       239.000         198.000
  19195481.968    -8265443.33549  -6426856.99447  19195481.217    19195487.697
       243.000         207.000
  22952289.661     -109919.52843
       213.000          74.000
  22762645.781     2986919.01549   2322770.76845  22762645.425    22762655.354
       213.000         153.000
  20270189.618    -2812616.50149  -2186317.28447  20270188.949    20270196.079
       239.000         198.000
 01  6 22 20  8 29.9960000  0 11G14G21G 3G18G 9G 6G17G15G29G26G23
  22161542.454    -5373758.93949  -4137208.35845  22161542.140    22161553.750
       214.000         154.000
  20616837.851   -12242041.90349  -9513406.79647  20616837.354    20616844.876
       237.000         192.000
  21075705.968   -15273702.81049 -11868306.22946  21075705.874    21075712.666
       230.000         176.000
  19407990.318    -6080296.30449  -4577355.65547  19407989.910    19407994.976
       241.000         209.000
  22869699.950    -4855907.67349  -3764281.57445  22869699.399    22869712.830
       203.000         138.000
  22880106.935     5203223.65649   3949071.81145  22880106.356    22880121.359
       208.000         143.000
  19685719.416    -5370754.57749  -4176359.35447  19685718.963    19685725.784
       238.000         197.000
  19183175.699    -8330112.67449  -6477248.69947  19183174.887    19183181.543
       244.000         207.000
  22919068.278     -245950.66145
       210.000         136.000
  22769795.047     3024488.21649   2352045.37545  22769794.751    22769803.822
       215.000         155.000
  20265895.370    -2835183.29849  -2203901.83447  20265894.948    20265901.378
       238.000         197.000
 01  6 22 20  8 59.9960000  0 11G14G21G 3G18G 9G 6G17G15G29G26G23
  22128290.547    -5548497.53449  -4273367.98045  22128290.204    22128301.633
       213.000         154.000
  20597404.742   -12344163.82849  -9592982.28247  20597404.343    20597411.799
       240.000         193.000
  21053149.342   -15392239.37649 -11960672.35546  21053149.416    21053157.071
       229.000         176.000
  19399800.275    -6123335.35249  -4610892.58447  19399799.649    19399804.863
       241.000         208.000
  22845831.987    -4981334.47749  -3862016.55945  22845830.781    22845842.445
       204.000         137.000
  22888798.481     5248897.96949   3984661.74145  22888797.827    22888813.367
       205.000         141.000
  19678373.091    -5409361.12649  -4206442.40347  19678372.527    19678379.495
       240.000         198.000
  19170935.367    -8394436.57249  -6527371.22347  19170934.789    19170941.030
       244.000         207.000
  22885869.683     -381893.10745                                  22885884.210
       212.000         140.000
  22776993.073     3062314.22749   2381520.11845  22776993.537    22777002.102
       214.000         154.000
  20261631.284    -2857591.27649  -2221362.61847  20261630.399    20261637.725
       238.000         198.000
 01  6 22 20  9 29.9960000  0 11G14G21G 3G18G 9G 6G17G15G29G26G23
  22095078.033    -5723030.87849  -4409367.67245  22095077.364    22095089.329
       212.000         155.000
  20578015.710   -12446054.46149  -9672377.54447  20578015.280    20578022.687
       237.000         193.000
  21030691.408   -15510255.61549 -12052633.03146  21030691.110    21030698.953
       227.000         176.000
  19391667.192    -6166075.14249  -4644196.31647  19391666.656    19391671.740
       242.000         209.000
  22822025.631    -5106437.17049  -3959498.99045  22822025.113    22822038.499
       205.000         141.000
  22897509.584     5294673.71249   4020330.69045  22897507.588    22897525.630
       206.000         142.000
  19671093.530    -5447615.04649  -4236250.67947  19671092.780    19671100.207
       239.000         198.000
  19158762.751    -8458403.96749  -6577215.95747  19158762.034    19158768.386
       243.000         207.000
  22852694.405    -1245827.27749   -517737.91845  22852694.280    22852710.831
       208.000         138.000
  22784241.374     3100404.35749   2411200.64545  22784241.869    22784250.493
       212.000         154.000
  20257399.130    -2879831.63649  -2238692.79847  20257398.494    20257404.971
       238.000         197.000
 01  6 22 20  9 59.9960000  0 11G14G21G 3G18G 9G 6G17G15G29G26G23
  22061894.612    -5897409.71949  -4545246.96245  22061893.567    22061904.678
       215.000         155.000
  20558660.272   -12547767.33949  -9751634.30247  20558659.828    20558666.948
       236.000         191.000
  21008323.157   -15627803.12249 -12144228.47146  21008322.169    21008329.817
       228.000         175.000
  19383580.629    -6208570.21949  -4677309.37047  19383579.884    19383584.931
       242.000         209.000
  22798271.862    -5231266.10349  -4056768.08245  22798271.004    22798284.548
       208.000         146.000
  22906230.101     5340494.97949   4056035.11445  22906228.928    22906244.967
       210.000         143.000
  19663871.076    -5485568.94849  -4265825.18047  19663870.328    19663877.247
       239.000         199.000
  19146647.990    -8522067.11449  -6626823.60947  19146646.998    19146653.387
       244.000         207.000
  22819533.394    -1420087.37149   -653524.66145  22819532.694    22819548.440
       210.000         138.000
  22791529.330     3138702.29449   2441043.10445  22791529.788    22791538.548
       212.000         152.000
  20253188.415    -2901958.95849  -2255934.89647  20253187.292    20253194.258
       238.000         197.000
 01  6 22 20 10 29.9960000  0 11G14G21G 3G18G 9G 6G17G15G29G26G23
  22028738.675    -6071642.98549  -4681012.84145  22028738.472    22028749.960
       215.000         155.000
  20539336.455   -12649314.50749  -9830761.93047  20539335.631    20539343.185
       236.000         190.000
  20986041.756   -15744891.76349 -12235466.34346  20986041.535    20986048.968
       227.000         175.000
  19375538.308    -6250833.41349  -4710241.73547  19375537.784    19375542.794
       242.000         209.000
  22774567.698    -5355829.71349  -4153830.43745  22774567.150    22774580.197
       211.000         147.000
  22914955.379     5386347.81049   4091764.14745  22914955.380    22914971.678
       205.000         142.000
  19656703.884    -5523233.69349  -4295174.36847  19656703.101    19656710.561
       238.000         198.000
  19134589.216    -8585436.58349  -6676202.42947  19134588.589    19134594.990
       243.000         206.000
  22786384.910    -1594282.05359   -789260.40755  22786384.039    22786399.619
       210.000         141.000
  22798854.267     3177193.56749   2471036.21745  22798853.792    22798863.749
       216.000         155.000
  20248996.813    -2923986.00449  -2273098.85847  20248996.342    20249002.667
       238.000         197.000
 01  6 22 20 10 59.9950000  0 11G14G21G 3G18G 9G 6G17G15G29G26G23
  21995609.669    -6245735.98649  -4816669.41645  21995608.918    21995620.167
       215.000         156.000
  20520041.970   -12750707.20549  -9909769.18647  20520041.318    20520048.555
       237.000         191.000
  20963846.401   -15861529.42249 -12326352.80746  20963846.144    20963854.072
       227.000         177.000
  19367537.370    -6292878.41549  -4743004.07747  19367536.950    19367541.867
       242.000         209.000
  22750912.946    -5480134.40349  -4250691.03245  22750912.513    22750925.690
       210.000         146.000
  22923683.908     5432214.35249   4127503.81145  22923684.145    22923699.431
       206.000         139.000
  19649589.170    -5560620.92049  -4324307.31047  19649588.612    19649596.068
       238.000         198.000
  19122584.238    -8648522.90449  -6725360.61447  19122583.611    19122590.114
       243.000         207.000
  22753247.948    -1768416.88249   -924949.51045  22753246.517    22753262.256
       210.000         141.000
  22806212.038     3215860.20449   2501165.98145  22806212.531    22806221.327
       216.000         155.000
  20244821.667    -2945926.95549  -2290195.72747  20244821.181    20244827.602
       238.000         196.000
 01  6 22 20 11 29.9950000  0 11G14G21G 3G18G 9G 6G17G15G29G26G23
  21962515.559    -6419645.67549  -4952183.16545  21962514.884    21962525.597
       217.000         157.000
  20500785.552   -12851900.71549  -9988621.24847  20500785.148    20500792.459
       237.000         192.000
  20941745.348   -15977670.05049 -12416851.98446  20941745.130    20941752.915
       225.000         173.000
  19359587.209    -6334656.81449  -4775558.69447  19359586.896    19359591.958
       243.000         208.000
  22727316.761    -5604133.21749  -4347313.28145  22727316.916    22727329.690
       210.000         145.000
  22932425.177     5478147.17349   4163295.14045  22932425.017    22932443.005
       206.000         140.000
  19642537.257    -5597680.16449  -4353184.68947  19642536.898    19642544.167
       238.000         198.000
  19110642.646    -8711277.20749  -6774260.09147  19110642.183    19110648.414
       244.000         206.000
  22720130.248    -1942448.98949  -1060558.58345  22720129.552    22720144.137
       210.000         142.000
  22813613.790     3254754.10549   2531472.82945  22813614.158    22813622.269
       215.000         153.000
  20240672.288    -2967732.28749  -2307186.93547  20240671.893    20240678.481
       238.000         196.000
 01  6 22 20 11 59.9950000  0 11G14G21G 3G18G 9G 6G17G15G29G26G23
  21929425.717    -6593532.67149  -5087679.23145  21929424.300    21929436.642
       215.000         155.000
  20481535.348   -12953060.73849 -10067447.19747  20481534.618    20481542.527
       238.000         193.000
  20919707.918   -16093476.90649 -12507091.07246  20919707.789    20919715.687
       225.000         175.000
  19351655.516    -6376337.82149  -4808037.39647  19351655.207    19351659.999
       242.000         208.000
  22703747.579    -5727988.25649  -4443823.50845  22703746.453    22703759.828
       209.000         144.000
  22941145.450     5523973.29749   4199003.31545  22941144.345    22941162.579
       202.000         139.000
  19635515.724    -5634578.68149  -4381936.80947  19635515.030    19635522.307
       238.000         198.000
  19098732.486    -8773865.36049  -6823030.08647  19098731.848    19098738.184
       243.000         207.000
  22687002.223    -2116539.26149  -1196212.98145  22687000.844    22687016.517
       214.000         145.000
  22821025.160     3293702.06249   2561821.79845  22821025.077    22821034.679
       214.000         154.000
  20236516.406    -2989571.40149  -2324204.45347  20236515.737    20236522.259
       238.000         196.000
 01  6 22 20 12 29.9950000  0 11G14G21G 3G18G 9G 6G17G15G29G26G23
  21896371.078    -6767237.23349  -5223033.14445  21896369.943    21896381.743
       214.000         155.000
  20462321.291   -13054030.86849 -10146125.18347  20462320.655    20462328.033
       239.000         195.000
  20897764.477   -16208791.07049 -12596946.22946  20897764.369    20897771.958
       226.000         176.000
  19343772.242    -6417765.30049  -4840318.55247  19343771.730    19343776.687
       241.000         209.000
  22680236.348    -5851539.12749  -4540096.72845  22680236.168    22680249.207
       209.000         146.000
  22949875.817     5569847.26049   4234748.79445  22949876.277    22949891.802
       203.000         138.000
  19628554.782    -5671158.38149  -4410440.51447  19628554.164    19628561.496
       238.000         198.000
  19086884.091    -8836128.99849  -6871547.22147  19086883.312    19086889.752
       243.000         207.000
  22653892.299    -2290528.11749  -1331788.36045  22653892.387    22653906.687
       214.000         144.000
  22828476.536     3332858.46149   2592333.18045  22828476.165    22828485.536
       214.000         154.000
  20232383.953    -3011288.38749  -2341126.80147  20232383.270    20232389.799
       238.000         196.000
 01  6 22 20 12 59.9950000  0 11G14G21G 3G18G 9G 6G17G15G29G26G23
  21863352.497    -6940749.21549  -5358237.01045  21863351.530    21863363.016
       216.000         156.000
  20443144.812   -13154804.16849 -10224649.80747  20443144.155    20443151.513
       239.000         194.000
  20875916.228   -16323603.70949 -12686410.59846  20875916.024    20875924.064
       226.000         175.000
  19335938.180    -6458933.18449  -4872397.43447  19335937.827    19335942.725
       242.000         209.000
  22656784.945    -5974775.38949  -4636124.79845  22656784.530    22656797.754
       211.000         146.000
  22958615.251     5615773.94149   4270535.32545  22958614.011    22958632.202
       203.000         138.000
  19621656.127    -5707411.13549  -4438689.45747  19621655.673    19621662.735
       238.000         198.000
  19075099.108    -8898059.75949  -6919804.96947  19075098.343    19075104.561
       244.000         207.000
  22620804.580    -2464405.84149  -1467277.15045  22620804.264    22620818.398
       210.000         145.000
  22835968.422     3372227.75749   2623010.48245  22835968.794    22835976.950
       214.000         152.000
  20228275.725    -3032877.08449  -2357949.20447  20228275.058    20228281.543
       238.000         195.000
 01  6 22 20 13 29.9950000  0 11G14G21G 3G18G 9G 6G17G15G29G26G23
  21830369.644    -7114075.46249  -5493296.13945  21830369.458    21830379.236
       218.000         157.000
  20424003.929   -13255390.58949 -10303028.81247  20424003.398    20424010.414
       236.000         190.000
  20854162.251   -16437922.48149 -12775490.15846  20854162.352    20854169.788
       226.000         177.000
  19328151.683    -6499851.83549  -4904282.10247  19328151.404    19328156.006
       242.000         209.000
  22633393.003    -6097703.35049  -4731912.63745  22633392.879    22633404.627
       215.000         149.000
  22967363.951     5661741.61549   4306353.80045  22967364.533    22967380.818
       204.000         138.000
  19614818.236    -5743345.61849  -4466690.39547  19614817.327    19614824.796
       238.000         197.000
  19063375.856    -8959666.12249  -6967809.93847  19063374.990    19063381.523
       243.000         207.000
  22587736.280    -2638179.38749  -1602684.74345  22587735.725    22587750.008
       211.000         146.000
  22843498.553     3411797.72949   2653844.12845  22843499.314    22843506.592
       216.000         152.000
  20224189.920    -3054347.98249  -2374679.79447  20224189.085    20224195.783
       238.000         195.000
 01  6 22 20 13 59.9950000  0 11G14G21G 3G18G 9G 6G17G15G29G26G23
  21797401.297    -7287322.22949  -5628293.35445  21797400.947    21797410.494
       218.000         157.000
  20404877.648   -13355899.34949 -10381347.28547  20404876.811    20404884.546
       236.000         192.000
  20832481.503   -16551854.51049 -12864268.32946  20832480.588    20832489.743
       223.000         173.000
  19320391.445    -6540631.72549  -4936058.64447  19320391.010    19320396.164
       242.000         209.000
  22610038.917    -6220428.84949  -4827542.70445  22610038.255    22610050.686
       212.000         146.000
  22976097.771     5707638.66149   4342117.24045  22976095.424    22976115.570
       204.000         137.000
  19608019.875    -5779070.09349  -4494527.69847  19608019.323    19608026.875
       238.000         198.000
  19051693.577    -9021056.23949  -7015646.40547  19051692.995    19051699.402
       242.000         206.000
  22554667.486    -2811955.35249  -1738094.20545  22554666.927    22554682.107
       212.000         145.000
  22851045.432     3451456.59249   2684747.05745  22851044.964    22851054.581
       214.000         150.000
  20220105.573    -3075811.25249  -2391404.45147  20220104.857    20220111.429
       237.000         195.000
 01  6 22 20 14 29.9950000  0 11G14G21G 3G18G 9G 6G17G15G29G26G23
  21764476.543    -7460343.71249  -5763115.03745  21764474.977    21764485.351
       218.000         157.000
  20385793.463   -13456187.64149 -10459493.96947  20385792.714    20385799.999
       238.000         194.000
  20810902.310   -16665254.86249 -12952632.21046  20810901.690    20810909.519
       225.000         175.000
  19312684.779    -6581130.67849  -4967616.28047  19312684.177    19312689.271
       242.000         208.000
  22586750.635    -6342805.56349  -4922900.99145  22586750.707    22586763.146
       210.000         146.000
  22984845.805     5753606.05549   4377935.50145  22984845.992    22984861.319
       202.000         137.000
  19601289.369    -5814440.42849  -4522089.04147  19601288.618    19601296.246
       238.000         197.000
  19040080.196    -9082085.71749  -7063201.85547  19040079.242    19040085.912
       244.000         207.000
  22521626.193    -2985587.89749  -1873391.93445  22521625.910    22521640.037
       212.000         147.000
  22858635.912     3491344.78649   2715828.70745  22858635.971    22858644.516
       215.000         151.000
  20216049.861    -3097124.63549  -2408012.32347  20216048.918    20216055.794
       238.000         194.000
 01  6 22 20 14 59.9950000  0 11G14G21G 3G18G 9G 6G17G15G29G26G23
  21731591.651    -7633151.75149  -5897770.38645  21731591.544    21731601.393
       217.000         157.000
  20366748.102   -13556270.78849 -10537480.80947  20366747.342    20366754.907
       237.000         194.000
  20789421.449   -16778136.45849 -13040591.87946  20789421.109    20789429.295
       223.000         173.000
  19305028.666    -6621364.36549  -4998967.21347  19305028.083    19305033.217
       242.000         208.000
  22563527.363    -6464844.97049  -5017996.43545  22563526.790    22563539.650
       209.000         146.000
  22993603.220     5799626.68749   4413795.24945  22993603.747    22993619.548
       199.000         135.000
  19594623.075    -5849470.66549  -4549385.36947  19594622.848    19594630.072
       238.000         198.000
  19028532.711    -9142768.05649  -7110486.80447  19028531.888    19028538.326
       243.000         207.000
  22488609.571    -3159089.47849  -2008587.58245  22488609.908    22488623.251
       211.000         146.000
  22866267.050     3531444.86249   2747075.45445  22866265.698    22866275.456
       217.000         152.000
  20212019.698    -3118303.80649  -2424515.59947  20212018.920    20212025.298
       237.000         194.000
 01  6 22 20 15 29.9950000  0 11G14G21G 3G18G 9G 6G17G15G29G26G23
  21698735.767    -7805810.58249  -6032309.49845  21698734.673    21698744.763
       216.000         157.000
  20347729.012   -13656216.16049 -10615360.28547  20347728.654    20347735.877
       240.000         195.000
  20768027.464   -16890564.16349 -13128197.87246  20768026.649    20768034.807
       226.000         174.000
  19297410.005    -6661400.68549  -5030164.35747  19297409.261    19297414.557
       243.000         208.000
  22540356.314    -6586610.95149  -5112878.83745  22540355.779    22540368.363
       210.000         146.000
  23002358.152     5845631.29749   4449642.50245  23002357.000    23002374.795
       198.000         134.000
  19588009.532    -5884226.62249  -4576467.97147  19588008.819    19588016.184
       238.000         197.000
  19017038.841    -9203168.78449  -7157552.32347  19017037.997    19017044.649
       243.000         207.000
  22455606.135    -3332524.08149  -2143731.06745  22455605.904    22455619.753
       210.000         146.000
  22873924.962     3571687.29749   2778433.12345  22873925.122    22873934.250
       217.000         151.000
  20208001.909    -3139416.51749  -2440967.09447  20208001.641    20208007.965
       237.000         194.000
 01  6 22 20 15 59.9950000  0 11G14G21G 3G18G 9G 6G17G15G29G26G23
  21665908.884    -7978315.36549  -6166728.56245  21665908.096    21665919.856
       218.000         158.000
  20328736.508   -13756021.94449 -10693130.99347  20328736.128    20328743.338
       238.000         195.000
  20746720.002   -17002534.55149 -13215447.51046  20746719.911    20746727.118
       225.000         175.000
  19289829.069    -6701238.99949  -5061207.21347  19289828.481    19289833.619
       242.000         208.000
  22517237.438    -6708098.26949  -5207544.09245  22517237.621    22517249.702
       211.000         145.000
  23011109.288     5891619.68349   4485477.14945  23011108.289    23011130.138
       198.000         134.000
  19581448.446    -5918705.54049  -4603334.69947  19581447.643    19581455.419
       238.000         197.000
  19005599.232    -9263284.90249  -7204396.06047  19005598.398    19005604.940
       244.000         207.000
  22422615.659    -3505887.58449  -2278819.13645  22422615.352    22422628.868
       212.000         148.000
  22881609.717     3612071.36449   2809901.18245  22881609.617    22881618.966
       216.000         150.000
  20203997.215    -3160461.83549  -2457366.07347  20203996.485    20204003.479
       236.000         194.000
 01  6 22 20 16 29.9950000  0 11G14G21G 3G18G 9G 6G17G15G29G26G23
  21633114.990    -8150648.87749  -6301014.18945  21633114.851    21633124.039
       219.000         158.000
  20309773.559   -13855674.18749 -10770782.06547  20309773.307    20309780.410
       239.000         195.000
  20725502.859   -17114031.39849 -13302328.16846  20725502.451    20725509.676
       226.000         174.000
  19282288.128    -6740865.59449  -5092085.08947  19282287.579    19282293.070
       242.000         208.000
  22494175.591    -6829289.40549  -5301978.56245  22494174.817    22494187.431
       208.000         145.000
  23019861.272     5937603.86349   4521308.47345  23019860.441    23019876.722
       196.000         133.000
  19574942.833    -5952892.04949  -4629973.57647  19574942.028    19574949.863
       237.000         196.000
  18994216.553    -9323100.70849  -7251005.79047  18994215.819    18994222.662
       243.000         207.000
  22389641.844    -3679162.60949  -2413838.24945  22389641.786    22389654.647
       211.000         149.000
  22889323.708     3652608.93349   2841488.81945  22889322.746    22889332.600
       217.000         149.000
  20200007.851    -3181426.15649  -2473701.93847  20200006.985    20200014.252
       237.000         194.000
 01  6 22 20 16 59.9950000  0 11G14G21G 3G18G 9G 6G17G15G29G26G23
  21600344.578    -8322857.31349  -6435202.36045  21600344.439    21600353.388
       217.000         158.000
  20290830.277   -13955221.83349 -10848351.63847  20290829.485    20290836.923
       239.000         197.000
  20704367.152   -17225101.67249 -13388876.41946  20704366.663    20704374.133
       229.000         178.000
  19274778.564    -6780330.38349  -5122836.89347  19274777.943    19274783.125
       242.000         208.000
  22471161.739    -6950229.81249  -5396217.65545  22471161.124    22471173.967
       207.000         146.000
  23028601.165     5983532.99749   4557096.91744  23028601.286    23028619.502
       195.000         131.000
  19568484.000    -5986834.11249  -4656421.97847  19568483.282    19568490.456
       238.000         196.000
  18982882.173    -9382663.90149  -7297418.68547  18982881.402    18982887.880
       243.000         207.000
  22356676.599    -3852395.65449  -2548824.65645  22356675.939    22356690.583
       209.000         148.000
  22897057.362     3693248.60349   2873156.03145  22897057.001    22897067.744
       214.000         149.000
  20196024.531    -3202359.36549  -2490013.55847  20196023.714    20196030.762
       237.000         193.000
 01  6 22 20 17 29.9950000  0 11G14G21G 3G18G 9G 6G17G15G29G26G23
  21567603.806    -8494910.34749  -6569269.43145  21567603.344    21567613.670
       218.000         159.000
  20271912.066   -14054637.69949 -10925818.51747  20271911.628    20271919.140
       239.000         195.000
  20683317.639   -17335716.12749 -13475069.48146  20683317.197    20683325.210
       226.000         176.000
  19267304.392    -6819607.00349  -5153442.06847  19267303.927    19267309.083
       243.000         208.000
  22448200.624    -7070889.00849  -5490237.62845  22448201.024    22448212.870
       206.000         145.000
  23037335.794     6029431.93958   4592861.83354  23037333.747    23037355.230
       192.000         131.000
  19562077.101    -6020503.52849  -4682657.93447  19562076.479    19562083.761
       238.000         196.000
  18971601.094    -9441946.11849  -7343612.63347  18971600.526    18971606.956
       243.000         207.000
  22323724.851    -4025556.64249  -2683754.92645  22323724.333    22323739.419
       211.000         148.000
  22904814.918     3734015.00749   2904922.00245  22904814.561    22904825.729
       214.000         146.000
  20192051.904    -3223234.82049  -2506280.17647  20192051.220    20192058.347
       237.000         194.000
 01  6 22 20 17 59.9950000  0 11G14G21G 3G18G 9G 6G17G15G29G26G23
  21534900.220    -8666767.77349  -6703184.10245  21534899.081    21534909.711
       219.000         159.000
  20253025.917   -14153884.62949 -11003153.76747  20253025.466    20253033.096
       235.000         192.000
  20662362.704   -17445835.52349 -13560876.80046  20662362.315    20662370.206
       229.000         178.000
  19259873.123    -6858658.82649  -5183872.06847  19259872.489    19259877.635
       243.000         207.000
  22425300.856    -7191226.26849  -5584006.75545  22425299.695    22425313.040
       206.000         145.000
  23046071.606     6075335.91648   4628630.69044  23046071.614    23046088.668
       190.000         131.000
  19555729.351    -6053861.78749  -4708651.41647  19555728.678    19555735.680
       238.000         196.000
  18960381.022    -9500908.54949  -7389557.39247  18960379.996    18960386.860
       244.000         208.000
  22290794.654    -4198605.51449  -2818597.83445  22290794.989    22290807.848
       209.000         149.000
  22912603.205     3774943.07849   2936813.94345  22912603.081    22912611.989
       216.000         145.000
  20188097.490    -3244015.97049  -2522473.30047  20188096.950    20188103.857
       238.000         194.000
 01  6 22 20 18 29.9950000  0 11G14G21G 3G18G 9G 6G17G15G29G26G23
  21502238.127    -8838407.65649  -6836929.25745  21502237.662    21502247.712
       219.000         158.000
  20234175.638   -14252943.82749 -11080342.73147  20234175.173    20234182.540
       240.000         197.000
  20641505.828   -17555439.25549 -13646282.26946  20641505.349    20641513.013
       228.000         178.000
  19252487.897    -6897467.80949  -5214112.86247  19252487.473    19252492.815
       242.000         208.000
  22402467.232    -7311219.37449  -5677507.69945  22402465.965    22402479.408
       208.000         146.000
  23054811.254     6121261.75348   4664416.57844  23054811.773    23054828.646
       188.000         129.000
  19549444.340    -6086888.78949  -4734386.78247  19549443.738    19549451.171
       238.000         196.000
  18949225.505    -9559530.77849  -7435237.06947  18949224.779    18949231.352
       243.000         208.000
  22257889.665    -4371520.56749  -2953336.43145  22257889.634    22257903.525
       211.000         148.000
  22920425.689     3816049.55649   2968844.88645  22920424.123    22920435.972
       213.000         145.000
  20184164.519    -3264684.50649  -2538578.68447  20184163.748    20184170.638
       236.000         193.000
 01  6 22 20 18 59.9950000  0 11G14G21G 3G18G 9G 6G17G15G29G26G23
  21469610.118    -9009869.83749  -6970535.93945  21469609.735    21469618.571
       219.000         159.000
  20215352.860   -14351858.07049 -11157418.72847  20215352.308    20215359.644
       240.000         196.000
  20620739.145   -17664567.76149 -13731317.44546  20620739.065    20620746.628
       228.000         177.000
  19245140.814    -6936077.74149  -5244198.53947  19245140.223    19245145.501
       243.000         208.000
  22379691.117    -7430907.44449  -5770770.97545  22379690.517    22379703.065
       209.000         145.000
  23063546.308     6167164.75948   4700184.63544  23063543.287    23063566.901
       189.000         129.000
  19543214.803    -6119626.38049  -4759896.63047  19543214.211    19543221.329
       239.000         196.000
  18938126.976    -9617854.02249  -7480683.76547  18938126.160    18938132.791
       244.000         208.000
  22225002.695    -4544341.76649  -3088001.91945  22225002.835    22225015.743
       212.000         149.000
  22928273.017     3857289.15549   3000979.61445  22928273.689    22928282.386
       213.000         145.000
  20180244.616    -3285283.62949  -2554629.97847  20180243.982    20180251.462
       236.000         194.000
 01  6 22 20 19 29.9950000  0 11G14G21G 3G18G 9G 6G17G15G29G26G23
  21437022.329    -9181117.25349  -7103975.29045  21437022.152    21437031.245
       219.000         159.000
  20196564.173   -14450593.46949 -11234355.38347  20196563.524    20196570.654
       240.000         197.000
  20600069.979   -17773185.54349 -13815954.66846  20600069.586    20600077.002
       228.000         178.000
  19237837.886    -6974455.18649  -5274103.06347  19237837.347    19237842.398
       242.000         207.000
  22356980.334    -7550253.42649  -5863767.67345  22356980.278    22356991.515
       212.000         147.000
  23072282.964     6213076.85348   4735959.82344  23072283.960    23072300.734
       188.000         129.000
  19537046.835    -6152039.55349  -4785153.69047  19537046.421    19537053.376
       239.000         196.000
  18927092.068    -9675843.11449  -7525870.09247  18927091.396    18927097.673
       244.000         208.000
  22192140.462    -4717032.37749  -3222565.65345  22192140.178    22192153.480
       212.000         150.000
  22936152.010     3898693.34949   3033242.55445  22936151.009    22936162.806
       210.000         144.000
  20176344.204    -3305780.27449  -2570601.41647  20176343.418    20176350.617
       236.000         193.000
 01  6 22 20 19 59.9950000  0 10G14G21G 3G18G 9G17G15G29G26G23
  21404465.267    -9352205.27749  -7237290.42445  21404464.050    21404473.908
       218.000         160.000
  20177797.977   -14549208.93849 -11311198.57847  20177797.478    20177804.646
       238.000         196.000
  20579487.171   -17881349.24949 -13900238.05446  20579486.669    20579494.692
       230.000         178.000
  19230567.912    -7012659.16949  -5303872.41947  19230567.548    19230572.542
       242.000         207.000
  22334323.696    -7669312.24949  -5956540.60445  22334324.016    22334334.608
       206.000         146.000
  19530929.494    -6184185.55849  -4810202.56247  19530929.120    19530936.318
       238.000         196.000
  18916109.884    -9733555.18449  -7570840.56447  18916109.047    18916115.508
       244.000         207.000
  22159292.239    -4889648.04049  -3357070.96345  22159291.060    22159306.942
       210.000         150.000
  22944051.028     3940201.44649   3065586.45945  22944052.312    22944061.987
       211.000         143.000
  20172452.102    -3326233.61849  -2586539.11747  20172451.705    20172458.597
       236.000         193.000
 01  6 22 20 20 29.9950000  0 10G14G21G 3G18G 9G17G15G29G26G23
  21371943.816    -9523104.83049  -7370458.70545  21371943.215    21371953.811
       219.000         161.000
  20159060.029   -14647678.43349 -11387928.02947  20159059.593    20159067.054
       239.000         196.000
  20558996.150   -17989030.67549 -13984145.64346  20558995.844    20559002.769
       228.000         178.000
  19223335.603    -7050664.56349  -5333487.03147  19223335.050    19223340.318
       242.000         207.000
  22311728.338    -7788054.68249  -6049067.01145  22311727.850    22311739.439
       211.000         147.000
  19524868.416    -6216037.40949  -4835022.22847  19524867.832    19524875.017
       238.000         196.000
  18905185.572    -9790962.98249  -7615573.94547  18905184.763    18905191.384
       244.000         208.000
  22126463.690    -5062160.05849  -3491495.53245  22126463.923    22126477.528
       212.000         151.000
  22951974.120     3981836.95949   3098029.65045  22951973.660    22951983.655
       211.000         144.000
  20168573.370    -3346618.11849  -2602423.17047  20168572.799    20168579.410
       237.000         193.000
 01  6 22 20 20 59.9950000  0 10G14G21G 3G18G 9G17G15G29G26G23
  21339471.452    -9693747.26449  -7503426.62745  21339470.109    21339481.448
       219.000         160.000
  20140362.299   -14745935.91949 -11464492.28347  20140361.639    20140369.008
       239.000         196.000
  20538609.495   -18096162.24349 -14067624.77246  20538609.217    20538617.029
       226.000         175.000
  19216153.579    -7088406.43649  -5362896.29847  19216153.096    19216158.152
       242.000         207.000
  22289205.603    -7906411.76649  -6141293.15145  22289204.825    22289217.007
       211.000         147.000
  19518875.907    -6247528.31249  -4859560.63647  19518875.574    19518882.739
       238.000         196.000
  18894331.916    -9847999.17349  -7660017.76047  18894331.121    18894337.617
       244.000         208.000
  22093668.444    -5234499.98749  -3625785.98145  22093668.107    22093680.986
       209.000         151.000
  22959933.443     4023663.35649   3130621.58945  22959933.046    22959941.429
       210.000         141.000
  20164719.632    -3366868.71949  -2618202.88647  20164718.989    20164725.697
       236.000         193.000
 01  6 22 20 21 29.9950000  0 10G14G21G 3G18G 9G17G15G29G26G23
  21307038.608    -9864182.08049  -7636232.76745  21307037.579    21307047.683
       219.000         161.000
  20121694.626   -14844034.53849 -11540932.74247  20121694.005    20121701.647
       239.000         197.000
  20518317.894   -18202795.06249 -14150715.25246  20518317.530    20518325.901
       228.000         178.000
  19209011.584    -7125937.95949  -5392141.65147  19209011.131    19209016.107
       242.000         207.000
  22266746.133    -8024432.70949  -6233257.36045  22266745.552    22266757.964
       209.000         146.000
  19512942.103    -6278709.91349  -4883858.03247  19512941.121    19512949.061
       237.000         195.000
  18883539.315    -9904715.11249  -7704212.03447  18883538.381    18883545.050
       244.000         207.000
  22060896.095    -5406717.56549  -3759981.10045  22060894.585    22060909.090
       210.000         150.000
  22967918.454     4065625.66249   3163319.40245  22967917.305    22967928.466
       211.000         142.000
  20160881.394    -3387038.72449  -2633919.80347  20160880.881    20160887.523
       236.000         193.000
 01  6 22 20 21 59.9950000  0 10G14G21G 3G18G 9G17G15G29G26G23
  21274640.415   -10034435.19749  -7768897.33245  21274640.204    21274649.562
       221.000         161.000
  20103051.937   -14942002.95749 -11617271.75547  20103051.299    20103058.595
       240.000         197.000
  20498116.529   -18308955.84249 -14233437.91846  20498115.689    20498123.795
       228.000         179.000
  19201903.966    -7163288.79749  -5421246.22447  19201903.424    19201908.691
       242.000         207.000
  22244347.159    -8142143.20349  -6324979.66245  22244347.188    22244358.440
       209.000         147.000
  19507062.035    -6309610.00749  -4907936.08147  19507061.412    19507069.187
       237.000         195.000
  18872802.301    -9961138.01849  -7748177.97347  18872801.421    18872808.267
       243.000         207.000
  22028141.923    -5578838.88449  -3894101.19245  22028142.170    22028155.406
       210.000         150.000
  22975923.817     4107692.66249   3196098.82045  22975924.140    22975934.613
       208.000         141.000
  20157052.848    -3407157.38249  -2649596.71147  20157052.358    20157059.399
       236.000         193.000
 01  6 22 20 22 29.9950000  0 10G14G21G 3G18G 9G17G15G29G26G23
  21242284.858   -10204463.67449  -7901386.84745  21242284.194    21242294.214
       220.000         161.000
  20084441.497   -15039801.49649 -11693478.39147  20084440.912    20084448.083
       239.000         197.000
  20478012.638   -18414602.76949 -14315760.17746  20478012.395    20478019.226
       230.000         179.000
  19194838.259    -7200419.52649  -5450179.27247  19194837.809    19194843.220
       242.000         207.000
  22222014.710    -8259499.42249  -6416425.91445  22222013.696    22222025.677
       212.000         148.000
  19501243.531    -6340187.14349  -4931762.47547  19501242.708    19501250.491
       237.000         195.000
  18862129.191   -10017226.58049  -7791883.38647  18862128.493    18862135.078
       244.000         207.000
  21995414.235    -5750820.86449  -4028112.71345  21995414.303    21995428.383
       207.000         149.000
  22983956.120     4149902.34249   3228989.34845  22983956.996    22983965.504
       209.000         143.000
  20153242.025    -3427184.92749  -2665202.62247  20153240.987    20153248.139
       236.000         193.000
 01  6 22 20 22 59.9940000  0  9G14G21G 3G18G 9G17G15G29G23
  21209971.715   -10374270.56749  -8033703.69845  21209971.613    21209980.913
       219.000         160.000
  20065861.836   -15137437.99649 -11769558.76647  20065861.106    20065868.382
       239.000         197.000
  20458005.332   -18519742.04249 -14397686.87246  20458004.675    20458012.628
       231.000         180.000
  19187812.289    -7237341.56549  -5478949.71447  19187811.732    19187817.044
       241.000         206.000
  22199748.800    -8376505.89849  -6507599.64045  22199748.599    22199760.801
       209.000         146.000
  19495484.704    -6370451.22449  -4955344.92547  19495484.077    19495491.630
       238.000         195.000
  18851517.772   -10072989.24449  -7835334.85047  18851517.146    18851523.771
       244.000         208.000
  21962712.646    -5922666.74349  -4162018.20445  21962713.390    21962726.230
       206.000         148.000
  20149445.894    -3447133.09449  -2680746.68147  20149445.101    20149452.504
       237.000         194.000
 01  6 22 20 23 29.9940000  0  9G14G21G 3G18G 9G17G15G29G23
  21177704.814   -10543833.70449  -8165830.60946  21177704.793    21177713.606
       221.000         163.000
  20047317.650   -15234888.85249 -11845494.47347  20047316.793    20047324.676
       238.000         196.000
  20438099.248   -18624348.56949 -14479198.44846  20438098.837    20438106.757
       234.000         181.000
  19180831.110    -7274027.42849  -5507536.12047  19180830.765    19180835.903
       242.000         207.000
  22177554.819    -8493136.52049  -6598480.51245  22177554.445    22177566.146
       209.000         148.000
  19489790.781    -6400372.56949  -4978660.31647  19489790.306    19489797.981
       237.000         195.000
  18840973.983   -10128397.67849  -7878510.28847  18840973.230    18840980.157
       243.000         207.000
  21930041.530    -6094354.77149  -4295800.66845  21930041.096    21930055.610
       210.000         149.000
  20145670.553    -3466973.26649  -2696206.58647  20145669.689    20145676.947
       236.000         192.000
 01  6 22 20 23 59.9940000  0  9G14G21G 3G18G 9G17G15G29G23
  21145481.694   -10713168.38549  -8297779.49546  21145480.168    21145490.649
       223.000         164.000
  20028804.621   -15332174.91949 -11921301.76847  20028803.935    20028811.435
       241.000         197.000
  20418291.157   -18728441.05549 -14560309.45746  20418290.502    20418298.372
       232.000         180.000
  19173890.494    -7310500.79749  -5535956.94247  19173889.953    19173895.435
       243.000         207.000
  22155428.404    -8609408.26649  -6689081.71445  22155427.928    22155439.619
       208.000         147.000
  19484157.912    -6429973.20249  -5001725.79647  19484157.201    19484165.058
       236.000         195.000
  18830493.448   -10183473.00249  -7921426.15547  18830492.605    18830499.338
       243.000         207.000
  21897397.715    -6265900.36949  -4429472.17645  21897397.334    21897410.744
       214.000         151.000
  20141910.869    -3486729.38049  -2711600.98747  20141910.341    20141917.466
       236.000         192.000
 01  6 22 20 24 29.9940000  0  9G14G21G 3G18G 9G17G15G29G23
  21113299.666   -10882284.80149  -8429558.32646  21113299.083    21113307.748
       222.000         165.000
  20010320.383   -15429309.93049 -11996991.36247  20010320.086    20010326.962
       240.000         197.000
  20398578.469   -18832031.01749 -14641028.89346  20398577.964    20398585.494
       231.000         181.000
  19166987.704    -7346775.42249  -5564222.89547  19166987.378    19166992.686
       242.000         207.000
  22133369.075    -8725330.83749  -6779410.84745  22133368.939    22133379.462
       207.000         147.000
  19478583.960    -6459265.24949  -5024550.82447  19478583.343    19478590.985
       236.000         195.000
  18820074.286   -10238226.78749  -7964091.47747  18820073.683    18820080.373
       243.000         207.000
  21864778.591    -6437313.91449  -4563040.78145  21864778.229    21864791.069
       213.000         153.000
  20138164.905    -3506415.09949  -2726940.53647  20138164.382    20138171.129
       235.000         192.000
 01  6 22 20 24 59.9940000  0  9G14G21G 3G18G 9G17G15G29G23
  21081158.551   -11051186.34849  -8561169.70946  21081157.808    21081166.280
       220.000         165.000
  19991863.852   -15526299.95749 -12072567.99047  19991863.438    19991870.466
       240.000         198.000
  20378960.963   -18935122.97949 -14721360.27546  20378960.345    20378967.637
       231.000         181.000
  19160121.333    -7382858.42349  -5592339.54547  19160120.777    19160126.176
       242.000         207.000
  22111376.000    -8840907.64749  -6869470.54945  22111375.114    22111387.822
       208.000         147.000
  19473067.494    -6488254.11749  -5047139.60847  19473066.917    19473074.276
       236.000         195.000
  18809715.187   -10292664.06849  -8006510.17147  18809714.348    18809721.135
       243.000         207.000
  21832183.405    -6608599.05749  -4696509.32045  21832183.585    21832196.083
       213.000         151.000
  20134431.028    -3526037.39749  -2742230.66247  20134430.384    20134437.443
       235.000         191.000
 01  6 22 20 25 29.9940000  0  9G14G21G 3G18G 9G17G15G29G23
  21049059.659   -11219865.61049  -8692607.89446  21049058.998    21049067.176
       221.000         163.000
  19973435.824   -15623140.65449 -12148028.25247  19973435.200    19973442.063
       240.000         198.000
  20359439.171   -19037710.84949 -14801298.86746  20359438.749    20359445.906
       230.000         180.000
  19153292.379    -7418745.79349  -5620303.75147  19153291.814    19153296.992
       242.000         207.000
  22089449.727    -8956130.89349  -6959254.77945  22089449.556    22089460.665
       210.000         148.000
  19467610.175    -6516934.16849  -5069487.76647  19467610.002    19467616.637
       236.000         195.000
  18799417.510   -10346778.87549  -8048677.58647  18799416.515    18799423.570
       243.000         207.000
  21799614.669    -6779748.54249  -4829872.18345  21799613.756    21799627.222
       208.000         150.000
  20130709.878    -3545592.20749  -2757468.20547  20130709.201    20130716.189
       235.000         191.000
 01  6 22 20 25 59.9940000  0  9G14G21G 3G18G 9G17G15G29G23
  21017001.462   -11388331.09349  -8823879.49746  21017000.611    21017009.914
       221.000         164.000
  19955033.680   -15719843.30449 -12223380.95047  19955033.081    19955040.453
       241.000         198.000
  20340011.338   -19139804.41949 -14880852.28346  20340010.675    20340018.198
       230.000         181.000
  19146498.108    -7454449.89049  -5648125.14547  19146497.447    19146502.934
       243.000         207.000
  22067588.637    -9071008.54849  -7048769.70445  22067588.466    22067600.346
       210.000         146.000
  19462209.182    -6545315.94749  -5091603.50247  19462208.447    19462216.116
       235.000         194.000
  18789179.218   -10400581.32549  -8090601.60547  18789178.409    18789185.334
       244.000         207.000
  21767069.589    -6950770.83849  -4963135.92145  21767069.858    21767082.089
       205.000         150.000
  20126999.227    -3565091.48749  -2772662.47847  20126998.460    20127005.700
       234.000         191.000
 01  6 22 20 26 29.9940000  0  9G14G21G 3G18G 9G17G15G29G23
  20984992.308   -11556539.69149  -8954950.94146  20984991.768    20985001.384
       220.000         164.000
  19936665.838   -15816367.96149 -12298594.93747  19936665.449    19936672.504
       239.000         195.000
  20320685.510   -19241362.00949 -14959988.05846  20320685.513    20320692.568
       231.000         179.000
  19139746.187    -7489931.31949  -5675773.03047  19139745.685    19139750.929
       243.000         207.000
  22045801.757    -9185497.60949  -7137981.80445  22045802.158    22045811.941
       207.000         144.000
  19456872.962    -6573358.50549  -5113454.90747  19456872.168    19456880.083
       236.000         194.000
  18779008.367   -10454030.36249  -8132250.23347  18779007.581    18779014.359
       243.000         207.000
  21734556.830    -7121623.65549  -5096267.61845  21734556.391    21734569.515
       208.000         149.000
  20123306.647    -3584495.97749  -2787782.89647  20123306.146    20123313.196
       235.000         191.000
 01  6 22 20 26 59.9940000  0  9G14G21G 3G18G 9G17G15G29G23
  20953037.229   -11724464.31049  -9085801.09746  20953036.707    20953045.619
       221.000         165.000
  19918336.252   -15912690.40449 -12373651.36747  19918335.546    19918342.828
       240.000         197.000
  20301466.793   -19342357.90549 -15038686.16046  20301466.156    20301473.685
       231.000         180.000
  19133041.090    -7525166.62649  -5703229.13247  19133040.535    19133045.865
       243.000         207.000
  22024094.503    -9299570.56249  -7226869.67445  22024093.454    22024105.524
       207.000         147.000
  19451606.132    -6601036.83049  -5135022.49747  19451605.379    19451612.958
       236.000         195.000
  18768909.423   -10507100.51149  -8173603.62247  18768908.646    18768915.334
       244.000         207.000
  21702082.181    -7292279.63849  -5229245.92345  21702081.496    21702094.503
       204.000         149.000
  20119636.803    -3603781.75849  -2802810.79847  20119636.201    20119643.094
       235.000         191.000
 01  6 22 20 27 29.9940000  0  9G14G21G 3G18G 9G17G15G29G23
  20921124.798   -11892164.81949  -9216476.63546  20921124.056    20921133.116
       220.000         166.000
  19900033.052   -16008873.87349 -12448599.50047  19900032.600    19900039.504
       239.000         196.000
  20282343.083   -19442852.97349 -15116993.99846  20282342.453    20282349.882
       230.000         181.000
  19126370.890    -7560219.20049  -5730542.84347  19126370.239    19126375.623
       243.000         207.000
  22002454.784    -9413286.68649  -7315479.51145  22002454.157    22002465.048
       207.000         146.000
  19446396.733    -6628412.24149  -5156354.05747  19446396.353    19446403.700
       236.000         194.000
  18758870.986   -10559852.81349  -8214709.33847  18758870.300    18758877.275
       243.000         206.000
  21669633.245    -7462798.71849  -5362117.56445  21669633.383    21669646.365
       207.000         149.000
  20115977.518    -3623011.97249  -2817795.41247  20115976.604    20115984.013
       235.000         191.000
 01  6 22 20 27 59.9940000  0  9G14G21G 3G18G 9G17G15G29G23
  20889266.187   -12059581.74249  -9346931.18546  20889265.607    20889275.381
       220.000         166.000
  19881767.248   -16104861.71449 -12523395.19147  19881766.749    19881773.892
       239.000         197.000
  20263325.659   -19542789.44949 -15194866.56946  20263325.466    20263332.673
       231.000         181.000
  19119746.070    -7595033.26649  -5757670.69947  19119745.399    19119750.640
       242.000         206.000
  21980894.222    -9526586.42649  -7403764.89345  21980894.336    21980906.166
       205.000         146.000
  19441255.911    -6655427.57749  -5177405.03047  19441255.069    19441262.617
       235.000         194.000
  18748903.981   -10612229.89149  -8255522.66847  18748903.231    18748910.122
       243.000         207.000
  21637221.975    -7633121.88149  -5494836.54445  21637221.450    21637233.928
       207.000         152.000
  20112339.214    -3642130.75349  -2832693.19247  20112338.710    20112345.524
       234.000         191.000
 01  6 22 20 28 29.9940000  0  9G14G21G 3G18G 9G17G15G29G23
  20857460.687   -12226720.88449  -9477169.31846  20857459.501    20857468.722
       222.000         166.000
  19863536.692   -16200662.73449 -12598045.31747  19863536.361    19863543.549
       240.000         197.000
  20244413.338   -19642174.58049 -15272309.53246  20244413.093    20244420.213
       232.000         183.000
  19113164.607    -7629618.40849  -5784620.17747  19113164.142    19113169.517
       242.000         205.000
  21959412.538    -9639475.40849  -7491730.21345  21959412.776    21959423.101
       209.000         147.000
  19436182.031    -6682090.71449  -5198181.56947  19436181.636    19436189.152
       235.000         192.000
  18739007.053   -10664239.02049  -8296049.28947  18739006.288    18739012.937
       243.000         207.000
  21604846.559    -7803255.26349  -5627407.66945  21604846.070    21604858.206
       207.000         151.000
  20108720.638    -3661147.43949  -2847511.42247  20108720.123    20108726.894
       235.000         190.000
 01  6 22 20 28 59.9940000  0  9G14G21G 3G18G 9G17G15G29G23
  20825701.265   -12393615.71149  -9607217.06546  20825701.064    20825709.484
       224.000         168.000
  19845335.100   -16296313.61149 -12672578.44347  19845334.420    19845341.718
       239.000         196.000
  20225599.286   -19741042.53949 -15349349.48946  20225599.162    20225606.333
       232.000         182.000
  19106619.873    -7664011.16549  -5811419.74147  19106619.436    19106624.683
       242.000         205.000
  21938002.028    -9751986.89249  -7579401.36545  21938002.907    21938013.326
       211.000         148.000
  19431168.617    -6708436.84549  -5218711.08547  19431167.938    19431175.774
       234.000         192.000
  18729173.532   -10715915.25249  -8336316.50547  18729172.728    18729179.429
       244.000         206.000
  21572500.077    -7973232.11949  -5759856.82745  21572500.576    21572512.392
       206.000         152.000
  20105114.365    -3680098.60149  -2862278.59747  20105113.820    20105120.835
       234.000         190.000
 01  6 22 20 29 29.9940000  0  9G14G21G 3G18G 9G17G15G29G23
  20793998.827   -12560213.94649  -9737033.73146  20793997.528    20794006.716
       223.000         170.000
  19827171.357   -16391764.48149 -12746955.72447  19827170.739    19827177.688
       238.000         195.000
  20206893.390   -19839343.10849 -15425947.32446  20206892.926    20206900.305
       233.000         183.000
  19100121.060    -7698163.41049  -5838031.89747  19100120.668    19100125.776
       242.000         205.000
  21916674.171    -9864068.34749  -7666737.43345  21916673.842    21916685.380
       213.000         150.000
  19426225.087    -6734415.80549  -5238954.50147  19426224.918    19426232.038
       234.000         192.000
  18719412.806   -10767208.00549  -8376284.91047  18719412.042    18719418.699
       243.000         206.000
  21540194.447    -8143000.50849  -5892143.55345  21540193.838    21540206.353
       214.000         155.000
  20101529.834    -3698935.55249  -2876956.77147  20101529.296    20101535.644
       234.000         190.000
 01  6 22 20 29 59.9940000  0  9G14G21G 3G18G 9G17G15G29G23
  20762350.236   -12726528.20549  -9866629.09646  20762350.215    20762358.229
       225.000         168.000
  19809042.578   -16487030.95349 -12821189.31547  19809041.999    19809049.019
       240.000         196.000
  20188292.929   -19937090.03149 -15502113.74846  20188292.366    20188299.614
       231.000         182.000
  19093664.849    -7732090.94349  -5864468.94447  19093664.443    19093669.579
       242.000         205.000
  21895424.751    -9975732.18249  -7753748.08445  21895424.671    21895436.326
       210.000         150.000
  19421348.686    -6760042.14049  -5258923.13847  19421348.148    19421355.211
       234.000         191.000
  18709722.396   -10818131.42349  -8415965.51347  18709721.536    18709728.331
       243.000         206.000
  21507925.098    -8312573.15149  -6024277.73945  21507925.728    21507937.815
       212.000         152.000
  20097964.097    -3717673.96349  -2891558.15747  20097963.195    20097970.208
       234.000         189.000
 01  6 22 20 30 29.9940000  0  9G14G21G 3G18G 9G17G15G29G23
  20730758.604   -12892541.20149  -9995989.72346  20730758.173    20730767.498
       223.000         167.000
  19790951.803   -16582099.35149 -12895268.56547  19790951.300    19790958.347
       239.000         197.000
  20169800.398   -20034267.56249 -15577836.50046  20169799.951    20169807.581
       229.000         183.000
  19087253.968    -7765780.30349  -5890720.41447  19087253.563    19087258.817
       242.000         205.000
  21874258.761   -10086961.00649  -7840419.78845  21874257.946    21874269.660
       210.000         149.000
  19416542.177    -6785300.69249  -5278605.19447  19416541.815    19416549.413
       235.000         192.000
  18700105.211   -10868669.82949  -8455346.12347  18700104.583    18700111.152
       242.000         206.000
  21475696.657    -8481933.25149  -6156246.34045  21475696.225    21475708.533
       211.000         151.000
  20094419.550    -3736300.15649  -2906072.11247  20094418.968    20094425.813
       235.000         189.000
 01  6 22 20 30 59.9940000  0  9G14G21G 3G18G 9G17G15G29G23
  20699228.620   -13058232.85949 -10125099.97246  20699228.182    20699236.678
       222.000         170.000
  19772901.860   -16676952.70249 -12969180.24447  19772901.241    19772908.174
       239.000         196.000
  20151420.178   -20130857.00049 -15653100.98146  20151419.621    20151426.619
       231.000         184.000
  19080891.592    -7799214.87749  -5916773.33647  19080891.018    19080896.156
       242.000         205.000
  21853178.871   -10197734.69049  -7926736.81045  21853178.391    21853189.512
       209.000         150.000
  19411809.308    -6810173.28449  -5297986.49647  19411808.612    19411815.877
       235.000         192.000
  18690564.885   -10918804.89349  -8494412.42947  18690564.122    18690570.854
       243.000         206.000
  21443512.371    -8651060.58649  -6288033.55745  21443512.313    21443525.045
       209.000         152.000
  20090899.670    -3754797.50749  -2920485.65547  20090899.178    20090906.043
       234.000         188.000
 01  6 22 20 31 29.9940000  0  9G14G21G 3G18G 9G17G15G29G23
  20667758.797   -13223607.38049 -10253963.10146  20667758.132    20667766.782
       224.000         170.000
  19754891.574   -16771597.24249 -13042929.20847  19754890.790    19754898.200
       240.000         197.000
  20133150.436   -20226864.09249 -15727911.68846  20133149.945    20133158.159
       231.000         182.000
  19074576.255    -7832402.43249  -5942633.78047  19074575.669    19074580.924
       242.000         205.000
  21832185.134   -10308056.72249  -8012701.90245  21832184.709    21832196.556
       211.000         149.000
  19407148.432    -6834666.10849  -5317071.87147  19407147.809    19407155.250
       235.000         192.000
  18681100.134   -10968542.32549  -8533168.88947  18681099.320    18681106.101
       243.000         206.000
  21411372.361    -8819959.65349  -6419642.92645  21411372.012    21411384.175
       210.000         154.000
  20087402.790    -3773173.40449  -2934804.56547  20087402.095    20087409.045
       235.000         188.000
 01  6 22 20 31 59.9940000  0  9G14G21G 3G18G 9G17G15G29G23
  20636337.742   -13388724.75549 -10382625.86446  20636337.436    20636346.483
       224.000         170.000
  19736908.824   -16866096.14549 -13116564.69347  19736908.261    19736915.796
       240.000         197.000
  20114980.166   -20322350.20549 -15802316.44646  20114979.910    20114987.321
       231.000         183.000
  19068295.690    -7865406.48449  -5968351.22947  19068295.372    19068300.629
       242.000         205.000
  21811266.588   -10417986.98849  -8098361.70945  21811265.919    21811276.905
       213.000         151.000
  19402548.156    -6858841.09649  -5335909.58447  19402547.431    19402555.139
       235.000         192.000
  18671699.416   -11017943.67649  -8571663.47447  18671698.578    18671705.348
       242.000         206.000
  21379263.772    -8988690.45349  -6551121.15545  21379263.686    21379274.833
       214.000         153.000
  20083917.115    -3791490.84049  -2949077.93147  20083917.093    20083923.516
       233.000         188.000
 01  6 22 20 32 29.9940000  0  9G14G21G 3G18G 9G17G15G29G23
  20604977.842   -13553523.23949 -10511040.15846  20604977.455    20604985.544
       224.000         173.000
  19718965.251   -16960390.97349 -13190041.16547  19718964.747    19718971.667
       240.000         197.000
  20096920.425   -20417255.19049 -15876268.37446  20096919.922    20096927.349
       232.000         184.000
  19062061.375    -7898168.84149  -5993880.36047  19062060.870    19062066.013
       242.000         206.000
  21790433.211   -10527463.53149  -8183667.98145  21790433.009    21790443.688
       210.000         150.000
  19398019.736    -6882638.56649  -5354453.14247  19398019.491    19398026.696
       235.000         192.000
  18662374.077   -11066949.06049  -8609849.51147  18662373.071    18662380.085
       242.000         205.000
  21347198.717    -9157191.38649  -6682420.32345  21347198.285    21347210.089
       214.000         156.000
  20080453.808    -3809691.43049  -2963260.24347  20080452.935    20080460.494
       234.000         188.000
 01  6 22 20 32 59.9940000  0  9G14G21G 3G18G 9G17G15G29G23
  20573681.329   -13717985.55149 -10639192.49646  20573680.920    20573689.592
       224.000         170.000
  19701063.211   -17054466.78249 -13263346.97347  19701062.644    19701069.818
       240.000         197.000
  20078974.242   -20511562.98949 -15949754.97646  20078974.024    20078981.455
       234.000         185.000
  19055875.582    -7930675.63249  -6019210.33647  19055875.055    19055880.373
       242.000         205.000
  21769690.268   -10636468.86949  -8268607.07545  21769689.954    21769701.243
       214.000         151.000
  19393565.920    -6906043.15749  -5372690.54847  19393565.326    19393573.104
       233.000         191.000
  18653126.853   -11115542.63449  -8647714.65747  18653126.116    18653132.913
       242.000         205.000
  21315180.595    -9325445.44349  -6813527.06845  21315180.491    21315192.825
       212.000         155.000
  20077015.353    -3827761.01349  -2977340.48347  20077014.775    20077021.853
       233.000         188.000
 01  6 22 20 33 29.9940000  0  9G14G21G 3G18G 9G17G15G29G23
  20542451.272   -13882100.49649 -10767074.15346  20542451.458    20542459.349
       227.000         171.000
  19683204.282   -17148315.81349 -13336476.06347  19683203.824    19683211.051
       240.000         198.000
  20061143.504   -20605264.02949 -16022768.77046  20061143.290    20061150.389
       232.000         183.000
  19049739.671    -7962919.39749  -6044335.35947  19049739.188    19049744.469
       242.000         205.000
  21749039.178   -10744991.70649  -8353170.17945  21749038.975    21749049.486
       213.000         153.000
  19389188.720    -6929045.80949  -5390614.74347  19389188.087    19389195.767
       234.000         192.000
  18643960.006   -11163714.95349  -8685251.54847  18643959.283    18643965.993
       242.000         205.000
  21283211.795    -9493441.63649  -6944432.92345  21283211.406    21283224.317
       214.000         156.000
  20073603.134    -3845692.04349  -2991312.75147  20073602.342    20073609.138
       234.000         188.000
 01  6 22 20 33 59.9940000  0  9G14G21G 3G18G 9G17G15G29G23
  20511278.544   -14045915.33049 -10894721.96946  20511277.931    20511286.904
       227.000         174.000
  19665378.901   -17241988.37149 -13409467.63547  19665378.405    19665385.116
       240.000         197.000
  20043418.883   -20698407.13049 -16095347.80046  20043418.071    20043426.213
       230.000         184.000
  19043644.378    -7994950.63849  -6069294.77747  19043643.699    19043649.049
       241.000         205.000
  21728470.590   -10853079.25949  -8437394.09645  21728469.666    21728481.170
       211.000         150.000
  19384878.604    -6951695.80449  -5408264.15047  19384877.985    19384885.494
       234.000         192.000
  18634864.106   -11211514.71049  -8722498.13347  18634863.284    18634870.083
       242.000         205.000
  21251282.888    -9661227.28149  -7075174.71045  21251283.248    21251294.736
       214.000         157.000
  20070207.734    -3863534.89749  -3005216.31346  20070206.855    20070214.055
       234.000         187.000
 01  6 22 20 34 29.9930000  0  9G14G21G 3G18G 9G17G15G29G23
  20480152.484   -14209482.52449 -11022176.81646  20480152.539    20480160.507
       227.000         175.000
  19647576.164   -17335542.32549 -13482366.79947  19647575.934    19647582.444
       239.000         196.000
  20025789.661   -20791049.00549 -16167536.27046  20025789.337    20025797.150
       231.000         185.000
  19037577.980    -8026829.88849  -6094135.76547  19037577.437    19037582.665
       242.000         205.000
  21707974.134   -10960785.69049  -8521321.05145  21707973.876    21707985.305
       209.000         150.000
  19380624.527    -6974052.19049  -5425684.77447  19380623.680    19380631.518
       235.000         192.000
  18625827.916   -11259000.04449  -8759499.71547  18625827.285    18625833.794
       242.000         205.000
  21219384.331    -9828855.09249  -7205793.50345  21219384.234    21219395.677
       215.000         158.000
  20066817.797    -3881350.05049  -3019098.28846  20066817.235    20066823.834
       234.000         187.000
 01  6 22 20 34 59.9930000  0  9G14G21G 3G18G 9G17G15G29G23
  20449095.617   -14372688.52449 -11149350.21646  20449095.399    20449103.026
       225.000         172.000
  19629818.289   -17428861.82249 -13555083.28247  19629817.625    19629824.254
       240.000         197.000
  20008278.166   -20883072.93649 -16239243.23846  20008277.492    20008285.441
       233.000         187.000
  19031563.289    -8058438.11249  -6118765.55647  19031562.755    19031568.048
       242.000         205.000
  21687573.416   -11067993.56349  -8604859.50845  21687573.539    21687583.549
       211.000         150.000
  19376449.072    -6995994.13549  -5442782.44347  19376448.024    19376455.828
       234.000         190.000
  18616874.341   -11306051.41049  -8796163.13947  18616873.561    18616880.225
       242.000         205.000
  21187537.284    -9996211.77049  -7336201.03745  21187537.179    21187548.972
       215.000         157.000
  20063455.872    -3899017.40449  -3032865.09947  20063454.984    20063462.412
       234.000         188.000
 01  6 22 20 35 29.9930000  0 10G14G21G 3G18G 9G17G15G29G23G31
  20418094.798   -14535598.20149 -11276292.70746  20418094.590    20418101.809
       227.000         174.000
  19612091.144   -17522017.14849 -13627671.82347  19612090.581    19612097.539
       240.000         198.000
  19990871.012   -20974547.44449 -16310522.08746  19990870.575    19990878.357
       231.000         185.000
  19025585.973    -8089848.14049  -6143240.91447  19025585.567    19025590.811
       241.000         204.000
  21667254.665   -11174769.24449  -8688061.18745  21667253.375    21667264.888
       210.000         151.000
  19372338.730    -7017593.22349  -5459612.96347  19372338.305    19372345.857
       234.000         190.000
  18607990.028   -11352739.09249  -8832543.17347  18607989.310    18607996.151
       242.000         205.000
  21155729.345   -10163362.20849  -7466447.86845  21155729.633    21155740.042
       217.000         158.000
  20060108.067    -3916610.08549  -3046573.72447  20060107.578    20060114.393
       233.000         188.000
  22082901.449     -302446.89855                                  22082911.035
       203.000         143.000
 01  6 22 20 35 59.9930000  0 10G14G21G 3G18G 9G17G15G29G23G31
  20387149.791   -14698214.52349 -11403006.62546  20387149.046    20387158.061
       227.000         175.000
  19594394.386   -17615014.10349 -13700136.95747  19594393.898    19594401.102
       239.000         197.000
  19973567.755   -21065476.96749 -16381376.26246  19973567.359    19973575.109
       231.000         186.000
  19019645.392    -8121066.30949  -6167566.77847  19019644.831    19019650.016
       241.000         205.000
  21647016.949   -11281115.66349  -8770928.39045  21647016.580    21647027.739
       211.000         151.000
  19368293.043    -7038854.40549  -5476180.17247  19368292.615    19368299.892
       234.000         191.000
  18599174.057   -11399067.73149  -8868643.43247  18599173.201    18599179.911
       241.000         205.000
  21123960.422   -10330309.48949  -7596536.39945  21123960.406    21123971.610
       217.000         158.000
  20056773.567    -3934133.85549  -3060228.65047  20056772.462    20056779.980
       233.000         188.000
  22055422.786     -565595.01749   -414967.39645  22055422.005    22055431.966
       205.000         143.000
 01  6 22 20 36 29.9930000  0 10G14G21G 3G18G 9G17G15G29G23G31
  20356268.123   -14860498.19949 -11529461.32046  20356267.902    20356275.496
       229.000         176.000
  19576734.578   -17707816.60549 -13772450.58047  19576734.087    19576740.899
       239.000         197.000
  19956375.234   -21155824.21949 -16451776.72546  19956374.433    19956382.154
       231.000         185.000
  19013748.068    -8152056.98549  -6191715.37147  19013747.578    19013752.558
       241.000         204.000
  21626869.168   -11386993.69349  -8853430.61245  21626869.075    21626880.038
       211.000         151.000
  19364318.573    -7059740.34349  -5492454.97047  19364317.972    19364325.370
       234.000         191.000
  18590433.505   -11444999.82849  -8904434.70047  18590432.554    18590439.277
       243.000         206.000
  21092237.296   -10497014.55249  -7726436.18945  21092237.016    21092247.983
       220.000         159.000
  20053458.692    -3951552.96849  -3073802.03446  20053457.932    20053465.173
       234.000         187.000
  22028023.259     -709580.53149   -527163.80545  22028022.806    22028032.418
       205.000         142.000
 01  6 22 20 36 59.9930000  0 10G14G21G 3G18G 9G17G15G29G23G31
  20325450.800   -15022443.36949 -11655652.25746  20325450.176    20325458.853
       227.000         173.000
  19559112.572   -17800421.53749 -13844610.24447  19559111.763    19559119.050
       239.000         197.000
  19939294.516   -21245584.67649 -16521719.93146  19939294.039    19939301.465
       232.000         185.000
  19007894.633    -8182817.33049  -6215684.48547  19007894.054    19007899.281
       242.000         204.000
  21606811.315   -11492397.07549  -8935562.99145  21606810.299    21606822.097
       210.000         150.000
  19360416.302    -7080247.25849  -5508434.43947  19360416.026    19360423.349
       234.000         190.000
  18581769.130   -11490531.03749  -8939913.58147  18581768.443    18581775.300
       242.000         205.000
  21060561.369   -10663471.70249  -7856142.80845  21060561.247    21060570.832
       219.000         158.000
  20050164.646    -3968864.58149  -3087291.65046  20050163.864    20050170.860
       233.000         187.000
  22000704.233     -853144.15959   -639031.53755  22000703.435    22000712.883
       209.000         148.000
 01  6 22 20 37 29.9930000  0 10G14G21G 3G18G 9G17G15G29G23G31
  20294695.440   -15184064.71849 -11781590.86746  20294694.557    20294703.299
       228.000         175.000
  19541524.834   -17892845.54649 -13916628.93247  19541524.058    19541531.406
       240.000         198.000
  19922322.271   -21334774.70849 -16591218.67646  19922321.770    19922329.528
       232.000         185.000
  19002081.336    -8213365.52649  -6239488.29247  19002081.020    19002085.994
       241.000         204.000
  21586841.074   -11597340.38149  -9017336.88445  21586840.734    21586852.794
       208.000         150.000
  19356582.888    -7100391.84749  -5524131.57547  19356582.465    19356590.086
       234.000         190.000
  18573178.172   -11535677.50549  -8975092.67147  18573177.467    18573183.968
       242.000         205.000
  21028929.898   -10829695.50449  -7985667.59545  21028929.336    21028940.113
       217.000         159.000
  20046887.409    -3986086.24549  -3100711.18146  20046886.617    20046893.597
       233.000         187.000
  21973462.883     -996300.74449   -750582.05445  21973462.758    21973470.627
       208.000         148.000
 01  6 22 20 37 59.9930000  0 10G14G21G 3G18G 9G17G15G29G23G31
  20263993.689   -15345401.62849 -11907307.83546  20263993.027    20264001.023
       228.000         176.000
  19523963.134   -17985131.36949 -13988539.93047  19523962.737    19523969.641
       240.000         197.000
  19905450.609   -21423435.27549 -16660304.84546  19905450.484    19905458.153
       231.000         186.000
  18996300.580    -8243744.58549  -6263160.30847  18996299.978    18996305.082
       241.000         204.000
  21566951.706   -11701863.03149  -9098782.97345  21566951.138    21566961.984
       211.000         151.000
  19352810.547    -7120215.49649  -5539578.63247  19352810.157    19352817.869
       234.000         190.000
  18564652.328   -11580480.34349  -9010003.99647  18564651.667    18564658.153
       243.000         205.000
  20997335.372   -10995725.60049  -8115041.44945  20997335.633    20997346.376
       219.000         160.000
  20043619.312    -4003260.65849  -3114093.88846  20043618.506    20043625.460
       234.000         187.000
  21946290.456    -1139089.53949   -861845.93345  21946289.965    21946300.413
       202.000         143.000
 01  6 22 20 38 29.9930000  0 10G14G21G 3G18G 9G17G15G29G23G31
  20233352.035   -15506423.38949 -12032779.22446  20233351.386    20233359.770
       228.000         176.000
  19506433.406   -18077251.26349 -14060321.63747  19506433.048    19506439.784
       239.000         197.000
  19888685.398   -21511537.57549 -16728955.99646  19888685.266    19888692.551
       232.000         186.000
  18990556.972    -8273927.22849  -6286679.26847  18990556.314    18990561.708
       241.000         203.000
  21547146.923   -11805934.07949  -9179877.16145  21547146.753    21547157.802
       210.000         151.000
  19349104.758    -7139689.70949  -5554753.39947  19349103.974    19349111.714
       233.000         190.000
  18556197.562   -11624910.71649  -9044625.08947  18556196.732    18556203.340
       242.000         205.000
  20965783.260   -11161531.62649  -8244240.71245  20965783.166    20965793.400
       219.000         160.000
  20040365.121    -4020360.28349  -3127418.31846  20040364.412    20040371.760
       233.000         187.000
  21919194.586    -1281479.56549   -972799.14245  21919194.966    21919203.586
       201.000         143.000
 01  6 22 20 38 59.9930000  0 10G14G21G 3G18G 9G17G15G29G23G31
  20202768.507   -15667141.12049 -12158013.71746  20202767.964    20202775.927
       228.000         176.000
  19488932.579   -18169219.35649 -14131985.06947  19488932.035    19488938.679
       238.000         197.000
  19872023.761   -21599094.35149 -16797182.06546  19872023.178    19872030.974
       233.000         187.000
  18984848.104    -8303927.54449  -6310056.16147  18984847.583    18984852.890
       241.000         204.000
  21527426.795   -11909564.88349  -9260628.31945  21527426.875    21527437.807
       210.000         152.000
  19345463.085    -7158827.51149  -5569666.03547  19345462.528    19345469.888
       234.000         190.000
  18547811.414   -11668981.09049  -9078965.66647  18547810.696    18547817.298
       242.000         206.000
  20934271.931   -11327124.88949  -8373274.20045  20934272.091    20934281.689
       219.000         160.000
  20037122.791    -4037399.30049  -3140695.52346  20037122.751    20037129.368
       233.000         186.000
  21892172.545    -1423481.85649  -1083450.19945  21892172.061    21892181.144
       201.000         143.000
 01  6 22 20 39 29.9930000  0 10G14G21G 3G18G 9G17G15G29G23G31
  20172246.545   -15827534.44349 -12282995.41346  20172245.511    20172254.209
       227.000         174.000
  19471463.789   -18261017.72549 -14203516.23047  19471463.338    19471470.070
       238.000         197.000
  19855469.562   -21686086.95549 -16864968.52946  19855469.201    19855476.333
       232.000         187.000
  18979177.166    -8333728.60749  -6333277.78447  18979176.556    18979181.973
       241.000         203.000
  21507794.397   -12012734.68749  -9341020.25045  21507794.109    21507804.567
       212.000         152.000
  19341888.891    -7177610.29649  -5584302.02847  19341888.355    19341895.842
       233.000         189.000
  18539497.123   -11712672.60949  -9113011.02347  18539496.419    18539503.153
       243.000         206.000
  20902804.673   -11492484.73449  -8502125.80145  20902805.023    20902815.015
       219.000         160.000
  20033895.524    -4054360.06649  -3153911.76446  20033894.690    20033901.472
       234.000         186.000
  21865227.281    -1565075.84749  -1193783.09545  21865227.414    21865236.082
       201.000         143.000
 01  6 22 20 39 59.9930000  0 10G14G21G 3G18G 9G17G15G29G23G31
  20141783.335   -15987619.06249 -12407736.57346  20141782.973    20141791.175
       225.000         175.000
  19454023.814   -18352665.10349 -14274929.75647  19454023.644    19454030.355
       239.000         196.000
  19839019.520   -21772532.90349 -16932328.99446  19839018.826    19839026.685
       233.000         186.000
  18973540.563    -8363349.68349  -6356359.16747  18973540.046    18973545.300
       241.000         203.000
  21488246.178   -12115459.15349  -9421065.17545  21488245.634    21488257.354
       210.000         151.000
  19338378.682    -7196056.22649  -5598675.54047  19338378.347    19338385.591
       232.000         188.000
  18531251.763   -11756003.07949  -9146775.05847  18531251.041    18531257.631
       243.000         205.000
  20871378.908   -11657627.42749  -8630808.20745  20871379.428    20871388.918
       217.000         160.000
  20030679.289    -4071261.75349  -3167081.96046  20030678.890    20030685.908
       234.000         186.000
  21838358.246    -1706277.49749  -1303810.28345  21838356.942    21838367.878
       210.000         145.000
 01  6 22 20 40 29.9930000  0 10G14G21G 3G18G 9G17G15G29G23G31
  20111378.918   -16147396.08549 -12532238.03046  20111378.656    20111386.533
       229.000         176.000
  19436612.026   -18444165.33449 -14346228.61347  19436611.389    19436618.431
       238.000         198.000
  19822673.141   -21858434.66649 -16999265.46646  19822672.500    19822680.352
       233.000         186.000
  18967937.267    -8392794.92049  -6379303.53247  18967936.832    18967941.956
       241.000         203.000
  21468783.034   -12217739.34549  -9500763.92045  21468782.416    21468793.525
       209.000         150.000
  19334932.312    -7214168.17949  -5612788.81547  19334932.156    19334939.498
       233.000         188.000
  18523074.430   -11798975.00049  -9180259.68347  18523073.559    18523080.427
       242.000         205.000
  20839994.400   -11822553.80749  -8759322.04245  20839994.350    20840004.345
       218.000         161.000
  20027473.495    -4088108.37649  -3180209.24946  20027472.581    20027480.041
       234.000         187.000
  21811562.396    -1847087.85849  -1413532.61645  21811561.861    21811570.184
       203.000         145.000
 01  6 22 20 40 59.9930000  0 10G14G21G 3G18G 9G17G15G29G23G31
  20081032.992   -16306864.26949 -12656498.82946  20081032.681    20081040.994
       229.000         176.000
  19419227.697   -18535519.99749 -14417414.03747  19419227.207    19419233.837
       238.000         198.000
  19806429.760   -21943792.93849 -17065778.40946  19806429.670    19806436.934
       233.000         186.000
  18962367.081    -8422066.68849  -6402112.72647  18962366.717    18962371.869
       241.000         204.000
  21449404.334   -12319573.91749  -9580115.41645  21449404.582    21449414.004
       210.000         151.000
  19331549.007    -7231946.92749  -5626642.45347  19331548.480    19331556.187
       232.000         188.000
  18514965.190   -11841588.70249  -9213465.18147  18514964.418    18514971.244
       242.000         205.000
  20808650.869   -11987263.16949  -8887666.79245  20808651.066    20808660.892
       217.000         160.000
  20024277.735    -4104901.83949  -3193295.11446  20024276.992    20024284.440
       233.000         186.000
  21784841.882    -1987505.75149  -1522948.99345  21784841.313    21784850.290
       206.000         144.000
 01  6 22 20 41 29.9930000  0 10G14G21G 3G18G 9G17G15G29G23G31
  20050742.887   -16466038.66649 -12780530.72246  20050742.580    20050751.082
       228.000         175.000
  19401867.876   -18626746.99349 -14488499.98247  19401867.157    19401874.018
       239.000         197.000
  19790286.849   -22028624.61049 -17131881.02946  19790286.271    19790293.851
       232.000         186.000
  18956826.358    -8451183.14749  -6424800.90447  18956825.922    18956831.049
       241.000         203.000
  21430107.580   -12420977.98149  -9659131.45545  21430107.738    21430117.567
       210.000         152.000
  19328225.972    -7249409.81249  -5640249.96347  19328225.428    19328233.639
       232.000         188.000
  18506921.069   -11883860.98649  -9246404.64547  18506920.357    18506927.118
       242.000         205.000
  20777346.010   -12151770.49249  -9015854.12145  20777345.679    20777356.059
       219.000         161.000
  20021088.813    -4121660.12249  -3206353.56146  20021088.487    20021095.184
       232.000         185.000
  21758192.439    -2127546.06249  -1632071.21845  21758192.224    21758202.133
       202.000         144.000
 01  6 22 20 41 59.9930000  0 10G14G21G 3G18G 9G17G15G29G23G31
  20020510.877   -16624908.42049 -12904325.22046  20020510.181    20020517.614
       227.000         176.000
  19384533.641   -18717838.11749 -14559480.06247  19384533.216    19384539.933
       239.000         197.000
  19774245.984   -22112920.48349 -17197566.13046  19774245.610    19774253.066
       232.000         187.000
  18951316.771    -8480136.78149  -6447362.19947  18951316.320    18951321.517
       242.000         203.000
  21410895.266   -12521940.55349  -9737803.47645  21410894.372    21410905.532
       212.000         152.000
  19324964.788    -7266547.82349  -5653604.32847  19324964.510    19324972.078
       231.000         188.000
  18498943.664   -11925782.57849  -9279070.83547  18498942.949    18498949.651
       242.000         205.000
  20746081.867   -12316065.05149  -9143875.65545  20746082.060    20746092.102
       218.000         162.000
  20017908.081    -4138375.13149  -3219378.29346  20017907.656    20017913.806
       232.000         185.000
  21731617.927    -2267197.55949  -1740890.49445  21731617.319    21731626.601
       204.000         143.000
 01  6 22 20 42 29.9930000  0 10G14G21G 3G18G 9G17G15G29G23G31
  19990337.191   -16783471.78949 -13027880.96046  19990336.879    19990344.907
       229.000         177.000
  19367225.294   -18808794.04049 -14630354.78047  19367224.892    19367231.988
       239.000         198.000
  19758306.815   -22196680.52449 -17262833.70146  19758306.614    19758314.442
       233.000         186.000
  18945837.626    -8508928.98149  -6469797.70347  18945837.328    18945842.663
       241.000         203.000
  21391766.741   -12622460.01649  -9816130.22445  21391766.882    21391777.483
       210.000         150.000
  19321765.261    -7283361.20349  -5666705.73246  19321764.617    19321772.831
       231.000         187.000
  18491033.028   -11967353.49949  -9311463.78247  18491032.380    18491039.051
       242.000         205.000
  20714858.283   -12480144.98349  -9271729.95445  20714857.470    20714868.828
       219.000         162.000
  20014735.294    -4155047.96049  -3232370.15646  20014734.713    20014741.398
       232.000         183.000
  21705117.042    -2406458.93249  -1849405.79045  21705115.836    21705126.128
       202.000         145.000
 01  6 22 20 42 59.9930000  0 10G14G21G 3G18G 9G17G15G29G23G31
  19960224.481   -16941714.10349 -13151186.54146  19960224.506    19960232.195
       228.000         178.000
  19349945.049   -18899602.88249 -14701114.88847  19349944.723    19349951.391
       240.000         198.000
  19742472.273   -22279891.83649 -17327673.68546  19742472.138    19742479.316
       234.000         187.000
  18940391.526    -8537548.34649  -6492098.53147  18940391.058    18940396.480
       241.000         203.000
  21372725.417   -12722521.54149  -9894100.14845  21372724.846    21372735.459
       209.000         149.000
  19318630.076    -7299837.31949  -5679544.34146  19318629.480    19318637.267
       231.000         187.000
  18483191.511   -12008560.62549  -9343573.24447  18483190.623    18483197.877
       242.000         205.000
  20683678.293   -12643995.91749  -9399405.83445  20683677.978    20683688.644
       218.000         162.000
  20011572.910    -4171666.93349  -3245320.04946  20011572.302    20011579.099
       232.000         185.000
  21678694.215    -2545315.24049  -1957605.43545  21678693.205    21678703.174
       207.000         147.000
 01  6 22 20 43 29.9930000  0 10G14G21G 3G18G 9G17G15G29G23G31
  19930173.402   -17099634.32749 -13274241.13446  19930172.252    19930180.373
       230.000         178.000
  19332692.442   -18990266.36949 -14771761.74147  19332691.984    19332698.590
       239.000         198.000
  19726742.177   -22362555.12949 -17392086.64346  19726741.473    19726748.971
       231.000         186.000
  18934978.003    -8565997.16049  -6514266.46647  18934977.506    18934982.820
       241.000         203.000
  21353771.768   -12822124.10949  -9971712.44845  21353770.029    21353781.941
       209.000         149.000
  19315558.936    -7315977.17649  -5692120.92746  19315558.709    19315565.980
       232.000         187.000
  18475419.123   -12049404.64049  -9375399.76747  18475418.381    18475425.139
       242.000         204.000
  20652542.313   -12807616.91449  -9526902.53646  20652541.452    20652551.078
       220.000         163.000
  20008420.201    -4188234.02449  -3258229.52946  20008419.610    20008426.326
       232.000         184.000
  21652347.262    -2683765.49649  -2065488.67845  21652346.668    21652355.959
       210.000         146.000
 01  6 22 20 43 59.9930000  0 10G14G21G 3G18G 9G17G15G29G23G31
  19900191.447   -17257189.34549 -13397011.15246  19900190.846    19900199.163
       228.000         178.000
  19315474.851   -19080744.81149 -14842264.40047  19315474.330    19315481.088
       240.000         198.000
  19711123.787   -22444629.66749 -17456040.83546  19711123.434    19711131.220
       234.000         186.000
  18929604.348    -8594235.62049  -6536270.48147  18929603.974    18929609.185
       241.000         202.000
  21334913.253   -12921224.92249 -10048933.75145  21334913.680    21334922.239
       209.000         149.000
  19312559.256    -7331739.93149  -5704403.67146  19312558.642    19312566.665
       231.000         187.000
  18467723.727   -12089844.21149  -9406911.13647  18467723.043    18467729.871
       241.000         204.000
  20621457.630   -12970964.93849  -9654186.53846  20621458.273    20621467.487
       219.000         165.000
  20005285.217    -4204709.16449  -3271067.34346  20005284.607    20005291.620
       231.000         185.000
  21626086.990    -2821766.79349  -2173022.08945  21626086.058    21626094.586
       209.000         147.000
 01  6 22 20 44 29.9930000  0 10G14G21G 3G18G 9G17G15G29G23G31
  19870274.428   -17414403.30249 -13519515.41846  19870273.878    19870281.702
       228.000         178.000
  19298287.457   -19171064.35849 -14912643.24647  19298287.164    19298293.818
       239.000         198.000
  19695612.701   -22526141.01849 -17519556.17646  19695612.634    19695619.887
       231.000         185.000
  18924265.711    -8622290.78649  -6558131.67547  18924265.212    18924270.690
       240.000         202.000
  21316146.524   -13019847.65749 -10125782.52645  21316146.234    21316156.340
       210.000         150.000
  19309626.481    -7347151.50349  -5716412.76346  19309626.175    19309634.401
       230.000         185.000
  18460100.392   -12129904.83749  -9438127.22447  18460099.832    18460106.485
       241.000         204.000
  20590421.067   -13134064.29149  -9781276.76846  20590420.915    20590431.036
       217.000         164.000
  20002162.567    -4221118.99049  -3283854.26946  20002162.219    20002168.704
       232.000         184.000
  21599906.982    -2959343.12649  -2280224.35345  21599906.868    21599915.319
       212.000         149.000
 01  6 22 20 44 59.9930000  0 10G14G21G 3G18G 9G17G15G29G23G31
  19840422.020   -17571278.34049 -13641755.59746  19840421.061    19840429.394
       229.000         178.000
  19281129.523   -19261230.37949 -14982902.46647  19281129.049    19281135.805
       240.000         198.000
  19680207.950   -22607093.49449 -17582636.04246  19680207.758    19680215.510
       232.000         186.000
  18918960.766    -8650168.35949  -6579854.48147  18918960.071    18918965.598
       241.000         203.000
  21297468.977   -13117994.68649 -10202260.61845  21297468.626    21297479.035
       210.000         150.000
  19306760.101    -7362216.41049  -5728151.73746  19306759.429    19306767.110
       231.000         186.000
  18452548.511   -12169590.16549  -9469050.87447  18452547.684    18452554.663
       241.000         204.000
  20559430.647   -13296917.39849  -9908175.13646  20559430.451    20559440.252
       219.000         165.000
  19999051.142    -4237468.96149  -3296594.55046  19999050.929    19999057.725
       231.000         183.000
  21573807.158    -3096496.57349  -2387097.07645  21573806.549    21573815.424
       207.000         148.000
 01  6 22 20 45 29.9930000  0 10G14G21G 3G18G 9G17G15G29G23G31
  19810635.650   -17727807.20849 -13763726.02546  19810635.042    19810642.896
       232.000         181.000
  19264001.551   -19351237.84649 -15053038.12947  19264000.986    19264007.771
       239.000         198.000
  19664910.398   -22687481.52249 -17645276.05646  19664910.223    19664917.774
       232.000         183.000
  18913690.312    -8677864.00949  -6601435.53647  18913689.957    18913695.358
       240.000         202.000
  21278884.276   -13215658.84149 -10278362.45845  21278883.333    21278893.669
       212.000         149.000
  19303960.190    -7376929.02949  -5739616.20346  19303959.830    19303967.613
       231.000         187.000
  18445069.149   -12208894.64849  -9499677.76547  18445068.506    18445075.358
       242.000         205.000
  20528489.023   -13459516.59849 -10034875.63346  20528488.577    20528498.634
       220.000         166.000
  19995952.230    -4253754.33149  -3309284.50446  19995951.370    19995958.885
       230.000         183.000
  21547789.806    -3233219.52949  -2493634.36245  21547790.172    21547798.556
       206.000         146.000
 01  6 22 20 45 59.9920000  0 10G14G21G 3G18G 9G17G15G29G23G31
  19780916.247   -17883982.77949 -13885421.16646  19780915.321    19780923.677
       231.000         180.000
  19246904.215   -19441084.19949 -15123048.25247  19246903.671    19246910.642
       239.000         198.000
  19649721.036   -22767302.24849 -17707474.02746  19649720.696    19649728.257
       231.000         185.000
  18908454.705    -8705377.88749  -6622874.93647  18908454.281    18908459.755
       240.000         202.000
  21260391.739   -13312834.87149 -10354083.91545  21260391.869    21260401.810
       209.000         149.000
  19301227.648    -7391289.11349  -5750805.94946  19301227.332    19301235.264
       232.000         187.000
  18437662.532   -12247816.76449  -9530006.70347  18437661.562    18437668.841
       241.000         204.000
  20497596.813   -13621855.06849 -10161372.97346  20497596.366    20497606.049
       220.000         166.000
  19992865.457    -4269975.46349  -3321924.39846  19992864.974    19992871.677
       230.000         182.000
  21521855.710    -3369505.53149  -2599831.16945  21521854.810    21521863.598
       207.000         147.000
 01  6 22 20 46 29.9920000  0 10G14G21G 3G18G 9G17G15G29G23G31
  19751261.338   -18039819.95249 -14006852.60746  19751261.143    19751268.803
       233.000         182.000
  19229835.240   -19530782.56849 -15192943.07647  19229834.471    19229841.726
       239.000         197.000
  19634637.308   -22846567.54349 -17769239.20746  19634637.019    19634644.580
       233.000         186.000
  18903251.907    -8732719.74949  -6644180.29947  18903251.353    18903256.561
       241.000         202.000
  21241991.388   -13409534.07749 -10429433.83545  21241990.440    21242000.146
       211.000         152.000
  19298560.755    -7405304.33349  -5761726.97646  19298559.981    19298568.341
       230.000         186.000
  18430326.988   -12286365.33949  -9560044.56547  18430326.298    18430333.088
       241.000         204.000
  20466751.420   -13783948.09149 -10287679.06346  20466751.125    20466761.234
       219.000         167.000
  19989789.318    -4286140.90949  -3334520.89846  19989788.785    19989796.171
       230.000         182.000
  21496001.382    -3505368.32249  -2705698.19545  21496001.190    21496009.756
       210.000         147.000
 01  6 22 20 46 59.9920000  0 10G14G21G 3G18G 9G17G15G29G23G31
  19721677.366   -18195284.32949 -14127993.56146  19721676.969    19721684.241
       233.000         182.000
  19212800.036   -19620303.69349 -15262699.78347  19212799.670    19212806.260
       240.000         198.000
  19619665.053   -22925247.43849 -17830548.22046  19619664.972    19619672.461
       232.000         186.000
  18898086.708    -8759862.53949  -6665330.54647  18898086.378    18898091.300
       241.000         202.000
  21223686.320   -13505723.87049 -10504386.82245  21223686.795    21223696.233
       211.000         150.000
  19295964.803    -7418946.89949  -5772357.61946  19295964.353    19295972.211
       230.000         185.000
  18423067.996   -12324511.46049  -9589768.82947  18423067.304    18423074.130
       242.000         205.000
  20435959.233   -13945761.15349 -10413766.99046  20435959.138    20435968.950
       220.000         167.000
  19986728.938    -4302223.79649  -3347053.06846  19986728.024    19986735.292
       230.000         183.000
  21470234.627    -3640773.97449  -2811209.03045  21470234.080    21470243.273
       212.000         148.000
 01  6 22 20 47 29.9920000  0 10G14G21G 3G18G 9G17G15G29G23G31
  19692150.216   -18350450.29249 -14248901.98246  19692149.719    19692157.418
       233.000         183.000
  19195783.909   -19709724.43849 -15332378.27547  19195783.046    19195790.079
       239.000         198.000
  19604789.887   -23003418.20149 -17891460.51346  19604789.651    19604796.777
       233.000         186.000
  18892944.935    -8786883.55449  -6686385.91147  18892944.431    18892949.554
       241.000         201.000
  21205464.421   -13601478.74949 -10579000.89445  21205464.291    21205474.502
       210.000         149.000
  19293425.058    -7432293.21649  -5782757.42346  19293424.292    19293432.375
       230.000         186.000
  18415871.272   -12362330.99149  -9619238.60947  18415870.402    18415877.254
       242.000         206.000
  20405206.115   -14107368.78549 -10539694.84946  20405205.725    20405215.988
       220.000         168.000
  19983669.488    -4318301.15649  -3359580.92146  19983668.405    19983676.149
       229.000         182.000
  21444540.143    -3775797.07849  -2916421.73845  21444538.904    21444548.598
       206.000         147.000
 01  6 22 20 47 59.9920000  0 10G14G21G 3G18G 9G17G15G29G23G31
  19662689.257   -18505267.82749 -14369538.89646  19662688.570    19662696.494
       234.000         183.000
  19178795.560   -19798997.77649 -15401941.90047  19178795.106    19178802.121
       239.000         198.000
  19590020.480   -23081031.82649 -17951938.66746  19590020.269    19590027.509
       234.000         186.000
  18887835.054    -8813735.96849  -6707309.89547  18887834.586    18887839.711
       241.000         201.000
  21187334.847   -13696748.90149 -10653237.29045  21187334.901    21187345.616
       209.000         150.000
  19290950.909    -7445295.47949  -5792889.12946  19290950.830    19290958.523
       230.000         185.000
  18408745.987   -12399775.73149  -9648416.34647  18408745.356    18408752.026
       242.000         205.000
  20374501.692   -14268721.03049 -10665423.71246  20374501.484    20374511.728
       221.000         169.000
  19980620.086    -4334325.66749  -3372067.61146  19980619.360    19980626.658
       229.000         182.000
  21418928.388    -3910387.61649  -3021297.40145  21418928.088    21418937.117
       208.000         146.000
 01  6 22 20 48 29.9920000  0 10G14G21G 3G18G 9G17G15G29G23G31
  19633300.468   -18659706.48749 -14489880.59046  19633300.069    19633307.757
       233.000         183.000
  19161840.933   -19888095.56049 -15471368.72147  19161840.263    19161847.233
       240.000         198.000
  19575362.378   -23158060.15149 -18011960.71846  19575362.011    19575369.511
       233.000         186.000
  18882762.441    -8840392.65349  -6728081.35047  18882761.900    18882767.099
       241.000         201.000
  21169303.997   -13791503.83949 -10727072.21745  21169303.651    21169313.975
       210.000         150.000
  19288547.525    -7457925.25349  -5802730.58746  19288547.162    19288555.135
       230.000         186.000
  18401697.095   -12436816.75049  -9677279.49447  18401696.455    18401703.306
       242.000         206.000
  20343851.273   -14429787.49149 -10790929.88346  20343852.211    20343861.650
       220.000         169.000
  19977586.193    -4350269.61449  -3384491.51846  19977585.623    19977593.189
       230.000         182.000
  21393404.771    -4044514.95249  -3125812.16045  21393404.737    21393413.197
       209.000         148.000
 01  6 22 20 48 59.9920000  0 10G14G21G 3G18G 9G17G15G29G23G31
  19603984.481   -18813763.21549 -14609924.66646  19603984.143    19603991.117
       232.000         183.000
  19144919.726   -19977016.96049 -15540658.10447  19144919.069    19144925.753
       240.000         198.000
  19560816.085   -23234501.56949 -18071525.46846  19560815.355    19560823.348
       232.000         184.000
  18877727.107    -8866853.19549  -6748699.97947  18877726.825    18877731.934
       241.000         201.000
  21151371.555   -13885740.42249 -10800503.19945  21151371.009    21151380.405
       213.000         152.000
  19286215.345    -7470181.40049  -5812280.89346  19286215.129    19286222.605
       231.000         185.000
  18394725.594   -12473452.55049  -9705826.89047  18394724.878    18394731.671
       242.000         206.000
  20313256.574   -14590565.07449 -10916210.95246  20313256.633    20313266.311
       220.000         169.000
  19974567.610    -4366132.49349  -3396852.24646  19974567.137    19974574.122
       230.000         182.000
  21367969.946    -4178175.72149  -3229963.35345  21367969.139    21367978.416
       209.000         147.000
 01  6 22 20 49 29.9920000  0 10G14G21G 3G18G 9G17G15G29G23G31
  19574738.303   -18967451.02949 -14729681.27046  19574738.085    19574745.461
       234.000         185.000
  19128028.891   -20065778.08349 -15609822.60547  19128028.352    19128035.023
       239.000         198.000
  19546378.610   -23310371.22849 -18130644.67946  19546378.188    19546385.311
       233.000         186.000
  18872726.178    -8893133.80149  -6769178.39247  18872725.807    18872730.847
       241.000         201.000
  21133534.859   -13979471.81549 -10873540.53645  21133534.547    21133544.744
       213.000         152.000
  19283951.411    -7482078.95549  -5821551.79546  19283951.005    19283958.750
       230.000         185.000
  18387828.391   -12509697.82449  -9734069.98247  18387827.669    18387834.474
       242.000         206.000
  20282713.905   -14751067.03149 -11041277.26346  20282714.082    20282723.673
       222.000         170.000
  19971561.420    -4381930.15649  -3409162.16346  19971561.318    19971568.137
       229.000         182.000
  21342621.742    -4311383.26249  -3333761.38945  21342620.262    21342630.258
       210.000         148.000
 01  6 22 20 49 59.9920000  0 10G14G21G 3G18G 9G17G15G29G23G31
  19545555.195   -19120809.45049 -14849181.22246  19545554.820    19545562.690
       233.000         184.000
  19111160.783   -20154420.54249 -15678894.63147  19111160.337    19111167.146
       239.000         198.000
  19532041.994   -23385710.80749 -18189350.84646  19532041.690    19532048.883
       233.000         185.000
  18867751.197    -8919277.16949  -6789549.87547  18867750.754    18867755.938
       241.000         200.000
  21115786.572   -14072737.81949 -10946215.25045  21115786.778    21115796.595
       214.000         152.000
  19281747.766    -7493659.66649  -5830575.80246  19281747.344    19281755.309
       230.000         185.000
  18380997.586   -12545593.81649  -9762040.91047  18380997.065    18381003.747
       242.000         206.000
  20252216.300   -14911332.93549 -11166159.62346  20252216.653    20252225.133
       222.000         170.000
  19968559.543    -4397704.74849  -3421454.10546  19968558.370    19968566.253
       230.000         182.000
  21317351.789    -4444177.31149  -3437237.22145  21317351.750    21317360.128
       211.000         149.000
 01  6 22 20 50 29.9920000  0 10G14G21G 3G18G 9G17G15G29G23G31
  19516442.552   -19273797.07049 -14968392.21046  19516441.666    19516449.322
       235.000         185.000
  19094322.691   -20242905.64349 -15747844.05447  19094322.491    19094328.887
       239.000         198.000
  19517813.799   -23460480.53749 -18247612.98946  19517813.498    19517820.646
       234.000         186.000
  18862809.683    -8945244.61849  -6809784.27547  18862809.219    18862814.831
       240.000         201.000
  21098135.075   -14165497.02549 -11018495.03945  21098134.716    21098144.842
       213.000         152.000
  19279611.911    -7504883.98549  -5839322.10046  19279611.436    19279619.345
       230.000         186.000
  18374240.813   -12581100.69749  -9789708.63347  18374240.295    18374247.059
       242.000         206.000
  20221771.571   -15071321.22449 -11290825.67046  20221770.774    20221780.891
       222.000         170.000
  19965569.601    -4413417.53549  -3433697.88146  19965569.325    19965576.176
       229.000         182.000
  21292168.101    -4576516.28149  -3540358.43145  21292167.264    21292177.321
       209.000         150.000
 01  6 22 20 50 59.9920000  0 10G14G21G 3G18G 9G17G15G29G23G31
  19487400.615   -19426411.65049 -15087312.54646  19487400.279    19487407.585
       233.000         186.000
  19077514.309   -20331233.74449 -15816671.12547  19077513.944    19077520.607
       238.000         198.000
  19503694.033   -23534680.37149 -18305431.04246  19503693.282    19503701.432
       234.000         186.000
  18857901.534    -8971037.08549  -6829882.32147  18857901.151    18857906.599
       240.000         200.000
  21080580.530   -14257747.46549 -11090378.40445  21080580.128    21080589.420
       216.000         153.000
  19277543.864    -7515751.80249  -5847790.60046  19277543.131    19277551.252
       230.000         186.000
  18367558.214   -12616217.98649  -9817072.78147  18367557.564    18367564.508
       242.000         205.000
  20191379.925   -15231030.03949 -11415273.93046  20191379.816    20191389.888
       222.000         170.000
  19962591.259    -4429069.02449  -3445893.89446  19962590.995    19962598.389
       230.000         182.000
  21267072.343    -4708397.82949  -3643123.22445  21267072.186    21267079.895
       208.000         150.000
 01  6 22 20 51 29.9920000  0 10G14G21G 3G18G 9G17G15G29G23G31
  19458437.445   -19578615.07949 -15205912.49546  19458436.858    19458444.315
       234.000         186.000
  19060742.533   -20419368.83849 -15885347.80347  19060742.169    19060749.095
       238.000         198.000
  19489689.406   -23608274.50949 -18362777.13046  19489688.804    19489696.728
       234.000         185.000
  18853033.434    -8996619.35949  -6849816.58347  18853033.074    18853038.454
       240.000         200.000
  21063129.975   -14349450.93149 -11161835.55245  21063129.941    21063139.420
       217.000         156.000
  19275550.624    -7526227.01949  -5855953.18146  19275549.841    19275558.058
       229.000         184.000
  18360956.812   -12650909.07149  -9844104.81947  18360956.109    18360963.155
       242.000         206.000
  20161048.624   -15390421.13049 -11539474.62146  20161048.266    20161058.193
       222.000         172.000
  19959631.540    -4444623.42449  -3458014.25646  19959630.850    19959638.111
       230.000         182.000
  21242070.294    -4839783.79149  -3745501.85045  21242069.427    21242078.131
       213.000         150.000
 01  6 22 20 51 59.9920000  0 10G14G21G 3G18G 9G17G15G29G23G31
  19429548.352   -19730426.29149 -15324206.82546  19429547.912    19429555.203
       233.000         185.000
  19044003.626   -20507332.96649 -15953891.25347  19044003.293    19044010.096
       239.000         198.000
  19475796.303   -23681284.03549 -18419667.67646  19475795.910    19475803.137
       230.000         183.000
  18848201.155    -9022013.54149  -6869604.28247  18848200.744    18848205.824
       240.000         200.000
  21045779.772   -14440627.07449 -11232881.78345  21045779.837    21045789.453
       215.000         154.000
  19273627.844    -7536330.80149  -5863826.32546  19273627.327    19273635.544
       229.000         183.000
  18354432.387   -12685194.74249  -9870820.95647  18354431.664    18354438.644
       242.000         204.000
  20130774.442   -15549513.75649 -11663442.73046  20130774.045    20130783.441
       222.000         171.000
  19956685.743    -4460102.60149  -3470075.99846  19956685.492    19956693.253
       230.000         182.000
  21217158.767    -4970693.32549  -3847509.21845  21217158.193    21217167.115
       217.000         151.000
 01  6 22 20 52 29.9920000  0 10G14G21G 3G18G 9G17G15G29G23G31
  19400732.614   -19881853.34949 -15442201.81846  19400731.813    19400739.456
       234.000         186.000
  19027295.016   -20595136.30349 -16022309.42547  19027294.680    19027301.555
       238.000         198.000
  19462012.105   -23753719.00049 -18476110.51646  19462011.735    19462019.446
       232.000         186.000
  18843402.440    -9047230.56049  -6889253.93747  18843401.778    18843407.356
       240.000         200.000
  21028527.815   -14531283.77249 -11303523.26445  21028527.453    21028537.983
       217.000         156.000
  19271773.802    -7546073.21249  -5871417.89546  19271772.877    19271781.364
       230.000         184.000
  18347983.386   -12719084.44549  -9897228.54747  18347982.635    18347989.639
       241.000         205.000
  20100555.127   -15708315.90149 -11787184.51046  20100554.788    20100564.382
       224.000         171.000
  19953752.458    -4475517.14849  -3482087.37246  19953751.826    19953759.498
       230.000         181.000
  21192336.432    -5101134.36549  -3949151.51745  21192335.988    21192344.785
       208.000         150.000
 01  6 22 20 52 59.9920000  0 10G14G21G 3G18G 9G17G15G29G23G31
  19371997.398   -20032857.94849 -15559867.63246  19371997.145    19372004.396
       235.000         186.000
  19010624.128   -20682743.21249 -16090574.52947  19010623.426    19010630.642
       239.000         200.000
  19448344.406   -23825542.84749 -18532077.17846  19448344.425    19448351.778
       231.000         185.000
  18838644.245    -9072234.96049  -6908737.90747  18838643.621    18838649.321
       240.000         199.000
  21011382.521   -14621382.79449 -11373730.19145  21011383.006    21011392.191
       217.000         155.000
  19269995.863    -7555417.87449  -5878699.52146  19269994.929    19270003.125
       229.000         183.000
  18341616.679   -12752541.45949  -9923298.97947  18341616.014    18341623.044
       241.000         204.000
  20070398.197   -15866789.06949 -11910669.92946  20070398.251    20070407.803
       223.000         172.000
  19950838.320    -4490831.11049  -3494020.39246  19950837.549    19950845.259
       229.000         181.000
  21167610.492    -5231068.53649  -4050398.86845  21167609.767    21167619.221
       214.000         154.000
 01  6 22 20 53 29.9920000  0 10G14G21G 3G18G 9G17G15G29G23G31
  19343343.400   -20183434.79449 -15677200.11646  19343343.138    19343350.597
       233.000         187.000
  18993990.878   -20770150.51749 -16158684.10947  18993990.420    18993997.257
       239.000         199.000
  19434793.862   -23896752.34949 -18587565.09046  19434793.357    19434801.025
       231.000         185.000
  18833927.052    -9097024.11849  -6928054.17247  18833926.571    18833932.275
       241.000         200.000
  20994344.280   -14710918.94649 -11443498.52445  20994344.535    20994353.473
       216.000         155.000
  19268293.807    -7564361.52049  -5885668.67346  19268292.851    19268301.458
       230.000         184.000
  18335332.953   -12785562.07249  -9949029.35647  18335332.226    18335339.393
       242.000         204.000
  20040305.363   -16024928.27449 -12033895.13246  20040305.161    20040315.199
       224.000         172.000
  19947944.060    -4506041.75349  -3505872.89146  19947943.732    19947950.602
       230.000         180.000
  21142982.276    -5360490.53049  -4151247.12545  21142981.938    21142990.793
       214.000         152.000
 01  6 22 20 53 59.9920000  0 10G14G21G 3G18G 9G17G15G29G23G31
  19314772.507   -20333575.66349 -15794192.88746  19314772.275    19314779.581
       233.000         187.000
  18977397.003   -20857352.88749 -16226633.98947  18977396.378    18977403.595
       238.000         198.000
  19421360.995   -23967341.68949 -18642569.78746  19421360.796    19421368.285
       231.000         185.000
  18829251.854    -9121592.79049  -6947198.63347  18829251.491    18829257.017
       240.000         200.000
  20977414.797   -14799884.61349 -11512822.32745  20977414.302    20977424.294
       214.000         155.000
  19266669.586    -7572898.04949  -5892320.59846  19266668.915    19266677.631
       229.000         183.000
  18329133.842   -12818139.80549  -9974414.64047  18329133.075    18329140.112
       241.000         204.000
  20010277.679   -16182725.33949 -12156853.72846  20010277.400    20010286.949
       225.000         173.000
  19945070.146    -4521143.52149  -3517640.55646  19945069.921    19945077.149
       228.000         180.000
  21118453.136    -5489392.47449  -4251690.13545  21118452.914    21118461.533
       214.000         152.000
 01  6 22 20 54 29.9920000  0 10G14G21G 3G18G 9G17G15G29G23G31
  19286274.847   -20483331.54349 -15910885.67746  19286274.614    19286281.600
       233.000         187.000
  18960831.790   -20944402.75049 -16294465.04247  18960831.231    18960838.435
       237.000         198.000
  19408036.453   -24037363.63649 -18697132.35746  19408036.416    19408043.169
       233.000         186.000
  18824608.400    -9145994.90849  -6966213.30647  18824607.966    18824613.467
       240.000         200.000
  20960583.883   -14888330.74349 -11581741.30145  20960583.985    20960593.625
       214.000         155.000
  19265112.348    -7581080.54149  -5898696.65446  19265111.838    19265120.358
       229.000         184.000
  18323008.721   -12850327.24949  -9999495.80547  18323007.959    18323015.229
       242.000         204.000
  19980304.848   -16340231.18749 -12279585.40246  19980304.290    19980313.325
       223.000         171.000
  19942206.864    -4536189.78549  -3529364.97046  19942206.418    19942214.066
       228.000         178.000
  21094013.272    -5617825.25549  -4351767.57545  21094013.038    21094021.198
       212.000         152.000
 01  6 22 20 54 59.9920000  0 10G14G21G 3G18G 9G17G15G29G23G31
  19257857.937   -20632663.24849 -16027247.93746  19257857.403    19257865.113
       233.000         187.000
  18944302.653   -21031263.85349 -16362149.00047  18944302.117    18944309.446
       238.000         199.000
  19394826.664   -24106781.33149 -18751224.07646  19394826.623    19394833.784
       233.000         184.000
  18820003.483    -9170193.79549  -6985069.61847  18820002.972    18820008.641
       240.000         199.000
  20943859.308   -14976218.17149 -11650224.92845  20943859.258    20943869.077
       215.000         155.000
  19263629.714    -7588871.62749  -5904767.70646  19263629.389    19263637.885
       230.000         184.000
  18316965.141   -12882086.77749 -10024243.52647  18316964.491    18316971.351
       241.000         204.000
  19950395.288   -16497406.49049 -12402059.50546  19950395.456    19950404.483
       225.000         170.000
  19939361.503    -4551143.64849  -3541017.38546  19939360.835    19939368.494
       229.000         179.000
  21069669.773    -5745749.79849  -4451448.97545  21069669.100    21069678.459
       213.000         150.000
 01  6 22 20 55 29.9920000  0 10G14G21G 3G18G 9G17G15G29G23G31
  19229519.403   -20781583.03149 -16143289.21446  19229518.903    19229526.237
       234.000         187.000
  18927806.876   -21117951.09849 -16429697.48847  18927806.255    18927813.067
       238.000         199.000
  19381729.265   -24175609.08049 -18804856.09646  19381728.983    19381736.874
       232.000         185.000
  18815434.203    -9194204.99349  -7003779.68047  18815433.842    18815439.390
       239.000         199.000
  20927238.925   -15063559.53749 -11718283.04445  20927238.817    20927249.138
       214.000         155.000
  19262219.267    -7596285.75849  -5910545.04046  19262218.608    19262226.997
       229.000         184.000
  18311000.328   -12913432.64749 -10048668.91847  18310999.617    18311006.625
       241.000         204.000
  19920546.362   -16654263.82449 -12524285.84346  19920546.280    19920555.681
       226.000         173.000
  19936530.593    -4566019.97749  -3552609.38246  19936530.282    19936538.112
       228.000         180.000
  21045421.136    -5873178.05849  -4550743.67445  21045421.106    21045429.410
       211.000         152.000
 01  6 22 20 55 59.9920000  0 10G14G21G 3G18G 9G17G15G29G23G31
  19201262.259   -20930073.89749 -16258996.28047  19201262.003    19201269.157
       235.000         188.000
  18911346.623   -21204449.49449 -16497098.82447  18911346.003    18911352.938
       238.000         199.000
  19368746.741   -24243832.14549 -18858016.94846  19368746.181    19368753.695
       232.000         184.000
  18810903.344    -9218014.13949  -7022332.29447  18810902.802    18810908.542
       239.000         198.000
  20910725.097   -15150338.46349 -11785902.88945  20910724.744    20910735.684
       214.000         154.000
  19260882.785    -7603308.05449  -5916017.04146  19260881.875    19260890.680
       228.000         183.000
  18305117.065   -12944349.19449 -10072759.78047  18305116.531    18305123.446
       241.000         204.000
  19890760.806   -16810786.27549 -12646251.23746  19890760.839    19890769.814
       226.000         174.000
  19933717.354    -4580804.21949  -3564129.62146  19933716.773    19933724.082
       229.000         179.000
  21021270.234    -6000093.00249  -4649638.37745  21021269.219    21021278.566
       214.000         152.000
 01  6 22 20 56 29.9920000  0 10G14G21G 3G18G 9G17G15G29G23G31
  19173084.204   -21078150.37849 -16374380.44047  19173083.785    19173091.661
       234.000         189.000
  18894919.145   -21290776.08649 -16564366.27447  18894918.939    18894925.795
       239.000         200.000
  19355876.398   -24311467.18549 -18910719.60446  19355876.164    19355883.669
       231.000         184.000
  18806407.964    -9241638.46949  -7040740.89347  18806407.666    18806413.162
       239.000         199.000
  20894315.721   -15236569.53149 -11853095.85045  20894316.254    20894325.364
       213.000         155.000
  19259617.998    -7609954.83049  -5921196.43446  19259617.495    19259625.777
       228.000         182.000
  18299312.578   -12974852.52849 -10096528.66347  18299311.729    18299318.841
       240.000         203.000
  19861036.468   -16966988.18449 -12767966.84746  19861036.260    19861045.873
       224.000         174.000
  19930918.389    -4595513.17949  -3575591.19446  19930917.863    19930925.591
       229.000         180.000
  20997213.928    -6126509.34349  -4748144.54745  20997212.868    20997222.033
       214.000         153.000
 01  6 22 20 56 59.9920000  0 10G14G21G 3G18G 9G17G15G29G23G31
  19144989.574   -21225788.22549 -16489422.82247  19144989.278    19144996.271
       236.000         190.000
  18878528.748   -21376908.77649 -16631482.64047  18878528.359    18878534.990
       239.000         200.000
  19343121.813   -24378492.11349 -18962946.85346  19343121.746    19343128.943
       230.000         184.000
  18801951.695    -9265056.71249  -7058988.90847  18801951.255    18801956.869
       239.000         199.000
  20878015.203   -15322228.46149 -11919842.98345  20878015.098    20878025.285
       212.000         154.000
  19258428.936    -7616204.01649  -5926066.02746  19258428.908    19258436.850
       228.000         182.000
  18293590.866   -13004919.88649 -10119957.82047  18293590.261    18293597.170
       240.000         203.000
  19831377.701   -17122845.54949 -12889414.00146  19831378.456    19831386.030
       224.000         175.000
  19928137.846    -4610125.04149  -3586977.11246  19928137.783    19928144.874
       229.000         180.000
  20973257.240    -6252402.77249  -4846243.28145  20973256.895    20973265.060
       212.000         153.000
 01  6 22 20 57 29.9920000  0 10G14G21G 3G18G 9G17G15G29G23G31
  19116977.728   -21372990.84849 -16604126.05746  19116977.238    19116984.371
       233.000         187.000
  18862173.899   -21462852.95849 -16698452.11247  18862173.795    18862180.488
       237.000         199.000
  19330482.305   -24444912.62349 -19014703.10246  19330481.589    19330489.869
       231.000         184.000
  18797533.248    -9288274.66849  -7077080.86347  18797533.273    18797538.901
       239.000         197.000
  20861823.380   -15407319.02149 -11986147.24845  20861822.577    20861832.852
       217.000         157.000
  19257314.304    -7622061.01249  -5930630.01646  19257314.028    19257322.931
       229.000         182.000
  18287951.320   -13034556.23149 -10143051.11747  18287950.525    18287957.870
       243.000         203.000
  19801784.118   -17278361.38849 -13010595.03146  19801784.030    19801793.002
       225.000         173.000
  19925374.564    -4624645.53649  -3598291.83446  19925374.357    19925381.583
       228.000         178.000
  20949399.130    -6377776.48249  -4943937.02445  20949398.612    20949407.407
       209.000         153.000
 01  6 22 20 57 59.9910000  0 10G14G21G 3G18G 9G17G15G29G23G31
  19089049.107   -21519756.34249 -16718488.67047  19089048.389    19089055.870
       234.000         188.000
  18845854.569   -21548611.96849 -16765277.30047  18845854.035    18845860.978
       238.000         199.000
  19317957.513   -24510731.61149 -19065990.65046  19317957.133    19317965.138
       230.000         183.000
  18793152.261    -9311297.53849  -7095020.80647  18793151.893    18793157.397
       239.000         198.000
  20845739.238   -15491841.86649 -12052009.13845  20845738.966    20845748.641
       216.000         156.000
  19256273.460    -7627530.83949  -5934892.30946  19256272.867    19256281.849
       227.000         181.000
  18282393.016   -13063765.68449 -10165811.78047  18282392.255    18282399.223
       243.000         203.000
  19772255.328   -17433533.98249 -13131508.58846  19772255.665    19772264.327
       226.000         173.000
  19922628.119    -4639079.69349  -3609539.28146  19922626.785    19922634.606
       228.000         178.000
  20925640.206    -6502629.98249  -5041225.40845  20925638.735    20925648.845
       213.000         153.000
 01  6 22 20 58 29.9910000  0 10G14G21G 3G18G 9G17G15G29G23G31
  19061201.284   -21666097.88649 -16832520.94647  19061201.152    19061208.157
       234.000         188.000
  18829568.126   -21634197.16349 -16831967.05047  18829567.442    18829574.423
       238.000         199.000
  19305545.220   -24575959.33349 -19116817.48946  19305545.026    19305552.597
       232.000         185.000
  18788806.853    -9334133.00049  -7112814.72147  18788806.463    18788812.166
       239.000         197.000
  20829761.116   -15575806.13849 -12117435.79045  20829761.195    20829770.545
       216.000         157.000
  19255305.406    -7632619.29849  -5938857.44946  19255305.059    19255314.434
       228.000         181.000
  18276914.592   -13092555.07749 -10188245.12047  18276913.965    18276921.063
       243.000         204.000
  19742789.761   -17588376.98949 -13252165.34146  19742788.947    19742798.577
       227.000         172.000
  19919896.360    -4653434.24249  -3620724.70646  19919896.177    19919903.458
       228.000         179.000
  20901978.151    -6626974.80849  -5138117.44145  20901977.476    20901985.927
       209.000         153.000
 01  6 22 20 58 59.9910000  0 10G14G21G 3G18G 9G17G15G29G23G31
  19033441.432   -21811976.30349 -16946192.34547  19033441.121    19033448.291
       234.000         188.000
  18813321.612   -21719573.21249 -16898493.82647  18813321.027    18813328.200
       238.000         199.000
  19293251.822   -24640561.24549 -19167156.67446  19293251.169    19293259.359
       231.000         184.000
  18784503.297    -9356748.45649  -7130437.20447  18784503.052    18784508.627
       239.000         198.000
  20813896.505   -15659175.02449 -12182398.50645  20813896.647    20813906.830
       216.000         157.000
  19254415.987    -7637293.72049  -5942499.96246  19254414.965    19254423.964
       226.000         180.000
  18271522.594   -13120890.27549 -10210324.54947  18271521.939    18271529.250
       243.000         204.000
  19713394.295   -17742850.74749 -13372534.37146  19713393.972    19713402.555
       227.000         174.000
  19917186.269    -4667676.48549  -3631822.61746  19917185.812    19917193.338
       228.000         177.000
  20878419.809    -6750772.28849  -5234582.94445  20878419.171    20878428.863
       211.000         152.000
 01  6 22 20 59 29.9910000  0 10G14G21G 3G18G 9G17G15G29G23G31
  19005767.414   -21957402.97649 -17059511.72647  19005767.002    19005774.469
       234.000         188.000
  18797112.353   -21804753.18249 -16964867.81247  18797111.941    18797118.965
       238.000         199.000
  19281074.926   -24704550.87849 -19217018.76246  19281074.877    19281082.636
       231.000         185.000
  18780239.022    -9379157.90149  -7147899.15447  18780238.604    18780244.418
       240.000         198.000
  20798142.912   -15741960.16049 -12246906.33445  20798142.624    20798152.072
       215.000         157.000
  19253602.528    -7641567.50449  -5945830.28046  19253602.369    19253610.465
       226.000         180.000
  18266214.444   -13148784.54349 -10232060.38547  18266213.959    18266220.962
       243.000         203.000
  19684066.801   -17896966.62349 -13492624.52646  19684066.831    19684075.970
       227.000         174.000
  19914494.738    -4681820.05949  -3642843.63146  19914494.833    19914500.896
       228.000         178.000
  20854963.583    -6874034.04749  -5330631.01445  20854962.854    20854972.228
       209.000         154.000
 01  6 22 20 59 59.9910000  0 10G14G21G 3G18G 9G17G15G29G23G31
  18978182.253   -22102364.72249 -17172468.83647  18978181.558    18978188.872
       235.000         188.000
  18780942.369   -21889727.01149 -17031081.16747  18780942.050    18780948.714
       238.000         199.000
  19269016.934   -24767917.37349 -19266395.27546  19269016.741    19269024.287
       232.000         185.000
  18776015.842    -9401351.05049  -7165192.55847  18776015.497    18776020.941
       240.000         198.000
  20782502.771   -15824148.91649 -12310949.45745  20782501.847    20782512.399
       216.000         156.000
  19252867.863    -7645429.79149  -5948839.95246  19252867.289    19252875.999
       227.000         180.000
  18260992.451   -13176226.40849 -10253443.69747  18260991.913    18260998.794
       243.000         203.000
  19654810.099   -18050711.54549 -13612425.62746  19654810.287    19654818.373
       227.000         174.000
  19911824.391    -4695854.00849  -3653779.22846  19911823.568    19911831.840
       228.000         178.000
  20831612.256    -6996746.82649  -5426251.31045  20831611.200    20831621.242
       211.000         152.000
 01  6 22 21  0 29.9910000  0 10G14G21G 3G18G 9G17G15G29G23G31
  18950684.802   -22246864.03049 -17285065.59447  18950683.874    18950691.498
       235.000         190.000
  18764810.679   -21974499.35149 -17097137.52747  18764810.258    18764817.521
       239.000         200.000
  19257076.264   -24830665.86249 -19315290.23146  19257075.683    19257083.626
       230.000         185.000
  18771832.759    -9423333.09749  -7182321.47347  18771832.431    18771838.010
       239.000         198.000
  20766975.957   -15905744.15549 -12374530.11245  20766975.603    20766985.045
       215.000         156.000
  19252210.136    -7648885.11149  -5951532.51146  19252209.019    19252218.512
       225.000         178.000
  18255855.897   -13203220.00649 -10274477.70947  18255855.155    18255862.239
       242.000         203.000
  19625623.506   -18204088.28149 -13731939.83046  19625623.750    19625632.382
       229.000         176.000
  19909173.747    -4709783.28749  -3664633.26146  19909173.287    19909180.958
       228.000         178.000
  20808365.165    -7118913.40849  -5521445.99345  20808365.291    20808374.348
       209.000         153.000
 01  6 22 21  0 59.9910000  0 10G14G21G 3G18G 9G17G15G29G23G31
  18923277.073   -22390891.70949 -17397294.86047  18923276.558    18923283.645
       234.000         189.000
  18748718.829   -22059062.56649 -17163030.92647  18748718.350    18748725.830
       239.000         200.000
  19245254.642   -24892788.94349 -19363697.85746  19245254.182    19245261.489
       232.000         186.000
  18767691.289    -9445097.12249  -7199280.49847  18767690.858    18767696.412
       240.000         198.000
  20751563.415   -15986736.59949 -12437641.05645  20751562.945    20751572.587
       217.000         156.000
  19251632.004    -7651926.07949  -5953902.20146  19251631.606    19251640.689
       224.000         177.000
  18250806.074   -13229757.24949 -10295156.12247  18250805.312    18250812.491
       242.000         202.000
  19596508.359   -18357087.52949 -13851159.88946  19596507.877    19596516.891
       227.000         175.000
  19906544.164    -4723600.64949  -3675400.08846  19906543.424    19906551.051
       228.000         179.000
  20785223.314    -7240524.51649  -5616207.83845  20785222.729    20785231.586
       215.000         155.000
 01  6 22 21  1 29.9910000  0 10G14G21G 3G18G 9G17G15G29G23G31
  18895957.767   -22534455.03649 -17509162.29647  18895957.217    18895964.657
       235.000         189.000
  18732664.950   -22143425.69549 -17228768.41347  18732664.728    18732671.683
       239.000         200.000
  19233550.229   -24954296.19249 -19411625.61146  19233550.181    19233557.631
       231.000         186.000
  18763589.576    -9466653.04649  -7216077.36947  18763589.039    18763594.764
       240.000         198.000
  20736264.049   -16067134.09049 -12500288.40345  20736263.628    20736273.012
       215.000         155.000
  19251130.281    -7654561.80349  -5955956.11746  19251129.683    19251138.242
       226.000         179.000
  18245841.201   -13255847.23949 -10315486.02447  18245840.352    18245847.887
       243.000         203.000
  19567464.131   -18509716.23749 -13970091.21646  19567463.688    19567472.847
       227.000         175.000
  19903934.744    -4737315.50549  -3686087.03446  19903933.913    19903941.589
       229.000         179.000
  20762185.691    -7361587.33549  -5710542.46745  20762185.878    20762194.406
       213.000         154.000
 01  6 22 21  1 59.9910000  0 10G14G21G 3G18G 9G17G15G29G23G31
  18868729.236   -22677542.13149 -17620658.63447  18868728.564    18868735.833
       235.000         190.000
  18716651.136   -22227579.47349 -17294342.77347  18716650.691    18716657.630
       239.000         200.000
  19221964.778   -25015177.98649 -19459065.99246  19221964.302    19221971.646
       231.000         186.000
  18759528.972    -9487991.54449  -7232704.81747  18759528.472    18759534.049
       239.000         199.000
  20721080.446   -16146925.31149 -12562463.32845  20721079.689    20721089.014
       215.000         155.000
  19250707.627    -7656782.67749  -5957686.77746  19250707.014    19250716.039
       225.000         177.000
  18240963.540   -13281479.80749 -10335459.49847  18240963.103    18240970.227
       243.000         203.000
  19538492.522   -18661962.65849 -14088724.65446  19538492.718    19538500.843
       227.000         174.000
  19901346.058    -4750918.30149  -3696686.66446  19901345.487    19901353.195
       227.000         178.000
  20739255.133    -7482090.38549  -5804440.90645  20739254.181    20739262.649
       212.000         154.000
 01  6 22 21  2 29.9910000  0 10G14G21G 3G18G 9G17G15G29G23G31
  18841589.151   -22820163.81949 -17731792.32347  18841588.771    18841595.427
       236.000         190.000
  18700674.543   -22311537.26849 -17359764.42847  18700674.120    18700680.869
       240.000         200.000
  19210495.801   -25075447.42649 -19506029.21946  19210495.618    19210502.839
       232.000         185.000
  18755507.233    -9509125.96549  -7249173.24347  18755507.024    18755512.414
       240.000         198.000
  20706010.001   -16226121.06149 -12624174.25545  20706009.934    20706017.953
       215.000         155.000
  19250361.616    -7658601.46149  -5959104.11546  19250361.248    19250369.284
       225.000         177.000
  18236170.748   -13306667.28649 -10355086.14547  18236169.917    18236177.060
       244.000         203.000
  19509591.518   -18813837.73349 -14207068.74346  19509590.880    19509599.988
       228.000         175.000
  19898776.414    -4764421.96749  -3707209.05546  19898776.159    19898783.443
       227.000         178.000
  20716428.468    -7602044.46449  -5897911.58045  20716427.727    20716435.595
       213.000         154.000
 01  6 22 21  2 59.9910000  0 10G14G21G 3G18G 9G17G15G29G23G31
  18814541.389   -22962300.63549 -17842548.17847  18814541.158    18814547.697
       235.000         190.000
  18684738.519   -22395281.49849 -17425019.66747  18684737.920    18684744.949
       239.000         200.000
  19199146.702   -25135087.71949 -19552502.20046  19199146.540    19199154.096
       232.000         186.000
  18751527.265    -9530039.78749  -7265469.76647  18751527.027    18751532.621
       239.000         198.000
  20691056.110   -16304702.34549 -12685406.37445  20691055.507    20691065.577
       215.000         155.000
  19250095.511    -7660000.76249  -5960194.58546  19250094.648    19250103.363
       224.000         177.000
  18231465.622   -13331391.82549 -10374352.05647  18231464.960    18231472.155
       243.000         203.000
  19480764.883   -18965321.81349 -14325108.15946  19480765.356    19480773.075
       227.000         175.000
  19896228.940    -4777809.31449  -3717640.78946  19896228.445    19896236.371
       228.000         178.000
  20693709.755    -7721430.08249  -5990939.27545  20693709.419    20693717.564
       211.000         155.000
 01  6 22 21  3 29.9910000  0 10G14G21G 3G18G 9G17G15G29G23G31
  18787578.614   -23103990.08349 -17952955.44447  18787578.025    18787585.231
       235.000         190.000
  18668835.650   -22478851.62349 -17490139.24547  18668835.262    18668842.260
       241.000         201.000
  19187909.390   -25194138.81649 -19598516.06146  19187908.749    19187917.357
       231.000         186.000
  18747581.961    -9550772.88249  -7281625.46647  18747581.453    18747587.316
       239.000         197.000
  20676212.238   -16382707.53349 -12746189.61145  20676211.108    20676222.143
       215.000         155.000
  19249901.488    -7661020.32449  -5960989.15846  19249900.584    19249909.936
       223.000         176.000
  18226841.343   -13355692.71249 -10393287.85247  18226840.600    18226847.896
       242.000         202.000
  19452005.477   -19116452.61749 -14442872.28846  19452005.396    19452014.191
       227.000         176.000
  19893696.187    -4791119.91449  -3728012.74246  19893695.656    19893703.177
       229.000         179.000
  20671092.521    -7840284.86549  -6083553.34945  20671092.091    20671100.483
       218.000         155.000
 01  6 22 21  3 59.9910000  0 10G14G21G 3G18G 9G17G15G29G23G31
  18760709.083   -23245189.06549 -18062980.52747  18760708.238    18760715.551
       236.000         190.000
  18652973.696   -22562206.78049 -17555091.31747  18652973.259    18652980.298
       240.000         201.000
  19176792.417   -25252559.78649 -19644038.91946  19176792.372    19176799.976
       230.000         184.000
  18743678.830    -9571284.52149  -7297608.60747  18743678.372    18743684.659
       239.000         196.000
  20661486.074   -16460093.70049 -12806490.47845  20661486.799    20661495.321
       214.000         154.000
  19249787.550    -7661618.98349  -5961455.75046  19249786.752    19249796.708
       223.000         176.000
  18222305.637   -13379528.41149 -10411861.16547  18222304.816    18222312.560
       243.000         203.000
  19423321.534   -19267186.99149 -14560327.52246  19423321.189    19423329.757
       226.000         176.000
  19891185.546    -4804312.89049  -3738293.03146  19891185.119    19891192.539
       228.000         178.000
  20648584.030    -7958565.85249  -6175720.31345  20648583.936    20648592.926
       213.000         155.000
 01  6 22 21  4 29.9910000  0 10G14G21G 3G18G 9G17G15G29G23G31
  18733940.677   -23385857.79449 -18172592.43547  18733940.488    18733947.462
       236.000         191.000
  18637159.766   -22645308.81249 -17619846.14747  18637159.228    18637166.247
       240.000         201.000
  19165802.435   -25310312.72049 -19689041.23146  19165802.099    19165810.279
       232.000         187.000
  18739824.845    -9591536.94449  -7313389.76847  18739824.180    18739830.609
       238.000         197.000
  20646885.217   -16536821.08949 -12866278.03745  20646884.830    20646894.991
       213.000         155.000
  19249761.228    -7661758.66449  -5961564.70846  19249760.235    19249769.801
       226.000         176.000
  18217865.733   -13402860.41949 -10430041.99047  18217865.323    18217872.465
       243.000         203.000
  19394720.757   -19417484.92049 -14677442.65046  19394720.954    19394729.055
       227.000         177.000
  19888704.735    -4817350.15749  -3748451.99646  19888703.967    19888711.771
       227.000         178.000
  20626192.773    -8076233.12749  -6267409.05045  20626192.326    20626201.750
       215.000         157.000
 01  6 22 21  4 59.9910000  0 10G14G21G 3G18G 9G17G15G29G23G31
  18707264.727   -23526040.00349 -18281825.23147  18707264.183    18707271.224
       235.000         191.000
  18621385.383   -22728204.03449 -17684439.82347  18621384.735    18621391.726
       239.000         201.000
  19154930.753   -25367444.01549 -19733559.15546  19154930.241    19154938.324
       231.000         186.000
  18736011.366    -9611576.61149  -7329005.14447  18736011.071    18736016.940
       238.000         196.000
  20632401.607   -16612934.03649 -12925586.78745  20632400.467    20632410.463
       214.000         154.000
  19249813.119    -7661485.32949  -5961351.83146  19249812.725    19249822.592
       225.000         176.000
  18213513.030   -13425734.16849 -10447865.72847  18213512.117    18213519.469
       242.000         203.000
  19366194.698   -19567390.14049 -14794251.77646  19366194.554    19366203.391
       228.000         176.000
  19886244.585    -4830277.55249  -3758525.33046  19886244.368    19886252.313
       228.000         177.000
  20603909.730    -8193330.65449  -6358653.82745  20603909.173    20603918.479
       217.000         157.000
 01  6 22 21  5 29.9910000  0 10G14G21G 3G18G 9G17G15G29G23G31
  18680684.659   -23665721.00949 -18390667.48047  18680684.177    18680690.884
       236.000         192.000
  18605652.827   -22810879.46049 -17748862.23447  18605652.362    18605659.305
       240.000         201.000
  19144179.675   -25423941.31049 -19777583.04346  19144179.612    19144187.630
       231.000         186.000
  18732240.707    -9631391.38349  -7344445.27147  18732240.251    18732246.416
       238.000         195.000
  20618037.137   -16688418.21949 -12984405.59245  20618037.299    20618046.493
       214.000         155.000
  19249946.340    -7660786.12949  -5960807.10946  19249946.060    19249955.097
       224.000         175.000
  18209249.927   -13448136.46849 -10465322.10747  18209249.170    18209256.849
       242.000         202.000
  19337746.073   -19716887.88449 -14910743.38146  19337745.862    19337754.929
       227.000         177.000
  19883808.018    -4843082.28749  -3768503.10646  19883807.088    19883815.474
       227.000         178.000
  20581738.081    -8309843.64349  -6449443.14145  20581737.740    20581746.941
       216.000         158.000
 01  6 22 21  5 59.9910000  0 10G14G21G 3G18G 9G17G15G29G23G31
  18654200.756   -23804893.84149 -18499113.74947  18654200.315    18654206.981
       236.000         193.000
  18589962.982   -22893330.24249 -17813109.59547  18589962.558    18589969.588
       240.000         200.000
  19133550.243   -25479800.16849 -19821109.45546  19133549.566    19133557.871
       231.000         186.000
  18728513.772    -9650976.67549  -7359706.58647  18728513.657    18728519.176
       238.000         195.000
  20603793.951   -16763267.16549 -13042729.42545  20603793.204    20603803.983
       215.000         156.000
  19250161.752    -7659656.30149  -5959926.83546  19250161.387    19250169.984
       225.000         176.000
  18205077.631   -13470062.26349 -10482407.17847  18205077.027    18205084.462
       242.000         203.000
  19309376.341   -19865971.32649 -15026912.14946  19309376.172    19309384.266
       228.000         178.000
  19881395.689    -4855759.58249  -3778381.57746  19881394.509    19881402.765
       227.000         177.000
  20559679.153    -8425765.31549  -6539771.68445  20559678.734    20559687.050
       213.000         156.000
 01  6 22 21  6 29.9910000  0 10G14G21G 3G18G 9G17G15G29G23G31
  18627817.320   -23943538.62249 -18607148.55847  18627816.908    18627824.013
       236.000         193.000
  18574319.251   -22975538.09749 -17877167.65747  18574319.005    18574325.879
       239.000         200.000
  19123045.573   -25535002.79249 -19864124.50646  19123045.290    19123052.785
       232.000         186.000
  18724834.089    -9670314.81249  -7374775.31247  18724833.623    18724839.269
       238.000         196.000
  20589675.130   -16837461.44749 -13100543.12345  20589674.926    20589684.453
       214.000         156.000
  19250461.860    -7658077.78849  -5958696.94146  19250461.104    19250470.532
       224.000         176.000
  18200999.521   -13491493.01549 -10499106.51047  18200998.942    18201006.445
       242.000         203.000
  19281089.372   -20014620.33449 -15142742.40946  19281089.200    19281097.158
       227.000         178.000
  19879010.965    -4868291.34949  -3788146.65246  19879010.223    19879017.722
       226.000         177.000
  20537736.472    -8541075.99549  -6629624.11345  20537735.947    20537745.394
       214.000         156.000
 01  6 22 21  6 59.9910000  0 10G14G21G 3G18G 9G17G15G29G23G31
  18601535.242   -24081652.12049 -18714769.37147  18601534.962    18601541.394
       236.000         193.000
  18558721.954   -23057502.13249 -17941035.73347  18558721.404    18558728.564
       240.000         201.000
  19112665.906   -25589548.37949 -19906627.59246  19112665.281    19112674.093
       232.000         186.000
  18721201.233    -9689405.06649  -7389650.88747  18721200.815    18721206.667
       237.000         194.000
  20575681.429   -16910998.33449 -13157844.56445  20575681.397    20575692.047
       212.000         155.000
  19250848.019    -7656049.30749  -5957116.41846  19250847.514    19250856.481
       224.000         176.000
  18197016.064   -13512426.91049 -10515418.67747  18197015.340    18197022.817
       242.000         203.000
  19252885.352   -20162831.75049 -15258231.68846  19252884.321    19252893.970
       227.000         178.000
  19876653.983    -4880676.34849  -3797797.35046  19876653.022    19876661.337
       226.000         175.000
  20515910.204    -8655772.47849  -6718997.96245  20515909.857    20515918.048
       216.000         157.000
 01  6 22 21  7 29.9910000  0 10G14G21G 3G18G 9G17G15G29G23G31
  18575348.469   -24219264.12249 -18821999.41447  18575347.964    18575354.708
       237.000         195.000
  18543165.156   -23139253.98949 -18004738.47547  18543164.525    18543171.801
       240.000         201.000
  19102405.123   -25643469.21749 -19948643.86646  19102404.857    19102412.436
       232.000         187.000
  18717609.578    -9708279.39349  -7404358.20147  18717609.406    18717615.475
       238.000         195.000
  20561807.131   -16983907.92849 -13214657.20845  20561807.740    20561817.119
       214.000         156.000
  19251313.706    -7653602.76749  -5955210.13346  19251312.948    19251322.278
       224.000         175.000
  18193121.028   -13532895.34349 -10531368.15347  18193120.410    18193128.060
       242.000         203.000
  19224758.966   -20310635.25649 -15373403.11246  19224758.647    19224767.838
       228.000         178.000
  19874319.095    -4892946.33349  -3807358.42946  19874318.470    19874326.977
       225.000         174.000
  20494195.036    -8769884.75549  -6807916.59045  20494194.342    20494203.709
       215.000         156.000
 01  6 22 21  7 59.9910000  0 10G14G21G 3G18G 9G17G15G29G23G31
  18549256.272   -24356378.00049 -18928841.30847  18549255.886    18549262.619
       237.000         195.000
  18527647.622   -23220798.82949 -18068279.90247  18527647.299    18527653.993
       240.000         200.000
  19092262.264   -25696770.89249 -19990177.65846  19092262.199    19092269.126
       232.000         186.000
  18714058.128    -9726943.41349  -7418901.64147  18714057.671    18714063.589
       237.000         196.000
  20548051.498   -17056194.25949 -13270984.17845  20548051.784    20548061.834
       211.000         154.000
  19251857.685    -7650743.47349  -5952982.23146  19251857.335    19251866.289
       224.000         173.000
  18189313.574   -13552903.23849 -10546958.76447  18189312.921    18189320.628
       242.000         202.000
  19196709.849   -20458034.14949 -15488259.26546  19196710.021    19196718.270
       227.000         179.000
  19872005.151    -4905106.54849  -3816833.98046  19872005.113    19872012.004
       225.000         175.000
  20472590.777    -8883416.13249  -6896382.54445  20472590.285    20472598.514
       217.000         158.000
 01  6 22 21  8 29.9910000  0 10G14G21G 3G18G 9G17G15G29G23G31
  18523262.621   -24492975.58649 -19035280.90847  18523262.055    18523269.263
       237.000         194.000
  18512172.511   -23302120.64449 -18131647.54547  18512172.042    18512179.306
       240.000         200.000
  19082239.960   -25749437.97449 -20031216.97646  19082239.567    19082247.563
       232.000         186.000
  18710549.501    -9745381.44149  -7433268.98647  18710549.377    18710555.425
       237.000         195.000
  20534418.098   -17127839.91249 -13326811.95245  20534418.672    20534426.904
       215.000         157.000
  19252483.538    -7647455.33849  -5950420.17046  19252483.067    19252493.180
       224.000         175.000
  18185597.124   -13572434.04049 -10562177.62847  18185596.718    18185603.776
       241.000         202.000
  19168740.995   -20605010.26349 -15602785.98246  19168741.387    19168749.631
       227.000         180.000
  19869715.332    -4917140.71349  -3826211.31946  19869714.860    19869723.293
       226.000         175.000
  20451100.101    -8996348.63149  -6984381.85845  20451100.076    20451108.137
       217.000         155.000
 01  6 22 21  8 59.9910000  0 10G14G21G 3G18G 9G17G15G29G23G31
  18497365.474   -24629065.77649 -19141325.12847  18497365.240    18497371.831
       237.000         195.000
  18496738.075   -23383229.25549 -18194849.04847  18496737.557    18496744.897
       239.000         200.000
  19072336.496   -25801481.57349 -20071770.46546  19072336.272    19072343.872
       233.000         187.000
  18707081.733    -9763604.31549  -7447468.67247  18707081.591    18707087.215
       238.000         196.000
  20520904.464   -17198854.12849 -13382147.69045  20520904.612    20520915.251
       215.000         157.000
  19253189.165    -7643749.06249  -5947532.27546  19253188.408    19253197.836
       224.000         174.000
  18181969.388   -13591498.14749 -10577032.82247  18181968.647    18181976.245
       242.000         202.000
  19140851.310   -20751572.47549 -15716990.16946  19140851.318    19140859.521
       226.000         180.000
  19867447.235    -4929059.33449  -3835498.61046  19867447.390    19867454.695
       226.000         174.000
  20429721.945    -9108691.21149  -7071921.49745  20429721.473    20429730.234
       217.000         156.000
 01  6 22 21  9 29.9900000  0 10G14G21G 3G18G 9G17G15G29G23G31
  18471566.635   -24764638.31349 -19246965.98047  18471566.100    18471573.099
       237.000         195.000
  18481345.333   -23464118.72249 -18257879.79947  18481344.836    18481352.136
       239.000         200.000
  19062552.235   -25852896.82849 -20111834.33046  19062552.242    19062558.872
       230.000         186.000
  18703655.850    -9781608.38549  -7461497.86547  18703655.647    18703661.531
       237.000         196.000
  20507512.692   -17269229.17649 -13436985.36045  20507512.592    20507521.948
       215.000         157.000
  19253974.588    -7639621.19649  -5944315.88046  19253973.897    19253983.151
       223.000         174.000
  18178431.278   -13610090.86449 -10591520.70147  18178430.909    18178438.061
       241.000         202.000
  19113042.022   -20897709.94349 -15830863.39346  19113042.062    19113050.757
       227.000         180.000
  19865201.681    -4940858.46249  -3844692.79946  19865201.150    19865209.556
       225.000         174.000
  20408458.019    -9220434.50649  -7158994.15345  20408457.408    20408465.977
       215.000         156.000
 01  6 22 21  9 59.9900000  0 10G14G21G 3G18G 9G17G15G29G23G31
  18445862.137   -24899716.61449 -19352221.71747  18445861.725    18445868.340
       237.000         195.000
  18465990.204   -23544810.47449 -18320756.48247  18465989.796    18465996.685
       238.000         200.000
  19052884.173   -25903703.79249 -20151424.20546  19052883.748    19052891.707
       231.000         186.000
  18700268.225    -9799411.04949  -7475370.12347  18700268.019    18700273.518
       238.000         195.000
  20494238.227   -17338984.38749 -13491340.04045  20494238.392    20494248.137
       215.000         157.000
  19254837.239    -7635087.81049  -5940783.49646  19254836.685    19254847.023
       224.000         174.000
  18174979.647   -13628229.27549 -10605654.58147  18174979.003    18174986.577
       241.000         202.000
  19085309.176   -21043446.91349 -15944424.55346  19085308.762    19085317.369
       227.000         181.000
  19862976.098    -4952554.95049  -3853807.00846  19862976.327    19862983.903
       224.000         174.000
  20387303.852    -9331600.42849  -7245616.90245  20387303.739    20387312.759
       217.000         158.000
 01  6 22 21 10 29.9900000  0 10G14G21G 3G18G 9G17G15G29G23G31
  18420259.467   -25034260.15849 -19457060.76247  18420259.162    18420265.779
       237.000         196.000
  18450679.612   -23625268.06549 -18383450.70447  18450679.178    18450685.922
       239.000         200.000
  19043338.407   -25953867.14749 -20190512.57446  19043337.924    19043346.019
       231.000         186.000
  18696925.338    -9816978.03549  -7489058.73347  18696924.879    18696930.848
       238.000         196.000
  20481089.227   -17408082.39549 -13545182.61445  20481088.952    20481098.772
       213.000         156.000
  19255783.690    -7630114.93249  -5936908.66346  19255782.583    19255792.500
       224.000         173.000
  18171621.198   -13645878.34049 -10619407.15547  18171620.454    18171628.255
       240.000         202.000
  19057660.394   -21188742.30549 -16057641.62046  19057660.596    19057668.627
       227.000         181.000
  19860776.812    -4964114.20949  -3862814.30646  19860776.172    19860784.348
       226.000         175.000
  20366267.197    -9442149.63749  -7331759.11045  20366266.320    20366275.443
       219.000         159.000
 01  6 22 21 10 59.9900000  0 10G14G21G 3G18G 9G17G15G29G23G31
  18394748.587   -25168320.45649 -19561523.24747  18394748.238    18394754.851
       237.000         196.000
  18435403.402   -23705544.65849 -18446003.88547  18435403.117    18435409.926
       238.000         200.000
  19033904.811   -26003440.79849 -20229141.43546  19033904.201    19033912.482
       231.000         186.000
  18693617.182    -9834363.04549  -7502605.54547  18693616.821    18693622.323
       238.000         195.000
  20468055.457   -17476574.91849 -13598553.36545  20468054.245    20468065.348
       213.000         156.000
  19256803.725    -7624756.07449  -5932733.06646  19256802.967    19256812.130
       223.000         173.000
  18168345.755   -13663090.92249 -10632819.61147  18168345.133    18168352.898
       240.000         202.000
  19030085.652   -21333647.54249 -16170554.66246  19030085.684    19030093.715
       227.000         181.000
  19858593.387    -4975589.24949  -3871755.96246  19858592.974    19858600.697
       226.000         175.000
  20345338.073    -9552133.70649  -7417460.94145  20345337.477    20345345.897
       219.000         158.000
 01  6 22 21 11 29.9900000  0 10G14G21G 3G18G 9G17G15G29G23G31
  18369327.008   -25301910.98749 -19665619.68347  18369326.585    18369333.330
       237.000         196.000
  18420159.113   -23785655.02849 -18508427.54047  18420158.608    18420165.783
       240.000         202.000
  19024580.707   -26052440.86849 -20267323.34046  19024579.975    19024588.148
       230.000         183.000
  18690340.654    -9851581.86249  -7516022.84247  18690340.053    18690346.355
       238.000         195.000
  20455134.233   -17544476.28149 -13651463.49245  20455134.557    20455143.633
       214.000         157.000
  19257894.087    -7619026.75049  -5928268.77846  19257893.794    19257903.481
       224.000         173.000
  18165150.600   -13679882.30249 -10645903.85247  18165149.862    18165157.537
       240.000         201.000
  19002582.752   -21478176.18749 -16283174.26446  19002582.385    19002591.045
       228.000         181.000
  19856422.531    -4986995.52349  -3880644.04846  19856421.685    19856430.004
       223.000         172.000
  20324513.460    -9661566.15349  -7502732.90545  20324512.404    20324520.964
       218.000         158.000
 01  6 22 21 11 59.9900000  0 10G14G21G 3G18G 9G17G15G29G23G31
  18343999.607   -25435007.59349 -19769331.24047  18343999.085    18344005.905
       237.000         196.000
  18404950.283   -23865577.32449 -18570704.64347  18404949.596    18404956.972
       240.000         201.000
  19015369.509   -26100845.48049 -20305041.27246  19015369.248    19015377.132
       231.000         185.000
  18687099.990    -9868612.29749  -7529293.36247  18687099.537    18687105.212
       238.000         195.000
  20442330.574   -17611762.42449 -13703894.22645  20442330.423    20442339.777
       213.000         156.000
  19259059.059    -7612904.46349  -5923498.31046  19259058.571    19259068.237
       223.000         172.000
  18162039.814   -13696229.59149 -10658642.06247  18162039.118    18162047.014
       240.000         202.000
  18975156.240   -21622303.63549 -16395481.24446  18975155.844    18975164.130
       227.000         181.000
  19854269.665    -4998310.29849  -3889460.81946  19854268.897    19854278.285
       226.000         175.000
  20303798.655    -9770422.95949  -7587556.36445  20303798.553    20303807.650
       218.000         159.000
 01  6 22 21 12 29.9900000  0 10G14G21G 3G18G 9G17G15G29G23G31
  18318767.842   -25567600.52449 -19872650.33047  18318767.698    18318774.136
       238.000         197.000
  18389778.910   -23945302.92449 -18632828.48947  18389778.482    18389785.415
       239.000         201.000
  19006273.041   -26148647.54549 -20342289.68146  19006272.542    19006280.662
       230.000         184.000
  18683896.386    -9885446.68049  -7542411.11147  18683895.724    18683902.280
       237.000         194.000
  20429645.159   -17678424.41049 -13755838.60245  20429643.466    20429654.417
       215.000         156.000
  19260300.476    -7606381.60249  -5918415.69946  19260299.268    19260309.208
       223.000         172.000
  18159015.099   -13712124.80149 -10671027.99547  18159014.569    18159022.157
       240.000         201.000
  18947807.689   -21766020.24849 -16507468.10346  18947807.377    18947815.956
       228.000         182.000
  19852135.426    -5009525.74349  -3898200.19246  19852134.908    19852142.767
       226.000         175.000
  20283195.366    -9878694.30249  -7671923.59945  20283194.490    20283203.975
       220.000         159.000
 01  6 22 21 12 59.9900000  0 10G14G21G 3G18G 9G17G15G29G23G31
  18293625.893   -25699721.93849 -19975601.99647  18293625.375    18293632.310
       237.000         196.000
  18374638.604   -24024866.52149 -18694826.09147  18374638.148    18374645.161
       239.000         201.000
  18997284.774   -26195881.78449 -20379095.63846  18997284.346    18997292.473
       230.000         184.000
  18680723.586    -9902119.21749  -7555402.73647  18680723.220    18680729.483
       237.000         193.000
  20417072.036   -17744495.03149 -13807322.16445  20417072.350    20417082.435
       216.000         157.000
  19261611.598    -7599492.41149  -5913047.63746  19261610.974    19261620.598
       223.000         172.000
  18156070.095   -13727601.62149 -10683087.91247  18156069.535    18156077.241
       240.000         201.000
  18920531.251   -21909358.07549 -16619159.80146  18920530.896    18920538.866
       229.000         182.000
  19850013.737    -5020675.75149  -3906888.57946  19850013.352    19850021.124
       227.000         175.000
  20262697.112    -9986412.77149  -7755860.02545  20262696.888    20262705.590
       220.000         159.000
 01  6 22 21 13 29.9900000  0 10G14G21G 3G18G 9G17G15G29G23G31
  18268576.215   -25831358.57649 -20078175.92447  18268576.070    18268582.488
       237.000         196.000
  18359531.282   -24104255.96549 -18756687.99347  18359530.682    18359537.853
       239.000         201.000
  18988406.509   -26242537.51649 -20415450.79546  18988406.075    18988414.120
       232.000         183.000
  18677583.800    -9918618.87249  -7568259.65547  18677583.251    18677589.439
       237.000         193.000
  20404613.963   -17809961.98049 -13858335.33745  20404613.227    20404623.743
       215.000         156.000
  19262994.491    -7592225.49449  -5907385.24746  19262993.736    19263003.720
       223.000         170.000
  18153206.858   -13742648.33149 -10694812.67547  18153206.303    18153213.895
       240.000         201.000
  18893329.290   -22052303.94049 -16730546.07846  18893329.155    18893337.223
       228.000         183.000
  19847906.688    -5031748.71749  -3915516.94246  19847906.582    19847914.988
       226.000         175.000
  20242306.415   -10093565.33249  -7839355.48445  20242306.673    20242315.014
       220.000         158.000
 01  6 22 21 13 59.9900000  0 10G14G21G 3G18G 9G17G15G29G23G31
  18243612.095   -25962545.64949 -20180399.54447  18243611.619    18243618.472
       239.000         197.000
  18344450.012   -24183508.17049 -18818442.96147  18344449.699    18344456.567
       240.000         202.000
  18979631.227   -26288652.19549 -20451384.36446  18979631.003    18979638.434
       231.000         182.000
  18674469.951    -9934982.65249  -7581010.69647  18674469.284    18674475.756
       236.000         193.000
  20392264.314   -17874860.62549 -13908905.67945  20392264.409    20392274.192
       217.000         157.000
  19264442.148    -7584618.03349  -5901457.50146  19264442.235    19264451.262
       222.000         170.000
  18150418.436   -13757301.51149 -10706230.79947  18150417.927    18150425.267
       240.000         199.000
  18866195.506   -22194892.80649 -16841654.17946  18866195.377    18866203.228
       228.000         183.000
  19845807.148    -5042781.29549  -3924113.81746  19845806.933    19845815.038
       225.000         174.000
  20222017.434   -10200186.98049  -7922437.25045  20222017.009    20222025.330
       220.000         160.000
 01  6 22 21 14 29.9900000  0 10G14G21G 3G18G 9G17G15G29G23G31
  18218738.691   -26093255.40549 -20282251.22647  18218738.296    18218745.130
       239.000         197.000
  18329400.035   -24262597.02849 -18880070.63847  18329399.554    18329406.756
       239.000         202.000
  18970963.856   -26334200.32449 -20486876.46646  18970963.659    18970970.992
       231.000         183.000
  18671386.695    -9951185.00749  -7593635.94747  18671386.193    18671392.437
       235.000         193.000
  20380027.579   -17939163.88549 -13959012.09045  20380026.110    20380036.910
       215.000         157.000
  19265959.645    -7576644.08849  -5895244.20446  19265959.012    19265969.113
       221.000         171.000
  18147709.960   -13771535.01449 -10717321.89947  18147709.305    18147716.824
       240.000         200.000
  18839134.823   -22337096.71849 -16952462.31246  18839134.937    18839143.003
       229.000         184.000
  19843720.626    -5053747.20449  -3932658.77246  19843720.514    19843728.281
       225.000         174.000
  20201834.294   -10306250.27249  -8005083.94245  20201834.017    20201841.850
       218.000         158.000
 01  6 22 21 14 59.9900000  0 10G14G21G 3G18G 9G17G15G29G23G31
  18193955.859   -26223489.85849 -20383732.53947  18193955.428    18193961.914
       239.000         198.000
  18314380.296   -24341525.46649 -18941573.31847  18314379.836    18314386.979
       240.000         202.000
  18962403.138   -26379186.85949 -20521930.95646  18962402.806    18962410.489
       231.000         182.000
  18668333.315    -9967229.87349  -7606138.47547  18668333.164    18668339.449
       236.000         192.000
  20367904.224   -18002874.31049 -14008656.55645  20367904.036    20367914.087
       217.000         158.000
  19267546.057    -7568307.69949  -5888748.45046  19267545.520    19267555.435
       222.000         171.000
  18145080.542   -13785352.22349 -10728088.61247  18145079.702    18145087.570
       239.000         199.000
  18812147.146   -22478917.56849 -17062971.95546  18812147.172    18812155.135
       230.000         185.000
  19841645.767    -5064649.97949  -3941154.51246  19841644.793    19841654.232
       225.000         175.000
  20181756.575   -10411757.46949  -8087297.30545  20181756.052    20181765.098
       219.000         159.000
 01  6 22 21 15 29.9900000  0 10G14G21G 3G18G 9G17G15G29G23G31
  18169259.600   -26353269.35149 -20484859.34347  18169258.718    18169265.665
       238.000         197.000
  18299386.891   -24420316.21249 -19002968.71047  18299386.534    18299393.694
       239.000         202.000
  18953945.024   -26423634.70449 -20556565.69146  18953944.516    18953952.741
       230.000         181.000
  18665305.960    -9983139.53749  -7618535.65047  18665305.352    18665311.755
       236.000         192.000
  20355889.134   -18066013.09549 -14057855.59245  20355889.250    20355899.070
       216.000         157.000
  19269197.172    -7559631.10449  -5881987.62046  19269196.498    19269206.391
       221.000         169.000
  18142526.466   -13798775.09349 -10738548.05447  18142525.602    18142533.488
       239.000         199.000
  18785228.277   -22620375.79149 -17173199.02746  18785228.526    18785236.977
       229.000         184.000
  19839578.752    -5075511.80049  -3949618.34546  19839578.818    19839586.959
       225.000         174.000
  20161781.367   -10516729.39849  -8169093.57645  20161780.731    20161789.590
       219.000         159.000
 01  6 22 21 15 59.9900000  0 10G14G21G 3G18G 9G17G15G29G23G31
  18144649.242   -26482596.93549 -20585634.01247  18144648.958    18144655.605
       238.000         197.000
  18284418.901   -24498973.83349 -19064260.36447  18284418.277    18284425.511
       241.000         202.000
  18945588.430   -26467549.55249 -20590785.09646  18945587.875    18945595.866
       231.000         182.000
  18662303.082    -9998919.29749  -7630831.60247  18662302.784    18662309.184
       236.000         192.000
  20343982.215   -18128583.99849 -14106612.12145  20343983.147    20343991.446
       217.000         159.000
  19270912.193    -7550619.58549  -5874965.81946  19270911.506    19270922.261
       219.000         169.000
  18140046.234   -13811808.31549 -10748703.86947  18140045.634    18140053.198
       240.000         199.000
  18758378.234   -22761474.49949 -17283145.95946  18758377.784    18758386.890
       228.000         184.000
  19837518.981    -5086337.30949  -3958053.88046  19837518.027    19837526.953
       224.000         173.000
  20141906.662   -10621169.48149  -8250475.41845  20141906.221    20141916.288
       217.000         158.000
 01  6 22 21 16 29.9900000  0 10G14G21G 3G18G 9G17G15G29G23G31
  18120127.938   -26611456.61349 -20686044.07647  18120127.430    18120134.018
       238.000         196.000
  18269478.942   -24577483.76149 -19125436.93647  18269478.514    18269485.767
       240.000         202.000
  18937335.728   -26510917.18049 -20624578.09046  18937335.555    18937343.357
       230.000         183.000
  18659327.890   -10014554.51449  -7643014.92047  18659327.218    18659333.874
       235.000         191.000
  20332186.337   -18190571.33549 -14154913.91845  20332186.276    20332195.816
       216.000         159.000
  19272693.771    -7541258.59149  -5867671.69046  19272693.211    19272703.131
       221.000         169.000
  18137643.300   -13824437.08549 -10758544.52647  18137642.527    18137650.146
       240.000         199.000
  18731599.637   -22902196.87949 -17392799.65046  18731599.506    18731608.139
       229.000         183.000
  19835468.795    -5097111.61949  -3966449.52046  19835468.371    19835477.203
       224.000         173.000
  20122136.831   -10725061.14349  -8331429.90745  20122136.608    20122144.804
       219.000         158.000
 01  6 22 21 16 59.9900000  0 10G14G21G 3G18G 9G17G15G29G23G31
  18095692.968   -26739863.32249 -20786101.18147  18095692.772    18095699.342
       238.000         196.000
  18254563.940   -24655862.51449 -19186511.29647  18254563.370    18254570.793
       240.000         201.000
  18929184.122   -26553755.36349 -20657958.53246  18929183.734    18929191.173
       231.000         183.000
  18656377.031   -10030062.17349  -7655098.84647  18656376.758    18656382.932
       236.000         191.000
  20320498.808   -18251990.80149 -14202773.22545  20320498.735    20320508.860
       217.000         158.000
  19274538.174    -7531565.11349  -5860118.48446  19274536.835    19274547.722
       220.000         170.000
  18135314.011   -13836677.96749 -10768082.94047  18135313.401    18135320.672
       241.000         200.000
  18704889.537   -23042558.26049 -17502172.05646  18704889.611    18704897.419
       227.000         183.000
  19833425.166    -5107851.24449  -3974818.13346  19833424.390    19833432.691
       224.000         172.000
  20102468.096   -10828419.72949  -8411969.02845  20102467.898    20102476.280
       217.000         158.000
 01  6 22 21 17 29.9900000  0 10G14G21G 3G18G 9G17G15G29G23G31
  18071347.466   -26867800.67349 -20885792.55747  18071347.353    18071353.261
       238.000         197.000
  18239676.974   -24734094.75049 -19247471.48547  18239676.495    18239683.377
       241.000         202.000
  18921135.573   -26596050.34649 -20690915.70746  18921135.734    18921143.506
       231.000         182.000
  18653453.012   -10045427.73049  -7667072.04047  18653452.513    18653458.654
       235.000         191.000
  20308921.875   -18312826.63149 -14250177.74345  20308922.400    20308931.470
       217.000         158.000
  19276449.337    -7521524.56749  -5852294.84446  19276448.918    19276459.157
       221.000         170.000
  18133061.249   -13848515.81649 -10777307.30047  18133060.833    18133068.138
       240.000         200.000
  18678251.730   -23182541.83049 -17611250.05646  18678251.551    18678259.505
       229.000         184.000
  19831390.889    -5118541.04049  -3983147.91146  19831390.156    19831398.335
       224.000         172.000
  20082904.523   -10931228.85049  -8492079.99845  20082903.556    20082912.083
       217.000         158.000
 01  6 22 21 17 59.9900000  0 10G14G21G 3G18G 9G17G15G29G23G31
  18047091.656   -26995264.68249 -20985115.09047  18047091.313    18047097.628
       237.000         197.000
  18224818.169   -24812178.35549 -19308315.86147  18224817.570    18224824.867
       241.000         202.000
  18913190.922   -26637800.96849 -20723448.71246  18913190.647    18913198.478
       231.000         182.000
  18650556.560   -10060649.25949  -7678933.01747  18650556.030    18650562.228
       236.000         191.000
  20297456.870   -18373075.73749 -14297125.08445  20297456.935    20297467.585
       217.000         158.000
  19278426.397    -7511135.26249  -5844199.43346  19278425.732    19278436.016
       220.000         169.000
  18130885.775   -13859948.44449 -10786215.91447  18130884.960    18130892.708
       240.000         199.000
  18651686.223   -23322143.74349 -17720030.67646  18651686.038    18651694.204
       228.000         184.000
  19829366.489    -5129178.84249  -3991437.20546  19829365.970    19829374.328
       223.000         172.000
  20063445.778   -11033484.97849  -8571760.07545  20063445.067    20063453.607
       216.000         158.000
 01  6 22 21 18 29.9900000  0 10G14G21G 3G18G 9G17G15G29G23G31
  18022924.489   -27122263.48949 -21084075.13647  18022924.093    18022930.629
       238.000         197.000
  18209985.744   -24890122.81249 -19369051.81247  18209985.316    18209992.488
       241.000         203.000
  18905347.492   -26679017.39349 -20755565.46146  18905346.686    18905355.115
       231.000         181.000
  18647685.750   -10075736.44049  -7690689.29547  18647685.313    18647691.615
       236.000         192.000
  20286101.878   -18432746.66249 -14343621.89145  20286101.739    20286112.194
       216.000         158.000
  19280467.854    -7500406.65349  -5835839.63746  19280467.863    19280476.887
       220.000         169.000
  18128785.631   -13870985.09949 -10794815.97547  18128784.811    18128792.450
       240.000         198.000
  18625191.894   -23461371.71549 -17828519.90846  18625191.621    18625199.946
       229.000         185.000
  19827350.410    -5139773.71849  -3999693.02446  19827350.163    19827358.681
       223.000         171.000
  20044090.629   -11135196.19849  -8651015.53545  20044090.575    20044099.092
       215.000         158.000
 01  6 22 21 18 59.9900000  0 10G14G21G 3G18G 9G17G15G29G23G31
  17998840.426   -27248826.34249 -21182695.46847  17998839.962    17998846.487
       238.000         197.000
  18195174.134   -24967959.09449 -19429703.46247  18195173.524    18195180.500
       241.000         203.000
  18897599.756   -26719731.64349 -20787290.89046  18897599.585    18897607.409
       228.000         181.000
  18644834.093   -10090720.52649  -7702365.24347  18644833.707    18644839.798
       237.000         191.000
  20274851.045   -18491869.46749 -14389691.58745  20274851.778    20274860.725
       216.000         159.000
  19282568.341    -7489370.28149  -5827240.02546  19282567.823    19282577.797
       219.000         168.000
  18126754.812   -13881657.01749 -10803131.81547  18126754.125    18126761.985
       239.000         198.000
  18598763.123   -23600255.02449 -17936740.56046  18598763.368    18598771.119
       229.000         185.000
  19825336.751    -5150356.61649  -4007939.52546  19825337.150    19825345.033
       223.000         171.000
  20024833.577   -11236392.18049  -8729869.51845  20024833.214    20024841.989
       214.000         157.000
 01  6 22 21 19 29.9900000  0 10G14G21G 3G18G 9G17G15G29G23G31
  17974847.605   -27374908.62949 -21280941.34047  17974847.081    17974853.814
       237.000         197.000
  18180391.290   -25045643.56449 -19490236.81847  18180390.822    18180397.678
       241.000         203.000
  18889955.555   -26759901.66549 -20818592.25346  18889955.324    18889963.546
       230.000         180.000
  18642010.586   -10105558.65649  -7713927.45347  18642009.988    18642016.336
       236.000         192.000
  20263713.324   -18550400.01149 -14435299.78945  20263713.089    20263722.741
       218.000         158.000
  19284735.126    -7477983.35249  -5818367.25446  19284735.285    19284745.120
       219.000         169.000
  18124801.694   -13891920.90149 -10811129.71247  18124800.900    18124808.698
       240.000         198.000
  18572408.616   -23738748.81949 -18044657.71246  18572408.675    18572416.547
       228.000         185.000
  19823333.547    -5160884.21249  -4016142.92846  19823332.606    19823341.842
       223.000         172.000
  20005682.846   -11337028.61849  -8808287.50745  20005682.097    20005691.378
       213.000         158.000
 01  6 22 21 19 59.9900000  0 10G14G21G 3G18G 9G17G15G29G23G31
  17950946.079   -27500511.73549 -21378813.83447  17950945.743    17950952.353
       236.000         198.000
  18165636.700   -25123179.23049 -19550654.23247  18165636.532    18165643.420
       241.000         203.000
  18882414.513   -26799531.56349 -20849472.73446  18882414.322    18882421.911
       230.000         181.000
  18639214.397   -10120253.79349  -7725378.24547  18639214.364    18639220.127
       236.000         192.000
  20252687.641   -18608340.71149 -14480448.38445  20252686.770    20252696.651
       216.000         158.000
  19286968.101    -7466249.33049  -5809224.02146  19286967.537    19286977.080
       219.000         167.000
  18122925.713   -13901779.52149 -10818811.83247  18122925.005    18122932.813
       239.000         198.000
  18546128.030   -23876854.47849 -18152272.41746  18546127.872    18546136.379
       230.000         185.000
  19821340.389    -5171359.28549  -4024305.41746  19821339.389    19821348.727
       223.000         171.000
  19986638.803   -11437107.22549  -8886270.81945  19986637.810    19986647.780
       214.000         157.000
 01  6 22 21 20 29.9900000  0 10G14G21G 3G18G 9G17G15G29G23G31
  17927133.618   -27625646.93849 -21476321.71947  17927133.610    17927139.783
       236.000         198.000
  18150908.147   -25200578.44049 -19610965.30747  18150907.780    18150914.965
       242.000         203.000
  18874973.335   -26838634.96149 -20879942.95846  18874973.071    18874981.266
       230.000         180.000
  18636442.717   -10134818.99049  -7736727.79647  18636442.336    18636448.934
       236.000         192.000
  20241771.764   -18665703.31849 -14525146.50945  20241771.525    20241780.621
       216.000         158.000
  19289264.852    -7454180.89149  -5799820.20646  19289263.983    19289275.293
       219.000         168.000
  18121124.543   -13911245.47149 -10826187.97147  18121123.748    18121131.899
       240.000         197.000
  18519918.855   -24014582.99649 -18259593.25946  18519919.187    18519927.097
       228.000         184.000
  19819354.797    -5181794.19949  -4032436.60346  19819354.345    19819363.051
       224.000         171.000
  19967698.239   -11536638.96749  -8963828.01745  19967698.265    19967707.131
       215.000         159.000
 01  6 22 21 20 59.9900000  0 10G14G21G 3G18G 9G17G15G29G23G31
  17903410.991   -27750310.45949 -21573462.06647  17903410.522    17903416.744
       237.000         198.000
  18136205.977   -25277838.60849 -19671168.04347  18136205.472    18136212.546
       242.000         203.000
  18867632.788   -26877210.60349 -20910001.94246  18867632.528    18867640.566
       230.000         180.000
  18633696.143   -10149252.16849  -7747974.47247  18633695.605    18633702.236
       236.000         192.000
  20230966.677   -18722484.76649 -14569391.77645  20230966.698    20230975.750
       217.000         158.000
  19291625.784    -7441776.29449  -5790154.45846  19291625.305    19291635.923
       219.000         169.000
  18119398.291   -13920316.56249 -10833256.43147  18119397.471    18119405.399
       239.000         197.000
  18493782.331   -24151930.27849 -18366617.01546  18493782.301    18493790.112
       230.000         186.000
  19817377.229    -5192186.41649  -4040534.53846  19817376.645    19817385.409
       223.000         170.000
  19948862.474   -11635620.71549  -9040956.62445  19948861.607    19948871.591
       213.000         158.000
 01  6 22 21 21 29.9890000  0 10G14G21G 3G18G 9G17G15G29G23G31
  17879777.908   -27874502.71949 -21670235.19747  17879777.711    17879783.617
       237.000         198.000
  18121529.909   -25354963.24249 -19731265.15747  18121529.274    18121536.213
       241.000         203.000
  18860391.472   -26915264.78549 -20939654.59646  18860391.023    18860399.242
       230.000         181.000
  18630973.717   -10163559.10449  -7759122.77247  18630973.238    18630979.646
       236.000         192.000
  20220271.334   -18778688.75949 -14613187.08945  20220271.664    20220281.405
       216.000         157.000
  19294049.096    -7429042.50549  -5780232.19046  19294048.325    19294058.884
       221.000         169.000
  18117746.329   -13928998.60549 -10840021.73447  18117745.619    18117753.234
       240.000         197.000
  18467718.734   -24288896.51749 -18473343.86846  18467718.743    18467726.552
       231.000         185.000
  19815406.906    -5202541.57149  -4048603.57946  19815405.852    19815414.598
       223.000         170.000
  19930131.657   -11734054.09049  -9117657.96345  19930131.424    19930139.526
       214.000         158.000
 01  6 22 21 21 59.9890000  0 10G14G21G 3G18G 9G17G15G29G23G31
  17856230.489   -27998244.52049 -21766657.33047  17856230.379    17856236.243
       237.000         198.000
  18106875.458   -25431971.52649 -19791271.61147  18106874.916    18106882.004
       242.000         203.000
  18853245.625   -26952814.79049 -20968914.38546  18853245.122    18853253.626
       230.000         181.000
  18628272.150   -10177755.05349  -7770184.60047  18628271.792    18628278.470
       235.000         191.000
  20209682.133   -18834332.27149 -14656545.65945  20209682.527    20209692.134
       217.000         157.000
  19296532.583    -7415993.15249  -5770064.03046  19296532.321    19296542.688
       220.000         168.000
  18116165.357   -13937306.03149 -10846495.13447  18116164.971    18116172.638
       239.000         197.000
  18441722.877   -24425503.02149 -18579790.41346  18441723.036    18441731.127
       229.000         185.000
  19813440.780    -5212874.06149  -4056654.96346  19813440.879    19813448.557
       224.000         171.000
  19911500.921   -11831958.09349  -9193946.79645  19911500.557    19911509.466
       217.000         161.000
 01  6 22 21 22 29.9890000  0 10G14G21G 3G18G 9G17G15G29G23G31
  17832776.073   -28121498.75749 -21862699.53847  17832775.468    17832782.025
       238.000         199.000
  18092249.826   -25508829.13349 -19851160.65147  18092249.340    18092256.525
       241.000         203.000
  18846202.345   -26989828.98549 -20997756.66446  18846201.957    18846210.279
       231.000         181.000
  18625598.113   -10191808.20349  -7781135.14847  18625597.733    18625604.206
       236.000         191.000
  20199207.285   -18889381.07949 -14699440.83445  20199207.109    20199216.800
       217.000         158.000
  19299081.519    -7402597.45449  -5759625.99746  19299081.003    19299091.194
       219.000         167.000
  18114662.026   -13945206.99249 -10852651.80847  18114661.427    18114669.127
       238.000         197.000
  18415803.264   -24561712.02949 -18685927.20746  18415803.447    18415811.344
       230.000         186.000
  19811484.889    -5223151.58649  -4064663.52346  19811484.877    19811493.363
       223.000         171.000
  19892977.864   -11929296.80849  -9269795.13245  19892977.091    19892986.124
       217.000         160.000
 01  6 22 21 22 59.9890000  0 10G14G21G 3G18G 9G17G15G29G23G31
  17809410.195   -28244287.36249 -21958378.91347  17809409.791    17809415.827
       237.000         199.000
  18077648.670   -25585558.81049 -19910950.00947  18077648.209    18077655.405
       240.000         203.000
  18839255.863   -27026331.77349 -21026200.44646  18839255.768    18839263.311
       231.000         181.000
  18622946.591   -10205741.93549  -7791992.65147  18622946.498    18622952.629
       235.000         190.000
  20188840.746   -18943857.72349 -14741890.16545  20188840.785    20188851.055
       218.000         159.000
  19301692.208    -7388879.08249  -5748936.54646  19301691.881    19301701.328
       219.000         167.000
  18113231.313   -13952724.94649 -10858510.04247  18113230.664    18113238.759
       239.000         197.000
  18389955.096   -24697545.32149 -18791771.24446  18389955.393    18389962.956
       230.000         187.000
  19809535.346    -5233397.17549  -4072647.17846  19809534.978    19809543.208
       223.000         169.000
  19874558.837   -12026092.49049  -9345220.34345  19874557.652    19874566.830
       217.000         161.000
 01  6 22 21 23 29.9890000  0 10G14G21G 3G18G 9G17G15G29G23G31
  17786135.093   -28366598.25149 -22053686.04847  17786134.626    17786141.214
       237.000         199.000
  18063073.789   -25662150.00149 -19970631.44847  18063073.570    18063080.661
       241.000         203.000
  18832409.020   -27062313.94349 -21054238.55646  18832408.959    18832417.146
       231.000         183.000
  18620319.650   -10219545.71649  -7802748.89647  18620319.198    18620326.166
       235.000         190.000
  20178585.255   -18997751.13949 -14783885.03845  20178585.177    20178594.365
       218.000         158.000
  19304366.192    -7374827.89149  -5737987.74246  19304365.398    19304376.196
       220.000         166.000
  18111875.813   -13959849.15049 -10864061.45147  18111875.407    18111883.688
       238.000         197.000
  18364180.861   -24832990.63949 -18897312.97046  18364180.773    18364188.764
       231.000         187.000
  19807593.984    -5243600.10349  -4080597.62946  19807593.906    19807602.491
       223.000         170.000
  19856244.683   -12122333.09749  -9420213.03245  19856244.636    19856252.899
       217.000         162.000
 01  6 22 21 23 59.9890000  0 10G14G21G 3G18G 9G17G15G29G23G31
  17762954.011   -28488415.47049 -22148608.50747  17762953.600    17762959.691
       237.000         199.000
  18048528.131   -25738588.06049 -20030193.56647  18048527.717    18048534.798
       240.000         203.000
  18825663.381   -27097762.09349 -21081860.53946  18825663.328    18825671.197
       231.000         181.000
  18617720.489   -10233205.32949  -7813392.79247  18617720.260    18617726.518
       235.000         190.000
  20168443.174   -19051046.45949 -14825413.84445  20168442.421    20168452.775
       217.000         158.000
  19307106.452    -7360429.89549  -5726768.71046  19307105.537    19307116.408
       220.000         166.000
  18110597.884   -13966565.40549 -10869294.97647  18110597.368    18110605.102
       239.000         197.000
  18338483.098   -24968031.95849 -19002539.86946  18338482.859    18338490.731
       230.000         187.000
  19805663.219    -5253745.82649  -4088503.46946  19805662.043    19805671.601
       222.000         170.000
  19838039.366   -12218003.21049  -9494761.16645  19838038.977    19838047.116
       219.000         162.000
 01  6 22 21 24 29.9890000  0 10G14G21G 3G18G 9G17G15G29G23G31
  17739865.597   -28609745.61049 -22243151.42047  17739865.306    17739871.845
       237.000         199.000
  18034010.185   -25814880.59549 -20089642.28747  18034009.587    18034016.873
       241.000         202.000
  18819017.879   -27132685.09649 -21109073.32046  18819017.797    18819025.881
       231.000         182.000
  18615147.049   -10246728.73549  -7823930.55447  18615146.542    18615153.009
       234.000         189.000
  20158414.331   -19103750.51349 -14866481.91345  20158413.258    20158422.992
       218.000         157.000
  19309910.382    -7345693.33549  -5715285.86446  19309909.841    19309919.573
       217.000         166.000
  18109396.005   -13972881.23649 -10874216.48247  18109395.565    18109403.323
       238.000         197.000
  18312861.362   -25102675.58049 -19107456.88846  18312861.447    18312869.389
       231.000         186.000
  19803742.198    -5263841.70449  -4096370.46846  19803741.512    19803750.016
       222.000         169.000
  19819941.133   -12313109.58249  -9568870.02846  19819940.865    19819949.063
       220.000         163.000
 01  6 22 21 24 59.9890000  0 10G14G21G 3G18G 9G17G15G29G23G31
  17716870.031   -28730588.21349 -22337314.43147  17716869.613    17716875.898
       237.000         200.000
  18019519.627   -25891028.27049 -20148978.12947  18019519.044    18019526.486
       240.000         203.000
  18812471.513   -27167085.42849 -21135878.81746  18812471.235    18812479.723
       229.000         181.000
  18612599.448   -10260117.01449  -7834363.02547  18612599.272    18612605.645
       235.000         190.000
  20148497.089   -19155863.81849 -14907089.66845  20148497.183    20148507.112
       215.000         158.000
  19312779.136    -7330619.49049  -5703540.19746  19312779.116    19312788.860
       219.000         166.000
  18108270.136   -13978797.65249 -10878826.74947  18108269.660    18108277.544
       238.000         197.000
  18287315.272   -25236920.75749 -19212063.43147  18287315.055    18287322.753
       231.000         188.000
  19801830.542    -5273888.21149  -4104198.99946  19801830.328    19801839.272
       221.000         168.000
  19801949.988   -12407651.94849  -9642539.39945  19801949.907    19801958.781
       217.000         162.000
